<?xml version='1.0' encoding='UTF-8'?><gpx version="1.1" creator="JPX - https://github.com/jenetics/jpx" xmlns="http://www.topografix.com/GPX/1/1"><trk><trkseg><trkpt lat="43.770955146206944" lon="11.458856125419068"><ele>115.0</ele><time>2026-04-29T23:11:52Z</time></trkpt><trkpt lat="43.770853708290474" lon="11.458948174276486"><ele>115.0</ele><time>2026-04-29T23:11:53Z</time></trkpt><trkpt lat="43.770761715496185" lon="11.459053179943245"><ele>115.0</ele><time>2026-04-29T23:11:54Z</time></trkpt><trkpt lat="43.77065393668781" lon="11.459125252790763"><ele>115.0</ele><time>2026-04-29T23:11:55Z</time></trkpt><trkpt lat="43.77055637285266" lon="11.459204886419398"><ele>115.0</ele><time>2026-04-29T23:11:56Z</time></trkpt><trkpt lat="43.770463721280535" lon="11.459260523303868"><ele>115.0</ele><time>2026-04-29T23:11:57Z</time></trkpt><trkpt lat="43.770374559367305" lon="11.459270183076004"><ele>115.0</ele><time>2026-04-29T23:11:58Z</time></trkpt><trkpt lat="43.770285988643245" lon="11.459249184625195"><ele>115.0</ele><time>2026-04-29T23:11:59Z</time></trkpt><trkpt lat="43.77018898785761" lon="11.459218086755591"><ele>115.0</ele><time>2026-04-29T23:12:00Z</time></trkpt><trkpt lat="43.77008867577826" lon="11.459186517001005"><ele>114.0</ele><time>2026-04-29T23:12:01Z</time></trkpt><trkpt lat="43.769981107926924" lon="11.459153352485423"><ele>113.0</ele><time>2026-04-29T23:12:02Z</time></trkpt><trkpt lat="43.769875191752874" lon="11.459121610273959"><ele>112.0</ele><time>2026-04-29T23:12:03Z</time></trkpt><trkpt lat="43.76976383179172" lon="11.459088359861"><ele>111.0</ele><time>2026-04-29T23:12:04Z</time></trkpt><trkpt lat="43.76964945742363" lon="11.459060903172826"><ele>110.0</ele><time>2026-04-29T23:12:05Z</time></trkpt><trkpt lat="43.76953266747807" lon="11.459056622594527"><ele>110.0</ele><time>2026-04-29T23:12:06Z</time></trkpt><trkpt lat="43.76941959101624" lon="11.459102080160616"><ele>110.0</ele><time>2026-04-29T23:12:07Z</time></trkpt><trkpt lat="43.76929963781004" lon="11.4591254907493"><ele>110.0</ele><time>2026-04-29T23:12:08Z</time></trkpt><trkpt lat="43.769185762572825" lon="11.459209299667481"><ele>110.0</ele><time>2026-04-29T23:12:08.999Z</time></trkpt><trkpt lat="43.76906627640749" lon="11.459282584183569"><ele>109.5</ele><time>2026-04-29T23:12:09.999Z</time></trkpt><trkpt lat="43.76894031534865" lon="11.459368782847479"><ele>109.0</ele><time>2026-04-29T23:12:10.999Z</time></trkpt><trkpt lat="43.76881282821767" lon="11.45942621328956"><ele>108.5</ele><time>2026-04-29T23:12:11.999Z</time></trkpt><trkpt lat="43.7686850734051" lon="11.459504592446585"><ele>108.0</ele><time>2026-04-29T23:12:12.999Z</time></trkpt><trkpt lat="43.76855583297507" lon="11.459589794390117"><ele>108.25</ele><time>2026-04-29T23:12:13.999Z</time></trkpt><trkpt lat="43.76843201653489" lon="11.459701405258166"><ele>108.5</ele><time>2026-04-29T23:12:14.999Z</time></trkpt><trkpt lat="43.76834687181818" lon="11.459851067917796"><ele>108.75</ele><time>2026-04-29T23:12:15.999Z</time></trkpt><trkpt lat="43.768260862765075" lon="11.460016735565315"><ele>109.0</ele><time>2026-04-29T23:12:16.999Z</time></trkpt><trkpt lat="43.768159458256775" lon="11.460150538110284"><ele>109.0</ele><time>2026-04-29T23:12:17.999Z</time></trkpt><trkpt lat="43.76806363318649" lon="11.46027399352139"><ele>109.0</ele><time>2026-04-29T23:12:18.999Z</time></trkpt><trkpt lat="43.767950131687904" lon="11.460375228074476"><ele>109.0</ele><time>2026-04-29T23:12:19.999Z</time></trkpt><trkpt lat="43.76783803091241" lon="11.460455967953854"><ele>109.0</ele><time>2026-04-29T23:12:20.999Z</time></trkpt><trkpt lat="43.767727759318625" lon="11.460517145400384"><ele>108.4</ele><time>2026-04-29T23:12:21.999Z</time></trkpt><trkpt lat="43.7676196574676" lon="11.460579692799177"><ele>107.80000000000001</ele><time>2026-04-29T23:12:22.999Z</time></trkpt><trkpt lat="43.76751512391103" lon="11.46057923780427"><ele>107.19999999999999</ele><time>2026-04-29T23:12:23.999Z</time></trkpt><trkpt lat="43.76742839377097" lon="11.460521995054405"><ele>106.6</ele><time>2026-04-29T23:12:24.999Z</time></trkpt><trkpt lat="43.767344888254975" lon="11.46049823582993"><ele>106.0</ele><time>2026-04-29T23:12:25.999Z</time></trkpt><trkpt lat="43.76727004342413" lon="11.460482215387659"><ele>106.0</ele><time>2026-04-29T23:12:26.999Z</time></trkpt><trkpt lat="43.76720000911213" lon="11.460529792019111"><ele>106.0</ele><time>2026-04-29T23:12:27.999Z</time></trkpt><trkpt lat="43.76714009607006" lon="11.4606209913846"><ele>106.0</ele><time>2026-04-29T23:12:28.999Z</time></trkpt><trkpt lat="43.76706366835904" lon="11.460687904236428"><ele>106.0</ele><time>2026-04-29T23:12:29.999Z</time></trkpt><trkpt lat="43.76696376550294" lon="11.460709059662488"><ele>106.0</ele><time>2026-04-29T23:12:30.999Z</time></trkpt><trkpt lat="43.76685223967466" lon="11.460729952151118"><ele>104.75</ele><time>2026-04-29T23:12:31.999Z</time></trkpt><trkpt lat="43.76673089157355" lon="11.46074061884928"><ele>103.5</ele><time>2026-04-29T23:12:32.999Z</time></trkpt><trkpt lat="43.766611832835814" lon="11.46074844968228"><ele>102.25</ele><time>2026-04-29T23:12:33.999Z</time></trkpt><trkpt lat="43.76648279623486" lon="11.460736302429032"><ele>101.0</ele><time>2026-04-29T23:12:34.999Z</time></trkpt><trkpt lat="43.76635218466798" lon="11.460735435165844"><ele>101.0</ele><time>2026-04-29T23:12:35.999Z</time></trkpt><trkpt lat="43.766221048053566" lon="11.460713829127538"><ele>101.0</ele><time>2026-04-29T23:12:36.999Z</time></trkpt><trkpt lat="43.76608687704569" lon="11.460712240407352"><ele>101.0</ele><time>2026-04-29T23:12:37.999Z</time></trkpt><trkpt lat="43.76596035667638" lon="11.460762867507768"><ele>101.0</ele><time>2026-04-29T23:12:39Z</time></trkpt><trkpt lat="43.76584432669055" lon="11.46081850385536"><ele>101.0</ele><time>2026-04-29T23:12:40Z</time></trkpt><trkpt lat="43.76572995601508" lon="11.460891531593994"><ele>101.0</ele><time>2026-04-29T23:12:41Z</time></trkpt><trkpt lat="43.7656124535539" lon="11.460970079575866"><ele>101.0</ele><time>2026-04-29T23:12:42Z</time></trkpt><trkpt lat="43.765483372463315" lon="11.461046130106086"><ele>101.0</ele><time>2026-04-29T23:12:43Z</time></trkpt><trkpt lat="43.76535013095729" lon="11.461131603922386"><ele>101.0</ele><time>2026-04-29T23:12:44Z</time></trkpt><trkpt lat="43.76522534535184" lon="11.461226269802149"><ele>101.0</ele><time>2026-04-29T23:12:45Z</time></trkpt><trkpt lat="43.765096861883116" lon="11.4613324432973"><ele>101.0</ele><time>2026-04-29T23:12:46Z</time></trkpt><trkpt lat="43.76496970154741" lon="11.46143938990502"><ele>101.0</ele><time>2026-04-29T23:12:47Z</time></trkpt><trkpt lat="43.76482696388764" lon="11.461529254473211"><ele>103.0</ele><time>2026-04-29T23:12:48Z</time></trkpt><trkpt lat="43.7646995712225" lon="11.461653052735777"><ele>105.0</ele><time>2026-04-29T23:12:49Z</time></trkpt><trkpt lat="43.76458419691208" lon="11.461806145984434"><ele>107.0</ele><time>2026-04-29T23:12:50Z</time></trkpt><trkpt lat="43.764456089055514" lon="11.461955662809519"><ele>105.0</ele><time>2026-04-29T23:12:51Z</time></trkpt><trkpt lat="43.76432972196621" lon="11.462085447933957"><ele>103.0</ele><time>2026-04-29T23:12:52Z</time></trkpt><trkpt lat="43.76421492294333" lon="11.462239592269615"><ele>101.0</ele><time>2026-04-29T23:12:53Z</time></trkpt><trkpt lat="43.76410685573644" lon="11.462400760724217"><ele>101.0</ele><time>2026-04-29T23:12:54Z</time></trkpt><trkpt lat="43.76401554334348" lon="11.462584314600287"><ele>101.0</ele><time>2026-04-29T23:12:55Z</time></trkpt><trkpt lat="43.763904347300176" lon="11.462735117358015"><ele>101.0</ele><time>2026-04-29T23:12:56Z</time></trkpt><trkpt lat="43.76380850514846" lon="11.46289780463153"><ele>103.33333333333333</ele><time>2026-04-29T23:12:57Z</time></trkpt><trkpt lat="43.76371257358526" lon="11.463060643690604"><ele>105.66666666666666</ele><time>2026-04-29T23:12:58Z</time></trkpt><trkpt lat="43.76361716964694" lon="11.46322811457584"><ele>108.0</ele><time>2026-04-29T23:12:59Z</time></trkpt><trkpt lat="43.76353066891528" lon="11.463407997192164"><ele>105.0</ele><time>2026-04-29T23:13:00Z</time></trkpt><trkpt lat="43.763465243072844" lon="11.463603856856135"><ele>102.0</ele><time>2026-04-29T23:13:01Z</time></trkpt><trkpt lat="43.763395208415616" lon="11.463792617057381"><ele>99.0</ele><time>2026-04-29T23:13:02Z</time></trkpt><trkpt lat="43.76331610733674" lon="11.463973605181648"><ele>99.0</ele><time>2026-04-29T23:13:03Z</time></trkpt><trkpt lat="43.763237212259654" lon="11.46414546351637"><ele>99.0</ele><time>2026-04-29T23:13:04Z</time></trkpt><trkpt lat="43.763141690340625" lon="11.464307550359372"><ele>99.0</ele><time>2026-04-29T23:13:05Z</time></trkpt><trkpt lat="43.76304062562863" lon="11.464465969367243"><ele>98.5</ele><time>2026-04-29T23:13:06Z</time></trkpt><trkpt lat="43.7629396941209" lon="11.464620662181686"><ele>98.0</ele><time>2026-04-29T23:13:07Z</time></trkpt><trkpt lat="43.762850299106475" lon="11.4647816524339"><ele>97.5</ele><time>2026-04-29T23:13:08Z</time></trkpt><trkpt lat="43.76275818213326" lon="11.464929553678143"><ele>97.0</ele><time>2026-04-29T23:13:09Z</time></trkpt><trkpt lat="43.762659167531524" lon="11.465051712085883"><ele>96.8</ele><time>2026-04-29T23:13:10Z</time></trkpt><trkpt lat="43.762599813598214" lon="11.4651782434451"><ele>96.6</ele><time>2026-04-29T23:13:11Z</time></trkpt><trkpt lat="43.76253235330552" lon="11.465279206255163"><ele>96.39999999999999</ele><time>2026-04-29T23:13:12Z</time></trkpt><trkpt lat="43.76246988842863" lon="11.465373368631527"><ele>96.19999999999999</ele><time>2026-04-29T23:13:13Z</time></trkpt><trkpt lat="43.76240374722835" lon="11.465476161629214"><ele>96.0</ele><time>2026-04-29T23:13:14Z</time></trkpt><trkpt lat="43.76231927755537" lon="11.465569895215946"><ele>96.4</ele><time>2026-04-29T23:13:15Z</time></trkpt><trkpt lat="43.76223605482818" lon="11.465671324954855"><ele>96.8</ele><time>2026-04-29T23:13:16Z</time></trkpt><trkpt lat="43.762149649924694" lon="11.465764141061877"><ele>97.2</ele><time>2026-04-29T23:13:17Z</time></trkpt><trkpt lat="43.762061174313416" lon="11.465855899268316"><ele>97.60000000000001</ele><time>2026-04-29T23:13:18Z</time></trkpt><trkpt lat="43.76197564323887" lon="11.465960119864766"><ele>98.0</ele><time>2026-04-29T23:13:19Z</time></trkpt><trkpt lat="43.76188240009883" lon="11.46605638897525"><ele>98.0</ele><time>2026-04-29T23:13:20Z</time></trkpt><trkpt lat="43.76178938234278" lon="11.466163408489848"><ele>98.0</ele><time>2026-04-29T23:13:21Z</time></trkpt><trkpt lat="43.76169476880874" lon="11.466264348379996"><ele>98.0</ele><time>2026-04-29T23:13:22Z</time></trkpt><trkpt lat="43.76159541565571" lon="11.466357040705645"><ele>98.0</ele><time>2026-04-29T23:13:23Z</time></trkpt><trkpt lat="43.76148036712239" lon="11.466402771956059"><ele>99.5</ele><time>2026-04-29T23:13:24Z</time></trkpt><trkpt lat="43.761361953225666" lon="11.466423546022039"><ele>101.0</ele><time>2026-04-29T23:13:25Z</time></trkpt><trkpt lat="43.76123133554812" lon="11.466443695430678"><ele>102.5</ele><time>2026-04-29T23:13:26Z</time></trkpt><trkpt lat="43.76109648141336" lon="11.466493751487103"><ele>104.0</ele><time>2026-04-29T23:13:27Z</time></trkpt><trkpt lat="43.76095931141759" lon="11.466516600958249"><ele>104.0</ele><time>2026-04-29T23:13:28Z</time></trkpt><trkpt lat="43.76081636727028" lon="11.466555510469082"><ele>104.0</ele><time>2026-04-29T23:13:29Z</time></trkpt><trkpt lat="43.760668717197305" lon="11.466571025152547"><ele>104.0</ele><time>2026-04-29T23:13:30Z</time></trkpt><trkpt lat="43.76052031766812" lon="11.466608403565667"><ele>104.0</ele><time>2026-04-29T23:13:31Z</time></trkpt><trkpt lat="43.760384522710154" lon="11.466643471643515"><ele>104.0</ele><time>2026-04-29T23:13:32Z</time></trkpt><trkpt lat="43.760247149194214" lon="11.466679274373183"><ele>104.0</ele><time>2026-04-29T23:13:33Z</time></trkpt><trkpt lat="43.760103058108314" lon="11.466719456381803"><ele>104.0</ele><time>2026-04-29T23:13:34Z</time></trkpt><trkpt lat="43.7599597967126" lon="11.466759624141499"><ele>104.0</ele><time>2026-04-29T23:13:35Z</time></trkpt><trkpt lat="43.759821281825054" lon="11.466798461045057"><ele>104.25</ele><time>2026-04-29T23:13:36Z</time></trkpt><trkpt lat="43.75967515046715" lon="11.466839347060478"><ele>104.5</ele><time>2026-04-29T23:13:37Z</time></trkpt><trkpt lat="43.75953683791616" lon="11.466877652008796"><ele>104.75</ele><time>2026-04-29T23:13:38Z</time></trkpt><trkpt lat="43.75939725363732" lon="11.466916309162764"><ele>105.0</ele><time>2026-04-29T23:13:39Z</time></trkpt><trkpt lat="43.75925785231048" lon="11.466953034523693"><ele>104.5</ele><time>2026-04-29T23:13:40Z</time></trkpt><trkpt lat="43.75912099594757" lon="11.466983638379647"><ele>104.0</ele><time>2026-04-29T23:13:41Z</time></trkpt><trkpt lat="43.758979121217244" lon="11.466997031264308"><ele>103.5</ele><time>2026-04-29T23:13:42Z</time></trkpt><trkpt lat="43.75884106564969" lon="11.46697046942538"><ele>103.0</ele><time>2026-04-29T23:13:43Z</time></trkpt><trkpt lat="43.75871726348036" lon="11.466962026327124"><ele>103.0</ele><time>2026-04-29T23:13:44Z</time></trkpt><trkpt lat="43.75861729559643" lon="11.466990007173012"><ele>103.0</ele><time>2026-04-29T23:13:45Z</time></trkpt><trkpt lat="43.75852521733964" lon="11.467030625864872"><ele>103.0</ele><time>2026-04-29T23:13:46Z</time></trkpt><trkpt lat="43.758449077517646" lon="11.467130853502505"><ele>103.0</ele><time>2026-04-29T23:13:47Z</time></trkpt><trkpt lat="43.75841164332882" lon="11.467273521230016"><ele>103.0</ele><time>2026-04-29T23:13:48Z</time></trkpt><trkpt lat="43.758421932842204" lon="11.467430858242011"><ele>104.75</ele><time>2026-04-29T23:13:49Z</time></trkpt><trkpt lat="43.758478326769904" lon="11.46757575007251"><ele>106.5</ele><time>2026-04-29T23:13:50Z</time></trkpt><trkpt lat="43.75854693754126" lon="11.467701315237953"><ele>108.25</ele><time>2026-04-29T23:13:51Z</time></trkpt><trkpt lat="43.75860498552596" lon="11.467836816969248"><ele>110.0</ele><time>2026-04-29T23:13:52Z</time></trkpt><trkpt lat="43.758637813311246" lon="11.46799398294057"><ele>114.75</ele><time>2026-04-29T23:13:53Z</time></trkpt><trkpt lat="43.758635618353594" lon="11.468161629407426"><ele>119.5</ele><time>2026-04-29T23:13:54Z</time></trkpt><trkpt lat="43.758613414288064" lon="11.468332466303915"><ele>124.25</ele><time>2026-04-29T23:13:55Z</time></trkpt><trkpt lat="43.75858331353712" lon="11.468511748434105"><ele>129.0</ele><time>2026-04-29T23:13:56Z</time></trkpt><trkpt lat="43.7585379500644" lon="11.468682094232946"><ele>128.5</ele><time>2026-04-29T23:13:57Z</time></trkpt><trkpt lat="43.75848248176548" lon="11.468845322095582"><ele>128.0</ele><time>2026-04-29T23:13:58Z</time></trkpt><trkpt lat="43.75841466820137" lon="11.46901035134414"><ele>127.5</ele><time>2026-04-29T23:13:59Z</time></trkpt><trkpt lat="43.75834272743239" lon="11.469180440366925"><ele>127.0</ele><time>2026-04-29T23:14:00Z</time></trkpt><trkpt lat="43.75826953513167" lon="11.469353488339097"><ele>127.0</ele><time>2026-04-29T23:14:01Z</time></trkpt><trkpt lat="43.75819682764516" lon="11.46952718182569"><ele>127.0</ele><time>2026-04-29T23:14:02Z</time></trkpt><trkpt lat="43.758127833065615" lon="11.469693528127975"><ele>127.0</ele><time>2026-04-29T23:14:03Z</time></trkpt><trkpt lat="43.75805599138709" lon="11.469852975730092"><ele>127.0</ele><time>2026-04-29T23:14:04Z</time></trkpt><trkpt lat="43.75797234379252" lon="11.470014004903964"><ele>128.25</ele><time>2026-04-29T23:14:05Z</time></trkpt><trkpt lat="43.757873362842865" lon="11.470155442774125"><ele>129.5</ele><time>2026-04-29T23:14:06Z</time></trkpt><trkpt lat="43.75776123713342" lon="11.470251755836838"><ele>130.75</ele><time>2026-04-29T23:14:07Z</time></trkpt><trkpt lat="43.75763478178911" lon="11.470268025722298"><ele>132.0</ele><time>2026-04-29T23:14:08Z</time></trkpt><trkpt lat="43.757499577084175" lon="11.470267355255782"><ele>132.0</ele><time>2026-04-29T23:14:09Z</time></trkpt><trkpt lat="43.757357243962474" lon="11.470270721484518"><ele>132.0</ele><time>2026-04-29T23:14:10Z</time></trkpt><trkpt lat="43.7572131520221" lon="11.470293116918167"><ele>132.0</ele><time>2026-04-29T23:14:11Z</time></trkpt><trkpt lat="43.75706208141371" lon="11.470276250248347"><ele>132.0</ele><time>2026-04-29T23:14:12Z</time></trkpt><trkpt lat="43.75691920476426" lon="11.470290579780047"><ele>133.0</ele><time>2026-04-29T23:14:13Z</time></trkpt><trkpt lat="43.756770383875036" lon="11.470341431964773"><ele>134.0</ele><time>2026-04-29T23:14:14Z</time></trkpt><trkpt lat="43.75662496329054" lon="11.470396193317272"><ele>135.0</ele><time>2026-04-29T23:14:15Z</time></trkpt><trkpt lat="43.75647560728229" lon="11.470474518232264"><ele>136.33333333333334</ele><time>2026-04-29T23:14:16Z</time></trkpt><trkpt lat="43.75631196806149" lon="11.470528346272985"><ele>137.66666666666669</ele><time>2026-04-29T23:14:17Z</time></trkpt><trkpt lat="43.75615874230045" lon="11.470619249225548"><ele>139.0</ele><time>2026-04-29T23:14:18Z</time></trkpt><trkpt lat="43.75601247698079" lon="11.470696265642255"><ele>139.0</ele><time>2026-04-29T23:14:19Z</time></trkpt><trkpt lat="43.75587849555827" lon="11.470811871377581"><ele>139.0</ele><time>2026-04-29T23:14:19.999Z</time></trkpt><trkpt lat="43.75576728288164" lon="11.47094737334546"><ele>139.0</ele><time>2026-04-29T23:14:20.999Z</time></trkpt><trkpt lat="43.75566086848934" lon="11.471075292560839"><ele>139.0</ele><time>2026-04-29T23:14:21.999Z</time></trkpt><trkpt lat="43.75556876933486" lon="11.471195288550991"><ele>139.0</ele><time>2026-04-29T23:14:22.999Z</time></trkpt><trkpt lat="43.75546600952843" lon="11.471271127067157"><ele>139.0</ele><time>2026-04-29T23:14:23.999Z</time></trkpt><trkpt lat="43.75535021617373" lon="11.471259078595422"><ele>139.0</ele><time>2026-04-29T23:14:24.999Z</time></trkpt><trkpt lat="43.755231634275695" lon="11.471203304644652"><ele>139.0</ele><time>2026-04-29T23:14:25.999Z</time></trkpt><trkpt lat="43.755098848585185" lon="11.471161043284978"><ele>139.25</ele><time>2026-04-29T23:14:26.999Z</time></trkpt><trkpt lat="43.75496082485959" lon="11.471130477553825"><ele>139.5</ele><time>2026-04-29T23:14:27.999Z</time></trkpt><trkpt lat="43.754822050354974" lon="11.471086081207288"><ele>139.75</ele><time>2026-04-29T23:14:28.999Z</time></trkpt><trkpt lat="43.75467597275377" lon="11.471052293121573"><ele>140.0</ele><time>2026-04-29T23:14:29.999Z</time></trkpt><trkpt lat="43.75452919465784" lon="11.471000718553594"><ele>140.0</ele><time>2026-04-29T23:14:30.999Z</time></trkpt><trkpt lat="43.754388439219646" lon="11.47092709271788"><ele>140.0</ele><time>2026-04-29T23:14:31.999Z</time></trkpt><trkpt lat="43.754254167236915" lon="11.470831956482394"><ele>140.0</ele><time>2026-04-29T23:14:32.999Z</time></trkpt><trkpt lat="43.75412334811904" lon="11.470734945026853"><ele>141.5</ele><time>2026-04-29T23:14:33.999Z</time></trkpt><trkpt lat="43.75398896177844" lon="11.470661603578936"><ele>143.0</ele><time>2026-04-29T23:14:34.999Z</time></trkpt><trkpt lat="43.75384002262455" lon="11.470634164855909"><ele>144.5</ele><time>2026-04-29T23:14:35.999Z</time></trkpt><trkpt lat="43.75368765359896" lon="11.470642876325945"><ele>146.0</ele><time>2026-04-29T23:14:36.999Z</time></trkpt><trkpt lat="43.75353901317032" lon="11.470661717340954"><ele>147.33333333333331</ele><time>2026-04-29T23:14:37.999Z</time></trkpt><trkpt lat="43.75338771036003" lon="11.470632242588673"><ele>148.66666666666666</ele><time>2026-04-29T23:14:38.999Z</time></trkpt><trkpt lat="43.75323628950421" lon="11.470606196597513"><ele>150.0</ele><time>2026-04-29T23:14:39.999Z</time></trkpt><trkpt lat="43.75308706242553" lon="11.470576670575342"><ele>150.0</ele><time>2026-04-29T23:14:40.999Z</time></trkpt><trkpt lat="43.752936441108716" lon="11.470545937530868"><ele>150.0</ele><time>2026-04-29T23:14:41.999Z</time></trkpt><trkpt lat="43.75278481440384" lon="11.470537060693447"><ele>150.0</ele><time>2026-04-29T23:14:42.999Z</time></trkpt><trkpt lat="43.75264279590618" lon="11.470487784533319"><ele>151.5</ele><time>2026-04-29T23:14:44Z</time></trkpt><trkpt lat="43.75250733786818" lon="11.47046494493537"><ele>153.0</ele><time>2026-04-29T23:14:45Z</time></trkpt><trkpt lat="43.752376087466075" lon="11.47046898635828"><ele>154.5</ele><time>2026-04-29T23:14:46Z</time></trkpt><trkpt lat="43.75224615192709" lon="11.470477518145723"><ele>156.0</ele><time>2026-04-29T23:14:47Z</time></trkpt><trkpt lat="43.75210749616029" lon="11.47048155602899"><ele>156.0</ele><time>2026-04-29T23:14:48Z</time></trkpt><trkpt lat="43.75197005075081" lon="11.470506466466881"><ele>156.0</ele><time>2026-04-29T23:14:49Z</time></trkpt><trkpt lat="43.75183429929425" lon="11.470558486134243"><ele>156.0</ele><time>2026-04-29T23:14:50Z</time></trkpt><trkpt lat="43.751713493286" lon="11.470631030817005"><ele>156.0</ele><time>2026-04-29T23:14:51Z</time></trkpt><trkpt lat="43.75161967340547" lon="11.470785372910399"><ele>155.5</ele><time>2026-04-29T23:14:52Z</time></trkpt><trkpt lat="43.751534458869585" lon="11.470930425095789"><ele>155.0</ele><time>2026-04-29T23:14:53Z</time></trkpt><trkpt lat="43.75144647599072" lon="11.471067991116167"><ele>154.5</ele><time>2026-04-29T23:14:54Z</time></trkpt><trkpt lat="43.75135403022065" lon="11.471200150082446"><ele>154.0</ele><time>2026-04-29T23:14:55Z</time></trkpt><trkpt lat="43.75125617873265" lon="11.471332527829805"><ele>154.5</ele><time>2026-04-29T23:14:56Z</time></trkpt><trkpt lat="43.75116510048656" lon="11.471466998689701"><ele>155.0</ele><time>2026-04-29T23:14:57Z</time></trkpt><trkpt lat="43.75106483971843" lon="11.471576554042214"><ele>155.5</ele><time>2026-04-29T23:14:58Z</time></trkpt><trkpt lat="43.750989502992084" lon="11.47169286806735"><ele>156.0</ele><time>2026-04-29T23:14:59Z</time></trkpt><trkpt lat="43.75089554179426" lon="11.471751437089583"><ele>156.0</ele><time>2026-04-29T23:15:00Z</time></trkpt><trkpt lat="43.75079185499613" lon="11.47176089158543"><ele>156.0</ele><time>2026-04-29T23:15:01Z</time></trkpt><trkpt lat="43.750683345708644" lon="11.471725371107157"><ele>156.0</ele><time>2026-04-29T23:15:02Z</time></trkpt><trkpt lat="43.75057209677479" lon="11.471647819700513"><ele>156.0</ele><time>2026-04-29T23:15:03Z</time></trkpt><trkpt lat="43.75044814174506" lon="11.471628302414734"><ele>156.0</ele><time>2026-04-29T23:15:04Z</time></trkpt><trkpt lat="43.75031976383836" lon="11.471577195294191"><ele>156.0</ele><time>2026-04-29T23:15:05Z</time></trkpt><trkpt lat="43.750181233116294" lon="11.471594446300251"><ele>156.0</ele><time>2026-04-29T23:15:06Z</time></trkpt><trkpt lat="43.75004881333883" lon="11.471599214272851"><ele>156.0</ele><time>2026-04-29T23:15:07Z</time></trkpt><trkpt lat="43.749913354226344" lon="11.47163158328624"><ele>154.75</ele><time>2026-04-29T23:15:08Z</time></trkpt><trkpt lat="43.74977321085808" lon="11.471671761597202"><ele>153.5</ele><time>2026-04-29T23:15:09Z</time></trkpt><trkpt lat="43.74963312800889" lon="11.47171876347082"><ele>152.25</ele><time>2026-04-29T23:15:10Z</time></trkpt><trkpt lat="43.74948259284874" lon="11.471762777035373"><ele>151.0</ele><time>2026-04-29T23:15:11Z</time></trkpt><trkpt lat="43.749338569021106" lon="11.471813722596773"><ele>149.33333333333334</ele><time>2026-04-29T23:15:12Z</time></trkpt><trkpt lat="43.74919248884708" lon="11.471874309685147"><ele>147.66666666666666</ele><time>2026-04-29T23:15:13Z</time></trkpt><trkpt lat="43.74904489529865" lon="11.471940338803748"><ele>146.0</ele><time>2026-04-29T23:15:14Z</time></trkpt><trkpt lat="43.74890117961407" lon="11.472017418584416"><ele>146.0</ele><time>2026-04-29T23:15:15Z</time></trkpt><trkpt lat="43.74875413964829" lon="11.472096142146635"><ele>146.0</ele><time>2026-04-29T23:15:16Z</time></trkpt><trkpt lat="43.7485940333593" lon="11.472140299870652"><ele>146.0</ele><time>2026-04-29T23:15:17Z</time></trkpt><trkpt lat="43.74844856925046" lon="11.472175688100737"><ele>147.0</ele><time>2026-04-29T23:15:18Z</time></trkpt><trkpt lat="43.748308982978294" lon="11.4721972651252"><ele>148.0</ele><time>2026-04-29T23:15:19Z</time></trkpt><trkpt lat="43.74817149964466" lon="11.472154750270436"><ele>149.0</ele><time>2026-04-29T23:15:20Z</time></trkpt><trkpt lat="43.74803749134265" lon="11.472085129024743"><ele>150.0</ele><time>2026-04-29T23:15:21Z</time></trkpt><trkpt lat="43.74792591592716" lon="11.471964906197938"><ele>148.0</ele><time>2026-04-29T23:15:22Z</time></trkpt><trkpt lat="43.747798417246315" lon="11.471860419685155"><ele>146.0</ele><time>2026-04-29T23:15:23Z</time></trkpt><trkpt lat="43.74768207526296" lon="11.471729345873506"><ele>144.0</ele><time>2026-04-29T23:15:24Z</time></trkpt><trkpt lat="43.747550590650725" lon="11.471621434017358"><ele>144.0</ele><time>2026-04-29T23:15:25Z</time></trkpt><trkpt lat="43.74740414500483" lon="11.471550673246977"><ele>144.0</ele><time>2026-04-29T23:15:26Z</time></trkpt><trkpt lat="43.747249123504936" lon="11.471485757337932"><ele>144.0</ele><time>2026-04-29T23:15:27Z</time></trkpt><trkpt lat="43.7470907118936" lon="11.47141780595638"><ele>144.0</ele><time>2026-04-29T23:15:28Z</time></trkpt><trkpt lat="43.7469402869341" lon="11.471351022974329"><ele>144.0</ele><time>2026-04-29T23:15:29Z</time></trkpt><trkpt lat="43.746773207242185" lon="11.47128876673723"><ele>144.0</ele><time>2026-04-29T23:15:30Z</time></trkpt><trkpt lat="43.74661426559311" lon="11.471229288844924"><ele>141.0</ele><time>2026-04-29T23:15:31Z</time></trkpt><trkpt lat="43.74645433043037" lon="11.47117183738559"><ele>138.0</ele><time>2026-04-29T23:15:32Z</time></trkpt><trkpt lat="43.74628878685203" lon="11.471112338761507"><ele>135.0</ele><time>2026-04-29T23:15:33Z</time></trkpt><trkpt lat="43.74613263689106" lon="11.47104233177946"><ele>135.33333333333334</ele><time>2026-04-29T23:15:34Z</time></trkpt><trkpt lat="43.745977658350895" lon="11.470954536925749"><ele>135.66666666666669</ele><time>2026-04-29T23:15:35Z</time></trkpt><trkpt lat="43.74581581646216" lon="11.470859352108501"><ele>136.0</ele><time>2026-04-29T23:15:36Z</time></trkpt><trkpt lat="43.74565085097672" lon="11.470767569633711"><ele>136.0</ele><time>2026-04-29T23:15:37Z</time></trkpt><trkpt lat="43.74549203095408" lon="11.47068466504151"><ele>136.0</ele><time>2026-04-29T23:15:38Z</time></trkpt><trkpt lat="43.74535120392062" lon="11.47060324593882"><ele>136.0</ele><time>2026-04-29T23:15:39Z</time></trkpt><trkpt lat="43.74519737388773" lon="11.470600663690751"><ele>134.66666666666669</ele><time>2026-04-29T23:15:40Z</time></trkpt><trkpt lat="43.74504626146336" lon="11.47060752199564"><ele>133.33333333333334</ele><time>2026-04-29T23:15:41Z</time></trkpt><trkpt lat="43.744881712070985" lon="11.47058868347025"><ele>132.0</ele><time>2026-04-29T23:15:42Z</time></trkpt><trkpt lat="43.74472111619528" lon="11.47056219851853"><ele>132.0</ele><time>2026-04-29T23:15:43Z</time></trkpt><trkpt lat="43.744545289190164" lon="11.470510515490794"><ele>132.0</ele><time>2026-04-29T23:15:44Z</time></trkpt><trkpt lat="43.744373823649866" lon="11.470457095252566"><ele>132.0</ele><time>2026-04-29T23:15:45Z</time></trkpt><trkpt lat="43.744198547501085" lon="11.470419253798363"><ele>127.0</ele><time>2026-04-29T23:15:46Z</time></trkpt><trkpt lat="43.7440362655567" lon="11.470355670777655"><ele>122.0</ele><time>2026-04-29T23:15:47Z</time></trkpt><trkpt lat="43.74387808638348" lon="11.47029644681912"><ele>117.0</ele><time>2026-04-29T23:15:48Z</time></trkpt><trkpt lat="43.74374470452444" lon="11.470250370861121"><ele>117.0</ele><time>2026-04-29T23:15:49Z</time></trkpt><trkpt lat="43.74360756082995" lon="11.470248340396664"><ele>117.0</ele><time>2026-04-29T23:15:50Z</time></trkpt><trkpt lat="43.74347027399146" lon="11.470297519760628"><ele>117.0</ele><time>2026-04-29T23:15:51Z</time></trkpt><trkpt lat="43.743333572174386" lon="11.470390763777774"><ele>117.0</ele><time>2026-04-29T23:15:52Z</time></trkpt><trkpt lat="43.74319256788758" lon="11.470473169115326"><ele>116.75</ele><time>2026-04-29T23:15:53Z</time></trkpt><trkpt lat="43.74306014396253" lon="11.470491299318159"><ele>116.5</ele><time>2026-04-29T23:15:54Z</time></trkpt><trkpt lat="43.74294269829847" lon="11.470398670434484"><ele>116.25</ele><time>2026-04-29T23:15:55Z</time></trkpt><trkpt lat="43.742815049123834" lon="11.47033708929848"><ele>116.0</ele><time>2026-04-29T23:15:56Z</time></trkpt><trkpt lat="43.74268296200228" lon="11.47030758204993"><ele>115.5</ele><time>2026-04-29T23:15:57Z</time></trkpt><trkpt lat="43.74254481215734" lon="11.470317070617604"><ele>115.0</ele><time>2026-04-29T23:15:58Z</time></trkpt><trkpt lat="43.74239655255768" lon="11.470358790136103"><ele>114.5</ele><time>2026-04-29T23:15:59Z</time></trkpt><trkpt lat="43.7422380463229" lon="11.470372138390022"><ele>114.0</ele><time>2026-04-29T23:16:00Z</time></trkpt><trkpt lat="43.74208547104408" lon="11.470419652464882"><ele>114.0</ele><time>2026-04-29T23:16:01Z</time></trkpt><trkpt lat="43.74192581820499" lon="11.470435781724559"><ele>114.0</ele><time>2026-04-29T23:16:02Z</time></trkpt><trkpt lat="43.74177246383682" lon="11.47047720393795"><ele>114.0</ele><time>2026-04-29T23:16:03Z</time></trkpt><trkpt lat="43.741629689400554" lon="11.47050979702366"><ele>113.25</ele><time>2026-04-29T23:16:04Z</time></trkpt><trkpt lat="43.741493668995176" lon="11.470509714039405"><ele>112.5</ele><time>2026-04-29T23:16:05Z</time></trkpt><trkpt lat="43.74135507861376" lon="11.470473723060909"><ele>111.75</ele><time>2026-04-29T23:16:06Z</time></trkpt><trkpt lat="43.74122324191527" lon="11.470390952610538"><ele>111.0</ele><time>2026-04-29T23:16:07Z</time></trkpt><trkpt lat="43.74108703563633" lon="11.470341923610588"><ele>110.0</ele><time>2026-04-29T23:16:08Z</time></trkpt><trkpt lat="43.74096248968407" lon="11.470280346728607"><ele>109.0</ele><time>2026-04-29T23:16:09Z</time></trkpt><trkpt lat="43.74084258201875" lon="11.470246173817898"><ele>108.0</ele><time>2026-04-29T23:16:10Z</time></trkpt><trkpt lat="43.740734736581096" lon="11.470300866705816"><ele>107.0</ele><time>2026-04-29T23:16:11Z</time></trkpt><trkpt lat="43.740643457187915" lon="11.470390282238835"><ele>109.5</ele><time>2026-04-29T23:16:12Z</time></trkpt><trkpt lat="43.7405670443667" lon="11.470518337118053"><ele>112.0</ele><time>2026-04-29T23:16:13Z</time></trkpt><trkpt lat="43.74047731653735" lon="11.470639774696362"><ele>114.5</ele><time>2026-04-29T23:16:14Z</time></trkpt><trkpt lat="43.74038717338176" lon="11.47074140990155"><ele>117.0</ele><time>2026-04-29T23:16:15Z</time></trkpt><trkpt lat="43.740259814698504" lon="11.470790118443265"><ele>114.5</ele><time>2026-04-29T23:16:16Z</time></trkpt><trkpt lat="43.74012560016839" lon="11.470844041156345"><ele>112.0</ele><time>2026-04-29T23:16:17Z</time></trkpt><trkpt lat="43.73999161553908" lon="11.470912955156551"><ele>109.5</ele><time>2026-04-29T23:16:18Z</time></trkpt><trkpt lat="43.73985732730788" lon="11.470966995254258"><ele>107.0</ele><time>2026-04-29T23:16:19Z</time></trkpt><trkpt lat="43.739715704695925" lon="11.471014057726936"><ele>107.0</ele><time>2026-04-29T23:16:20Z</time></trkpt><trkpt lat="43.73957342784479" lon="11.471012384473232"><ele>107.0</ele><time>2026-04-29T23:16:21Z</time></trkpt><trkpt lat="43.73944676231027" lon="11.471000576615264"><ele>107.0</ele><time>2026-04-29T23:16:22Z</time></trkpt><trkpt lat="43.73932520662592" lon="11.470970766764644"><ele>107.0</ele><time>2026-04-29T23:16:23Z</time></trkpt><trkpt lat="43.7391981495689" lon="11.470906023617694"><ele>107.0</ele><time>2026-04-29T23:16:23.999Z</time></trkpt><trkpt lat="43.73906992419987" lon="11.470830889618929"><ele>107.0</ele><time>2026-04-29T23:16:24.999Z</time></trkpt><trkpt lat="43.738938986627275" lon="11.470751288522546"><ele>107.0</ele><time>2026-04-29T23:16:25.999Z</time></trkpt><trkpt lat="43.73880905725979" lon="11.470673910744848"><ele>107.0</ele><time>2026-04-29T23:16:26.999Z</time></trkpt><trkpt lat="43.738695086358696" lon="11.470545245599626"><ele>107.25</ele><time>2026-04-29T23:16:27.999Z</time></trkpt><trkpt lat="43.73860075196777" lon="11.470406050957417"><ele>107.5</ele><time>2026-04-29T23:16:28.999Z</time></trkpt><trkpt lat="43.73854808812356" lon="11.470253864841967"><ele>107.75</ele><time>2026-04-29T23:16:29.999Z</time></trkpt><trkpt lat="43.73855533148389" lon="11.470060990369694"><ele>108.0</ele><time>2026-04-29T23:16:30.999Z</time></trkpt><trkpt lat="43.73854587888262" lon="11.46985623376605"><ele>108.0</ele><time>2026-04-29T23:16:31.999Z</time></trkpt><trkpt lat="43.73855927597486" lon="11.469644200610356"><ele>108.0</ele><time>2026-04-29T23:16:32.999Z</time></trkpt><trkpt lat="43.73856640920177" lon="11.469433132306282"><ele>108.0</ele><time>2026-04-29T23:16:33.999Z</time></trkpt><trkpt lat="43.738551567263755" lon="11.469243050309764"><ele>108.0</ele><time>2026-04-29T23:16:34.999Z</time></trkpt><trkpt lat="43.73849968434513" lon="11.469071779332443"><ele>107.25</ele><time>2026-04-29T23:16:35.999Z</time></trkpt><trkpt lat="43.73839564632551" lon="11.468946405841212"><ele>106.5</ele><time>2026-04-29T23:16:36.999Z</time></trkpt><trkpt lat="43.738267656282936" lon="11.468853267524663"><ele>105.75</ele><time>2026-04-29T23:16:37.999Z</time></trkpt><trkpt lat="43.738115077471484" lon="11.46879698903015"><ele>105.0</ele><time>2026-04-29T23:16:38.999Z</time></trkpt><trkpt lat="43.73796153524804" lon="11.468742615225398"><ele>105.33333333333334</ele><time>2026-04-29T23:16:39.999Z</time></trkpt><trkpt lat="43.7378059018459" lon="11.468692038907697"><ele>105.66666666666667</ele><time>2026-04-29T23:16:40.999Z</time></trkpt><trkpt lat="43.737655417873" lon="11.468628521863062"><ele>106.0</ele><time>2026-04-29T23:16:41.999Z</time></trkpt><trkpt lat="43.73750546881116" lon="11.468552351844895"><ele>106.0</ele><time>2026-04-29T23:16:42.999Z</time></trkpt><trkpt lat="43.73735945044826" lon="11.468472018322753"><ele>106.0</ele><time>2026-04-29T23:16:43.999Z</time></trkpt><trkpt lat="43.73721108903146" lon="11.46838424209754"><ele>106.0</ele><time>2026-04-29T23:16:44.999Z</time></trkpt><trkpt lat="43.737075666867305" lon="11.468286287664135"><ele>106.0</ele><time>2026-04-29T23:16:45.999Z</time></trkpt><trkpt lat="43.73697706905347" lon="11.468152738357826"><ele>106.0</ele><time>2026-04-29T23:16:46.999Z</time></trkpt><trkpt lat="43.7369367346655" lon="11.467968890378842"><ele>106.0</ele><time>2026-04-29T23:16:47.999Z</time></trkpt><trkpt lat="43.736869233685205" lon="11.467789490932988"><ele>106.0</ele><time>2026-04-29T23:16:49Z</time></trkpt><trkpt lat="43.73677878913881" lon="11.467636286953987"><ele>106.33333333333334</ele><time>2026-04-29T23:16:50Z</time></trkpt><trkpt lat="43.73667093294424" lon="11.467491474797459"><ele>106.66666666666666</ele><time>2026-04-29T23:16:51Z</time></trkpt><trkpt lat="43.73654026429155" lon="11.467373869160266"><ele>107.0</ele><time>2026-04-29T23:16:52Z</time></trkpt><trkpt lat="43.73641537115478" lon="11.467260177098474"><ele>107.0</ele><time>2026-04-29T23:16:53Z</time></trkpt><trkpt lat="43.73630621659978" lon="11.46716277585029"><ele>106.99999999999999</ele><time>2026-04-29T23:16:54Z</time></trkpt><trkpt lat="43.73621929002928" lon="11.467066029672962"><ele>106.99999999999999</ele><time>2026-04-29T23:16:55Z</time></trkpt><trkpt lat="43.736154391312965" lon="11.466965877672965"><ele>107.0</ele><time>2026-04-29T23:16:56Z</time></trkpt><trkpt lat="43.736094153869836" lon="11.466901951088419"><ele>107.0</ele><time>2026-04-29T23:16:57Z</time></trkpt><trkpt lat="43.736010771005006" lon="11.466890119178483"><ele>106.5</ele><time>2026-04-29T23:16:58Z</time></trkpt><trkpt lat="43.73591027599867" lon="11.466922148477853"><ele>106.0</ele><time>2026-04-29T23:16:59Z</time></trkpt><trkpt lat="43.73579959608166" lon="11.466939046809692"><ele>105.5</ele><time>2026-04-29T23:17:00Z</time></trkpt><trkpt lat="43.735682285177326" lon="11.46690288543074"><ele>105.0</ele><time>2026-04-29T23:17:01Z</time></trkpt><trkpt lat="43.735562092270214" lon="11.466821684653334"><ele>105.0</ele><time>2026-04-29T23:17:02Z</time></trkpt><trkpt lat="43.735444909254866" lon="11.466730071951902"><ele>105.0</ele><time>2026-04-29T23:17:03Z</time></trkpt><trkpt lat="43.73532378310056" lon="11.466618394334283"><ele>105.0</ele><time>2026-04-29T23:17:04Z</time></trkpt><trkpt lat="43.735198223116384" lon="11.466496502889651"><ele>105.0</ele><time>2026-04-29T23:17:05Z</time></trkpt><trkpt lat="43.73507093671771" lon="11.466363812492341"><ele>104.66666666666666</ele><time>2026-04-29T23:17:06Z</time></trkpt><trkpt lat="43.73494781101317" lon="11.466256517585148"><ele>104.33333333333333</ele><time>2026-04-29T23:17:07Z</time></trkpt><trkpt lat="43.73480174041193" lon="11.466171347899785"><ele>104.0</ele><time>2026-04-29T23:17:08Z</time></trkpt><trkpt lat="43.73465193735148" lon="11.46610636742675"><ele>104.0</ele><time>2026-04-29T23:17:09Z</time></trkpt><trkpt lat="43.73449628250361" lon="11.466039864680143"><ele>104.0</ele><time>2026-04-29T23:17:10Z</time></trkpt><trkpt lat="43.73433701869111" lon="11.465973245095585"><ele>104.0</ele><time>2026-04-29T23:17:11Z</time></trkpt><trkpt lat="43.73418539818449" lon="11.465902922529853"><ele>105.0</ele><time>2026-04-29T23:17:12Z</time></trkpt><trkpt lat="43.73402768246631" lon="11.465837106028687"><ele>106.0</ele><time>2026-04-29T23:17:13Z</time></trkpt><trkpt lat="43.733876695466186" lon="11.465774895004067"><ele>107.0</ele><time>2026-04-29T23:17:14Z</time></trkpt><trkpt lat="43.733720715584695" lon="11.465706828584041"><ele>107.0</ele><time>2026-04-29T23:17:15Z</time></trkpt><trkpt lat="43.733569058528644" lon="11.465648824510202"><ele>107.0</ele><time>2026-04-29T23:17:16Z</time></trkpt><trkpt lat="43.733411959967874" lon="11.46561364548773"><ele>107.0</ele><time>2026-04-29T23:17:17Z</time></trkpt><trkpt lat="43.73325180710406" lon="11.465610926784073"><ele>107.33333333333333</ele><time>2026-04-29T23:17:18Z</time></trkpt><trkpt lat="43.733096380377646" lon="11.465639563385079"><ele>107.66666666666666</ele><time>2026-04-29T23:17:19Z</time></trkpt><trkpt lat="43.732941819628344" lon="11.465693599102345"><ele>108.0</ele><time>2026-04-29T23:17:20Z</time></trkpt><trkpt lat="43.73278849601719" lon="11.465787594437625"><ele>106.66666666666666</ele><time>2026-04-29T23:17:21Z</time></trkpt><trkpt lat="43.732645845200146" lon="11.465896294780485"><ele>105.33333333333333</ele><time>2026-04-29T23:17:22Z</time></trkpt><trkpt lat="43.73251066063714" lon="11.466023378539154"><ele>104.0</ele><time>2026-04-29T23:17:23Z</time></trkpt><trkpt lat="43.73237803924959" lon="11.466167311216921"><ele>108.66666666666666</ele><time>2026-04-29T23:17:24Z</time></trkpt><trkpt lat="43.732245270191505" lon="11.466310828803344"><ele>113.33333333333334</ele><time>2026-04-29T23:17:25Z</time></trkpt><trkpt lat="43.73210954221456" lon="11.466441993838423"><ele>118.0</ele><time>2026-04-29T23:17:26Z</time></trkpt><trkpt lat="43.73197172719707" lon="11.466575309759602"><ele>114.0</ele><time>2026-04-29T23:17:27Z</time></trkpt><trkpt lat="43.73182919611854" lon="11.46672353208892"><ele>110.0</ele><time>2026-04-29T23:17:28Z</time></trkpt><trkpt lat="43.73168166988531" lon="11.466870336265714"><ele>106.0</ele><time>2026-04-29T23:17:29Z</time></trkpt><trkpt lat="43.731518173200364" lon="11.466979611410766"><ele>106.0</ele><time>2026-04-29T23:17:30Z</time></trkpt><trkpt lat="43.73135635604944" lon="11.46707518546069"><ele>106.0</ele><time>2026-04-29T23:17:31Z</time></trkpt><trkpt lat="43.7311827408519" lon="11.46716630585548"><ele>106.0</ele><time>2026-04-29T23:17:32Z</time></trkpt><trkpt lat="43.731007548774016" lon="11.46725825377948"><ele>108.0</ele><time>2026-04-29T23:17:33Z</time></trkpt><trkpt lat="43.730827448911676" lon="11.467353154069114"><ele>110.0</ele><time>2026-04-29T23:17:34Z</time></trkpt><trkpt lat="43.7306507284366" lon="11.467448046142849"><ele>112.0</ele><time>2026-04-29T23:17:35Z</time></trkpt><trkpt lat="43.73046923020892" lon="11.467545503562922"><ele>112.0</ele><time>2026-04-29T23:17:36Z</time></trkpt><trkpt lat="43.73029193482841" lon="11.467640704276674"><ele>112.0</ele><time>2026-04-29T23:17:37Z</time></trkpt><trkpt lat="43.730114171469545" lon="11.46773126382343"><ele>112.0</ele><time>2026-04-29T23:17:38Z</time></trkpt><trkpt lat="43.729938784694795" lon="11.46780846508651"><ele>111.0</ele><time>2026-04-29T23:17:39Z</time></trkpt><trkpt lat="43.72976400304396" lon="11.467859828806649"><ele>110.0</ele><time>2026-04-29T23:17:40Z</time></trkpt><trkpt lat="43.7295779036273" lon="11.467904348149949"><ele>109.0</ele><time>2026-04-29T23:17:41Z</time></trkpt><trkpt lat="43.72939182199846" lon="11.46794787133578"><ele>109.0</ele><time>2026-04-29T23:17:42Z</time></trkpt><trkpt lat="43.729207590570304" lon="11.46799404822514"><ele>109.0</ele><time>2026-04-29T23:17:43Z</time></trkpt><trkpt lat="43.72902363348904" lon="11.468040156321925"><ele>109.0</ele><time>2026-04-29T23:17:44Z</time></trkpt><trkpt lat="43.72883838854716" lon="11.468085906480203"><ele>109.0</ele><time>2026-04-29T23:17:45Z</time></trkpt><trkpt lat="43.72865381740751" lon="11.468130378429416"><ele>109.0</ele><time>2026-04-29T23:17:46Z</time></trkpt><trkpt lat="43.72847083018449" lon="11.46817409430157"><ele>109.0</ele><time>2026-04-29T23:17:47Z</time></trkpt><trkpt lat="43.72828742522798" lon="11.468206942310221"><ele>108.66666666666667</ele><time>2026-04-29T23:17:48Z</time></trkpt><trkpt lat="43.72809901035712" lon="11.46822487967474"><ele>108.33333333333334</ele><time>2026-04-29T23:17:49Z</time></trkpt><trkpt lat="43.727907331012695" lon="11.468236977247251"><ele>108.0</ele><time>2026-04-29T23:17:50Z</time></trkpt><trkpt lat="43.72771581156917" lon="11.468248854064726"><ele>111.0</ele><time>2026-04-29T23:17:51Z</time></trkpt><trkpt lat="43.72752337930491" lon="11.468282128754948"><ele>114.0</ele><time>2026-04-29T23:17:52Z</time></trkpt><trkpt lat="43.72732642701309" lon="11.468273001263947"><ele>117.0</ele><time>2026-04-29T23:17:53Z</time></trkpt><trkpt lat="43.72713575656618" lon="11.468281228803177"><ele>117.0</ele><time>2026-04-29T23:17:54Z</time></trkpt><trkpt lat="43.726963111889" lon="11.468284931729643"><ele>117.0</ele><time>2026-04-29T23:17:55Z</time></trkpt><trkpt lat="43.72680069587357" lon="11.468199187522389"><ele>117.0</ele><time>2026-04-29T23:17:56Z</time></trkpt><trkpt lat="43.72663741955671" lon="11.468078067457364"><ele>118.33333333333334</ele><time>2026-04-29T23:17:57Z</time></trkpt><trkpt lat="43.72647548274382" lon="11.46795587209049"><ele>119.66666666666667</ele><time>2026-04-29T23:17:58Z</time></trkpt><trkpt lat="43.72631259657212" lon="11.467834183145941"><ele>121.0</ele><time>2026-04-29T23:17:59Z</time></trkpt><trkpt lat="43.72613586284077" lon="11.46772861989588"><ele>117.0</ele><time>2026-04-29T23:18:00Z</time></trkpt><trkpt lat="43.725975974949435" lon="11.467586509232083"><ele>113.0</ele><time>2026-04-29T23:18:01Z</time></trkpt><trkpt lat="43.72580972550147" lon="11.467457379188915"><ele>109.0</ele><time>2026-04-29T23:18:02Z</time></trkpt><trkpt lat="43.7256491163993" lon="11.467311609249641"><ele>109.0</ele><time>2026-04-29T23:18:03Z</time></trkpt><trkpt lat="43.72548895553212" lon="11.46715256547063"><ele>109.0</ele><time>2026-04-29T23:18:04Z</time></trkpt><trkpt lat="43.72533134036638" lon="11.466992416207379"><ele>109.0</ele><time>2026-04-29T23:18:05Z</time></trkpt><trkpt lat="43.72517693593069" lon="11.466820935236237"><ele>109.33333333333334</ele><time>2026-04-29T23:18:06Z</time></trkpt><trkpt lat="43.725034545138456" lon="11.466635427915701"><ele>109.66666666666666</ele><time>2026-04-29T23:18:07Z</time></trkpt><trkpt lat="43.72490488016461" lon="11.466439514813533"><ele>110.0</ele><time>2026-04-29T23:18:08Z</time></trkpt><trkpt lat="43.72479087181669" lon="11.466254503313625"><ele>108.25</ele><time>2026-04-29T23:18:09Z</time></trkpt><trkpt lat="43.72469224891093" lon="11.466084147084866"><ele>106.5</ele><time>2026-04-29T23:18:10Z</time></trkpt><trkpt lat="43.724638556026925" lon="11.465921357459884"><ele>104.75</ele><time>2026-04-29T23:18:11Z</time></trkpt><trkpt lat="43.724595652139925" lon="11.46574900519927"><ele>103.0</ele><time>2026-04-29T23:18:12Z</time></trkpt><trkpt lat="43.72461112159343" lon="11.465543160718576"><ele>103.0</ele><time>2026-04-29T23:18:13Z</time></trkpt><trkpt lat="43.724617062580684" lon="11.46532430833604"><ele>103.0</ele><time>2026-04-29T23:18:14Z</time></trkpt><trkpt lat="43.72461691919822" lon="11.46510338559066"><ele>103.0</ele><time>2026-04-29T23:18:15Z</time></trkpt><trkpt lat="43.72463936445158" lon="11.464873402167573"><ele>103.0</ele><time>2026-04-29T23:18:15.999Z</time></trkpt><trkpt lat="43.72467903857006" lon="11.464658257926553"><ele>103.0</ele><time>2026-04-29T23:18:16.999Z</time></trkpt><trkpt lat="43.72473544372542" lon="11.464451347405706"><ele>103.0</ele><time>2026-04-29T23:18:17.999Z</time></trkpt><trkpt lat="43.724785755783856" lon="11.464263511742367"><ele>104.25</ele><time>2026-04-29T23:18:18.999Z</time></trkpt><trkpt lat="43.724807404883975" lon="11.46408479161816"><ele>105.5</ele><time>2026-04-29T23:18:19.999Z</time></trkpt><trkpt lat="43.72479003515786" lon="11.463893239996537"><ele>106.75</ele><time>2026-04-29T23:18:20.999Z</time></trkpt><trkpt lat="43.72474421539451" lon="11.463695540065084"><ele>108.0</ele><time>2026-04-29T23:18:21.999Z</time></trkpt><trkpt lat="43.724699994130575" lon="11.463496407354082"><ele>108.0</ele><time>2026-04-29T23:18:22.999Z</time></trkpt><trkpt lat="43.724652285027794" lon="11.463305996216041"><ele>108.0</ele><time>2026-04-29T23:18:23.999Z</time></trkpt><trkpt lat="43.7246006844016" lon="11.463107469728952"><ele>108.0</ele><time>2026-04-29T23:18:24.999Z</time></trkpt><trkpt lat="43.7245536616658" lon="11.462904447786055"><ele>108.0</ele><time>2026-04-29T23:18:25.999Z</time></trkpt><trkpt lat="43.72450100921603" lon="11.462701676913793"><ele>108.0</ele><time>2026-04-29T23:18:26.999Z</time></trkpt><trkpt lat="43.72443725295874" lon="11.46250074111452"><ele>108.0</ele><time>2026-04-29T23:18:27.999Z</time></trkpt><trkpt lat="43.72437272861374" lon="11.462289400907666"><ele>111.0</ele><time>2026-04-29T23:18:28.999Z</time></trkpt><trkpt lat="43.72430669168157" lon="11.462073954169856"><ele>114.0</ele><time>2026-04-29T23:18:29.999Z</time></trkpt><trkpt lat="43.72423802878628" lon="11.461856093529851"><ele>117.0</ele><time>2026-04-29T23:18:30.999Z</time></trkpt><trkpt lat="43.7241620126515" lon="11.461668675584036"><ele>117.0</ele><time>2026-04-29T23:18:31.999Z</time></trkpt><trkpt lat="43.72406676107677" lon="11.461547144048161"><ele>117.0</ele><time>2026-04-29T23:18:32.999Z</time></trkpt><trkpt lat="43.72393777072746" lon="11.461482138853286"><ele>117.0</ele><time>2026-04-29T23:18:33.999Z</time></trkpt><trkpt lat="43.72378013918431" lon="11.461456431257545"><ele>117.0</ele><time>2026-04-29T23:18:34.999Z</time></trkpt><trkpt lat="43.72361310184837" lon="11.461439136532531"><ele>122.66666666666666</ele><time>2026-04-29T23:18:35.999Z</time></trkpt><trkpt lat="43.72344213127504" lon="11.4614155886647"><ele>128.33333333333331</ele><time>2026-04-29T23:18:36.999Z</time></trkpt><trkpt lat="43.72326810929972" lon="11.46135354825089"><ele>134.0</ele><time>2026-04-29T23:18:37.999Z</time></trkpt><trkpt lat="43.72309876172656" lon="11.461304144266492"><ele>127.66666666666666</ele><time>2026-04-29T23:18:38.999Z</time></trkpt><trkpt lat="43.7229214135649" lon="11.46126269280294"><ele>121.33333333333334</ele><time>2026-04-29T23:18:39.999Z</time></trkpt><trkpt lat="43.72274520351509" lon="11.461188988375957"><ele>115.0</ele><time>2026-04-29T23:18:40.999Z</time></trkpt><trkpt lat="43.722566115169876" lon="11.461108171297964"><ele>115.0</ele><time>2026-04-29T23:18:41.999Z</time></trkpt><trkpt lat="43.72237906291439" lon="11.461028008254402"><ele>115.0</ele><time>2026-04-29T23:18:42.999Z</time></trkpt><trkpt lat="43.72218998281068" lon="11.460959607077651"><ele>115.0</ele><time>2026-04-29T23:18:43.999Z</time></trkpt><trkpt lat="43.72199718795626" lon="11.46089694824717"><ele>116.66666666666667</ele><time>2026-04-29T23:18:44.999Z</time></trkpt><trkpt lat="43.72180091580645" lon="11.460841536237927"><ele>118.33333333333334</ele><time>2026-04-29T23:18:45.999Z</time></trkpt><trkpt lat="43.72160392882194" lon="11.460806012233554"><ele>120.0</ele><time>2026-04-29T23:18:46.999Z</time></trkpt><trkpt lat="43.72141514039765" lon="11.460774802815989"><ele>120.0</ele><time>2026-04-29T23:18:47.999Z</time></trkpt><trkpt lat="43.72124803648096" lon="11.46072202440238"><ele>120.0</ele><time>2026-04-29T23:18:48.999Z</time></trkpt><trkpt lat="43.721104699590875" lon="11.460685429982268"><ele>120.0</ele><time>2026-04-29T23:18:49.999Z</time></trkpt><trkpt lat="43.72098989359797" lon="11.460625261073902"><ele>120.0</ele><time>2026-04-29T23:18:50.999Z</time></trkpt><trkpt lat="43.720905276177234" lon="11.460528492937742"><ele>120.0</ele><time>2026-04-29T23:18:51.999Z</time></trkpt><trkpt lat="43.7208290118465" lon="11.46039914678183"><ele>120.0</ele><time>2026-04-29T23:18:52.999Z</time></trkpt><trkpt lat="43.72080341361314" lon="11.460206233756718"><ele>120.0</ele><time>2026-04-29T23:18:54Z</time></trkpt><trkpt lat="43.72073793331223" lon="11.460034612859921"><ele>120.0</ele><time>2026-04-29T23:18:55Z</time></trkpt><trkpt lat="43.72068989029166" lon="11.459851988473176"><ele>120.0</ele><time>2026-04-29T23:18:56Z</time></trkpt><trkpt lat="43.720623261869086" lon="11.459661614020886"><ele>120.0</ele><time>2026-04-29T23:18:57Z</time></trkpt><trkpt lat="43.720580646401594" lon="11.459455275866222"><ele>120.0</ele><time>2026-04-29T23:18:58Z</time></trkpt><trkpt lat="43.720522164925136" lon="11.45925426748542"><ele>119.33333333333334</ele><time>2026-04-29T23:18:59Z</time></trkpt><trkpt lat="43.720447532044226" lon="11.45905252260382"><ele>118.66666666666667</ele><time>2026-04-29T23:19:00Z</time></trkpt><trkpt lat="43.72039126045246" lon="11.458831621782268"><ele>118.0</ele><time>2026-04-29T23:19:01Z</time></trkpt><trkpt lat="43.720332700596394" lon="11.458596352112636"><ele>116.33333333333334</ele><time>2026-04-29T23:19:02Z</time></trkpt><trkpt lat="43.72026897618304" lon="11.458384155567359"><ele>114.66666666666666</ele><time>2026-04-29T23:19:03Z</time></trkpt><trkpt lat="43.7201957770043" lon="11.458169613693835"><ele>113.0</ele><time>2026-04-29T23:19:04Z</time></trkpt><trkpt lat="43.72011408372431" lon="11.457948463139012"><ele>119.0</ele><time>2026-04-29T23:19:05Z</time></trkpt><trkpt lat="43.72003297974191" lon="11.457724583120111"><ele>125.0</ele><time>2026-04-29T23:19:06Z</time></trkpt><trkpt lat="43.71996368659275" lon="11.457502923909537"><ele>131.0</ele><time>2026-04-29T23:19:07Z</time></trkpt><trkpt lat="43.71988808931923" lon="11.457283645712861"><ele>129.0</ele><time>2026-04-29T23:19:08Z</time></trkpt><trkpt lat="43.71981115686234" lon="11.457068467923854"><ele>127.0</ele><time>2026-04-29T23:19:09Z</time></trkpt><trkpt lat="43.719740279067835" lon="11.456872952568423"><ele>125.0</ele><time>2026-04-29T23:19:10Z</time></trkpt><trkpt lat="43.71966740981395" lon="11.456697883857046"><ele>125.0</ele><time>2026-04-29T23:19:11Z</time></trkpt><trkpt lat="43.71959738802402" lon="11.456547806903979"><ele>125.0</ele><time>2026-04-29T23:19:12Z</time></trkpt><trkpt lat="43.7195232827079" lon="11.456426987450273"><ele>125.0</ele><time>2026-04-29T23:19:13Z</time></trkpt><trkpt lat="43.71944056598025" lon="11.456335187224342"><ele>125.0</ele><time>2026-04-29T23:19:14Z</time></trkpt><trkpt lat="43.71934911045668" lon="11.456275599152734"><ele>126.75</ele><time>2026-04-29T23:19:15Z</time></trkpt><trkpt lat="43.71922475642261" lon="11.456326163449267"><ele>128.5</ele><time>2026-04-29T23:19:16Z</time></trkpt><trkpt lat="43.71912517928014" lon="11.456422204231153"><ele>130.25</ele><time>2026-04-29T23:19:17Z</time></trkpt><trkpt lat="43.719032889664675" lon="11.456550355149856"><ele>132.0</ele><time>2026-04-29T23:19:18Z</time></trkpt><trkpt lat="43.71893539447967" lon="11.456678713566767"><ele>132.0</ele><time>2026-04-29T23:19:19Z</time></trkpt><trkpt lat="43.718834393993745" lon="11.456821303222357"><ele>132.0</ele><time>2026-04-29T23:19:20Z</time></trkpt><trkpt lat="43.718733841371794" lon="11.456954215112322"><ele>132.0</ele><time>2026-04-29T23:19:21Z</time></trkpt><trkpt lat="43.71864278948516" lon="11.457075387374351"><ele>132.0</ele><time>2026-04-29T23:19:22Z</time></trkpt><trkpt lat="43.71854993146358" lon="11.457191553233601"><ele>130.5</ele><time>2026-04-29T23:19:23Z</time></trkpt><trkpt lat="43.718456103671166" lon="11.457316820577487"><ele>129.0</ele><time>2026-04-29T23:19:24Z</time></trkpt><trkpt lat="43.7183606695453" lon="11.457451271740723"><ele>127.5</ele><time>2026-04-29T23:19:25Z</time></trkpt><trkpt lat="43.71825061829954" lon="11.457567752095406"><ele>126.0</ele><time>2026-04-29T23:19:26Z</time></trkpt><trkpt lat="43.718147483530885" lon="11.457698975148277"><ele>126.0</ele><time>2026-04-29T23:19:27Z</time></trkpt><trkpt lat="43.71805547823312" lon="11.45781361179849"><ele>126.0</ele><time>2026-04-29T23:19:28Z</time></trkpt><trkpt lat="43.717964242762385" lon="11.457921499698726"><ele>126.0</ele><time>2026-04-29T23:19:29Z</time></trkpt><trkpt lat="43.71786909398229" lon="11.458029203402226"><ele>126.0</ele><time>2026-04-29T23:19:30Z</time></trkpt><trkpt lat="43.717770086103776" lon="11.458136921639419"><ele>125.25</ele><time>2026-04-29T23:19:31Z</time></trkpt><trkpt lat="43.717665709333716" lon="11.458249941118927"><ele>124.5</ele><time>2026-04-29T23:19:32Z</time></trkpt><trkpt lat="43.71755544020263" lon="11.458369341154716"><ele>123.75</ele><time>2026-04-29T23:19:33Z</time></trkpt><trkpt lat="43.71744300785175" lon="11.45849108311775"><ele>123.0</ele><time>2026-04-29T23:19:34Z</time></trkpt><trkpt lat="43.717325921023914" lon="11.458617865186332"><ele>123.0</ele><time>2026-04-29T23:19:35Z</time></trkpt><trkpt lat="43.717208053886715" lon="11.458745930257631"><ele>123.0</ele><time>2026-04-29T23:19:36Z</time></trkpt><trkpt lat="43.71708943130022" lon="11.458876782271396"><ele>123.0</ele><time>2026-04-29T23:19:37Z</time></trkpt><trkpt lat="43.71697499625521" lon="11.459029607640101"><ele>122.0</ele><time>2026-04-29T23:19:38Z</time></trkpt><trkpt lat="43.71684580229792" lon="11.459172570960883"><ele>121.0</ele><time>2026-04-29T23:19:39Z</time></trkpt><trkpt lat="43.716716636086254" lon="11.459311108587011"><ele>120.0</ele><time>2026-04-29T23:19:40Z</time></trkpt><trkpt lat="43.716583096370464" lon="11.459444538584286"><ele>120.0</ele><time>2026-04-29T23:19:41Z</time></trkpt><trkpt lat="43.71643556460398" lon="11.459549227561729"><ele>120.0</ele><time>2026-04-29T23:19:42Z</time></trkpt><trkpt lat="43.716300640898105" lon="11.45966354761488"><ele>120.0</ele><time>2026-04-29T23:19:43Z</time></trkpt><trkpt lat="43.716167671062614" lon="11.459777339294664"><ele>120.0</ele><time>2026-04-29T23:19:44Z</time></trkpt><trkpt lat="43.71603559648362" lon="11.459912967057912"><ele>120.0</ele><time>2026-04-29T23:19:45Z</time></trkpt><trkpt lat="43.71587532160568" lon="11.460019730661823"><ele>120.0</ele><time>2026-04-29T23:19:46Z</time></trkpt><trkpt lat="43.715723808019945" lon="11.460139524955027"><ele>120.0</ele><time>2026-04-29T23:19:47Z</time></trkpt><trkpt lat="43.71557491447023" lon="11.46024717228528"><ele>120.0</ele><time>2026-04-29T23:19:48Z</time></trkpt><trkpt lat="43.715424680216614" lon="11.460327010620754"><ele>120.0</ele><time>2026-04-29T23:19:49Z</time></trkpt><trkpt lat="43.71526894060272" lon="11.460370727513101"><ele>117.66666666666666</ele><time>2026-04-29T23:19:50Z</time></trkpt><trkpt lat="43.71510226513649" lon="11.460387421562146"><ele>115.33333333333333</ele><time>2026-04-29T23:19:51Z</time></trkpt><trkpt lat="43.71494327844528" lon="11.460416252076318"><ele>113.0</ele><time>2026-04-29T23:19:52Z</time></trkpt><trkpt lat="43.71477566981053" lon="11.460424866986513"><ele>113.0</ele><time>2026-04-29T23:19:53Z</time></trkpt><trkpt lat="43.714630042647265" lon="11.460434312467475"><ele>113.0</ele><time>2026-04-29T23:19:54Z</time></trkpt><trkpt lat="43.71449987958908" lon="11.46049024228093"><ele>113.0</ele><time>2026-04-29T23:19:55Z</time></trkpt><trkpt lat="43.714378266024234" lon="11.460586564323037"><ele>113.0</ele><time>2026-04-29T23:19:56Z</time></trkpt><trkpt lat="43.71426374174556" lon="11.460732820274744"><ele>114.66666666666666</ele><time>2026-04-29T23:19:57Z</time></trkpt><trkpt lat="43.714133979430734" lon="11.4608687448619"><ele>116.33333333333334</ele><time>2026-04-29T23:19:58Z</time></trkpt><trkpt lat="43.71400513766395" lon="11.461014563211833"><ele>118.0</ele><time>2026-04-29T23:19:59Z</time></trkpt><trkpt lat="43.71387481776274" lon="11.461142006092999"><ele>118.0</ele><time>2026-04-29T23:20:00Z</time></trkpt><trkpt lat="43.71374402019954" lon="11.461202423277326"><ele>118.0</ele><time>2026-04-29T23:20:01Z</time></trkpt><trkpt lat="43.71362012382696" lon="11.461202790859007"><ele>118.0</ele><time>2026-04-29T23:20:02Z</time></trkpt><trkpt lat="43.713475427211144" lon="11.461181211985119"><ele>118.0</ele><time>2026-04-29T23:20:03Z</time></trkpt><trkpt lat="43.71331796553545" lon="11.46116627653896"><ele>117.66666666666667</ele><time>2026-04-29T23:20:04Z</time></trkpt><trkpt lat="43.71315676643355" lon="11.461151437761423"><ele>117.33333333333334</ele><time>2026-04-29T23:20:05Z</time></trkpt><trkpt lat="43.71299137919475" lon="11.461162965355458"><ele>117.0</ele><time>2026-04-29T23:20:06Z</time></trkpt><trkpt lat="43.7128295402748" lon="11.461171136625964"><ele>115.33333333333334</ele><time>2026-04-29T23:20:07Z</time></trkpt><trkpt lat="43.712671916528585" lon="11.461191125267936"><ele>113.66666666666667</ele><time>2026-04-29T23:20:08Z</time></trkpt><trkpt lat="43.712533474574" lon="11.461242393396901"><ele>112.0</ele><time>2026-04-29T23:20:09Z</time></trkpt><trkpt lat="43.71240044941066" lon="11.461340162041559"><ele>114.0</ele><time>2026-04-29T23:20:10Z</time></trkpt><trkpt lat="43.71226957312507" lon="11.461437978734633"><ele>116.0</ele><time>2026-04-29T23:20:11Z</time></trkpt><trkpt lat="43.712143093773854" lon="11.461547347224629"><ele>118.0</ele><time>2026-04-29T23:20:12Z</time></trkpt><trkpt lat="43.71202323970607" lon="11.461616360294352"><ele>120.0</ele><time>2026-04-29T23:20:13Z</time></trkpt><trkpt lat="43.71188862634891" lon="11.46158732453765"><ele>120.0</ele><time>2026-04-29T23:20:14Z</time></trkpt><trkpt lat="43.71173381719477" lon="11.4615503237989"><ele>120.0</ele><time>2026-04-29T23:20:15Z</time></trkpt><trkpt lat="43.71158128441864" lon="11.461526537148858"><ele>120.0</ele><time>2026-04-29T23:20:16Z</time></trkpt><trkpt lat="43.711427493520475" lon="11.461474329856873"><ele>120.0</ele><time>2026-04-29T23:20:17Z</time></trkpt><trkpt lat="43.71125824074367" lon="11.461423632607637"><ele>120.0</ele><time>2026-04-29T23:20:18Z</time></trkpt><trkpt lat="43.71108988642093" lon="11.461385770879986"><ele>120.0</ele><time>2026-04-29T23:20:19Z</time></trkpt><trkpt lat="43.71091615275129" lon="11.461368777625289"><ele>120.66666666666666</ele><time>2026-04-29T23:20:20Z</time></trkpt><trkpt lat="43.71074116673063" lon="11.461381685421726"><ele>121.33333333333333</ele><time>2026-04-29T23:20:21Z</time></trkpt><trkpt lat="43.71056385349906" lon="11.461418402730468"><ele>122.0</ele><time>2026-04-29T23:20:22Z</time></trkpt><trkpt lat="43.71037413563816" lon="11.461458676353073"><ele>121.33333333333333</ele><time>2026-04-29T23:20:23Z</time></trkpt><trkpt lat="43.710185265919925" lon="11.46149001915785"><ele>120.66666666666666</ele><time>2026-04-29T23:20:24Z</time></trkpt><trkpt lat="43.709993718088406" lon="11.46152572306281"><ele>120.0</ele><time>2026-04-29T23:20:25Z</time></trkpt><trkpt lat="43.70980470946824" lon="11.461560008362342"><ele>120.0</ele><time>2026-04-29T23:20:26Z</time></trkpt><trkpt lat="43.709625689698335" lon="11.46159392332151"><ele>120.0</ele><time>2026-04-29T23:20:27Z</time></trkpt><trkpt lat="43.709443606534336" lon="11.461629845930482"><ele>120.0</ele><time>2026-04-29T23:20:28Z</time></trkpt><trkpt lat="43.709263593615354" lon="11.461664695504355"><ele>119.66666666666666</ele><time>2026-04-29T23:20:28.999Z</time></trkpt><trkpt lat="43.70908572398221" lon="11.46169355681108"><ele>119.33333333333333</ele><time>2026-04-29T23:20:29.999Z</time></trkpt><trkpt lat="43.708911146134625" lon="11.461724153014435"><ele>119.0</ele><time>2026-04-29T23:20:30.999Z</time></trkpt><trkpt lat="43.708741492573594" lon="11.461756908523842"><ele>118.33333333333333</ele><time>2026-04-29T23:20:31.999Z</time></trkpt><trkpt lat="43.70856172494327" lon="11.461791582526416"><ele>117.66666666666666</ele><time>2026-04-29T23:20:32.999Z</time></trkpt><trkpt lat="43.70838768502214" lon="11.461826096702643"><ele>117.0</ele><time>2026-04-29T23:20:33.999Z</time></trkpt><trkpt lat="43.70820416020913" lon="11.461863431045963"><ele>117.0</ele><time>2026-04-29T23:20:34.999Z</time></trkpt><trkpt lat="43.70802174571399" lon="11.461916169165866"><ele>117.0</ele><time>2026-04-29T23:20:35.999Z</time></trkpt><trkpt lat="43.70784159079598" lon="11.461977863780536"><ele>117.0</ele><time>2026-04-29T23:20:36.999Z</time></trkpt><trkpt lat="43.707656563857455" lon="11.462018277448282"><ele>118.0</ele><time>2026-04-29T23:20:37.999Z</time></trkpt><trkpt lat="43.707468813029585" lon="11.462077643648117"><ele>119.0</ele><time>2026-04-29T23:20:38.999Z</time></trkpt><trkpt lat="43.707286461854345" lon="11.462160280787778"><ele>120.0</ele><time>2026-04-29T23:20:39.999Z</time></trkpt><trkpt lat="43.707106190266146" lon="11.462212979013913"><ele>120.0</ele><time>2026-04-29T23:20:40.999Z</time></trkpt><trkpt lat="43.7069286635332" lon="11.462272617161233"><ele>120.0</ele><time>2026-04-29T23:20:41.999Z</time></trkpt><trkpt lat="43.706748125470796" lon="11.462338172928586"><ele>120.0</ele><time>2026-04-29T23:20:42.999Z</time></trkpt><trkpt lat="43.70656460445087" lon="11.462414523583027"><ele>120.0</ele><time>2026-04-29T23:20:43.999Z</time></trkpt><trkpt lat="43.70638638566562" lon="11.46247251571678"><ele>120.0</ele><time>2026-04-29T23:20:44.999Z</time></trkpt><trkpt lat="43.70621225623769" lon="11.462557888054999"><ele>120.0</ele><time>2026-04-29T23:20:45.999Z</time></trkpt><trkpt lat="43.70603999072018" lon="11.462644585825288"><ele>118.66666666666666</ele><time>2026-04-29T23:20:46.999Z</time></trkpt><trkpt lat="43.70586819155511" lon="11.462733461404891"><ele>117.33333333333333</ele><time>2026-04-29T23:20:47.999Z</time></trkpt><trkpt lat="43.705701322068805" lon="11.462851512328859"><ele>116.0</ele><time>2026-04-29T23:20:48.999Z</time></trkpt><trkpt lat="43.70554860260637" lon="11.462956485063762"><ele>116.33333333333333</ele><time>2026-04-29T23:20:49.999Z</time></trkpt><trkpt lat="43.705405804958865" lon="11.463107383178613"><ele>116.66666666666666</ele><time>2026-04-29T23:20:50.999Z</time></trkpt><trkpt lat="43.70527299263602" lon="11.463286308211615"><ele>117.0</ele><time>2026-04-29T23:20:51.999Z</time></trkpt><trkpt lat="43.70514637578814" lon="11.463475134093217"><ele>117.0</ele><time>2026-04-29T23:20:52.999Z</time></trkpt><trkpt lat="43.70501659412795" lon="11.463666041016824"><ele>117.0</ele><time>2026-04-29T23:20:53.999Z</time></trkpt><trkpt lat="43.704881436336" lon="11.463857201522849"><ele>117.0</ele><time>2026-04-29T23:20:54.999Z</time></trkpt><trkpt lat="43.70474797191851" lon="11.46403551535063"><ele>116.33333333333334</ele><time>2026-04-29T23:20:55.999Z</time></trkpt><trkpt lat="43.704589979248176" lon="11.464159427338316"><ele>115.66666666666667</ele><time>2026-04-29T23:20:56.999Z</time></trkpt><trkpt lat="43.70442996623647" lon="11.464297598423721"><ele>115.0</ele><time>2026-04-29T23:20:57.999Z</time></trkpt><trkpt lat="43.70427420213066" lon="11.464441148790032"><ele>115.0</ele><time>2026-04-29T23:20:58.999Z</time></trkpt><trkpt lat="43.70413609745897" lon="11.464606898099806"><ele>115.0</ele><time>2026-04-29T23:21:00Z</time></trkpt><trkpt lat="43.703973399035796" lon="11.464728299492133"><ele>115.0</ele><time>2026-04-29T23:21:01Z</time></trkpt><trkpt lat="43.70381064312556" lon="11.464823093634513"><ele>116.33333333333334</ele><time>2026-04-29T23:21:02Z</time></trkpt><trkpt lat="43.70364146908377" lon="11.464908008740979"><ele>117.66666666666666</ele><time>2026-04-29T23:21:03Z</time></trkpt><trkpt lat="43.703478570493175" lon="11.464989773932615"><ele>119.0</ele><time>2026-04-29T23:21:04Z</time></trkpt><trkpt lat="43.70331538794027" lon="11.465083971868454"><ele>119.0</ele><time>2026-04-29T23:21:05Z</time></trkpt><trkpt lat="43.70316845032524" lon="11.465226076485804"><ele>119.0</ele><time>2026-04-29T23:21:06Z</time></trkpt><trkpt lat="43.70301070993398" lon="11.465347240130676"><ele>119.0</ele><time>2026-04-29T23:21:07Z</time></trkpt><trkpt lat="43.70287464431776" lon="11.465473866905613"><ele>120.5</ele><time>2026-04-29T23:21:08Z</time></trkpt><trkpt lat="43.70274942725632" lon="11.465598263065107"><ele>122.0</ele><time>2026-04-29T23:21:09Z</time></trkpt><trkpt lat="43.702600908657814" lon="11.465631829081813"><ele>123.5</ele><time>2026-04-29T23:21:10Z</time></trkpt><trkpt lat="43.70247827646217" lon="11.465634308877627"><ele>125.0</ele><time>2026-04-29T23:21:11Z</time></trkpt><trkpt lat="43.7023759743334" lon="11.465546885924821"><ele>123.0</ele><time>2026-04-29T23:21:12Z</time></trkpt><trkpt lat="43.70226716877565" lon="11.46543197530549"><ele>121.0</ele><time>2026-04-29T23:21:13Z</time></trkpt><trkpt lat="43.702152863229415" lon="11.465292378352638"><ele>119.0</ele><time>2026-04-29T23:21:14Z</time></trkpt><trkpt lat="43.702042516071515" lon="11.465180922427537"><ele>117.0</ele><time>2026-04-29T23:21:15Z</time></trkpt><trkpt lat="43.7019508763301" lon="11.465077660844287"><ele>116.5</ele><time>2026-04-29T23:21:16Z</time></trkpt><trkpt lat="43.7018868353982" lon="11.464947427917767"><ele>116.0</ele><time>2026-04-29T23:21:17Z</time></trkpt><trkpt lat="43.701838211649445" lon="11.464815867389541"><ele>115.5</ele><time>2026-04-29T23:21:18Z</time></trkpt><trkpt lat="43.70175540837324" lon="11.464703393885179"><ele>115.0</ele><time>2026-04-29T23:21:19Z</time></trkpt><trkpt lat="43.70162610303016" lon="11.464621607782025"><ele>114.75</ele><time>2026-04-29T23:21:20Z</time></trkpt><trkpt lat="43.70148788953912" lon="11.464559025945093"><ele>114.5</ele><time>2026-04-29T23:21:21Z</time></trkpt><trkpt lat="43.701356188052245" lon="11.464483889212671"><ele>114.25</ele><time>2026-04-29T23:21:22Z</time></trkpt><trkpt lat="43.70122382516254" lon="11.464391695304844"><ele>114.0</ele><time>2026-04-29T23:21:23Z</time></trkpt><trkpt lat="43.70107348769317" lon="11.464360295694185"><ele>114.0</ele><time>2026-04-29T23:21:24Z</time></trkpt><trkpt lat="43.70091554728746" lon="11.464380273306345"><ele>114.0</ele><time>2026-04-29T23:21:25Z</time></trkpt><trkpt lat="43.70075402092268" lon="11.46440028800222"><ele>114.0</ele><time>2026-04-29T23:21:26Z</time></trkpt><trkpt lat="43.70059558223601" lon="11.464430940597639"><ele>114.0</ele><time>2026-04-29T23:21:27Z</time></trkpt><trkpt lat="43.700441246521166" lon="11.464460103015004"><ele>114.0</ele><time>2026-04-29T23:21:28Z</time></trkpt><trkpt lat="43.700287701432266" lon="11.464509841914634"><ele>114.0</ele><time>2026-04-29T23:21:29Z</time></trkpt><trkpt lat="43.700130786438166" lon="11.464525680271771"><ele>114.33333333333334</ele><time>2026-04-29T23:21:30Z</time></trkpt><trkpt lat="43.69997869711112" lon="11.464499855973097"><ele>114.66666666666667</ele><time>2026-04-29T23:21:31Z</time></trkpt><trkpt lat="43.699827734131915" lon="11.464484273997314"><ele>115.0</ele><time>2026-04-29T23:21:32Z</time></trkpt><trkpt lat="43.69967451831826" lon="11.464480101681389"><ele>115.0</ele><time>2026-04-29T23:21:33Z</time></trkpt><trkpt lat="43.699522603271994" lon="11.46445771860878"><ele>115.0</ele><time>2026-04-29T23:21:34Z</time></trkpt><trkpt lat="43.69936938662418" lon="11.464440943145304"><ele>115.0</ele><time>2026-04-29T23:21:35Z</time></trkpt><trkpt lat="43.699222148723244" lon="11.464408742760174"><ele>115.0</ele><time>2026-04-29T23:21:36Z</time></trkpt><trkpt lat="43.6990730866585" lon="11.464363513484757"><ele>115.0</ele><time>2026-04-29T23:21:37Z</time></trkpt><trkpt lat="43.69893315513614" lon="11.46428733074876"><ele>115.0</ele><time>2026-04-29T23:21:38Z</time></trkpt><trkpt lat="43.698788902028014" lon="11.464229304996916"><ele>115.0</ele><time>2026-04-29T23:21:39Z</time></trkpt><trkpt lat="43.69864032456084" lon="11.464190489502858"><ele>115.0</ele><time>2026-04-29T23:21:40Z</time></trkpt><trkpt lat="43.69849425191508" lon="11.464131148298172"><ele>115.0</ele><time>2026-04-29T23:21:41Z</time></trkpt><trkpt lat="43.69834831100235" lon="11.464066601789982"><ele>115.0</ele><time>2026-04-29T23:21:42Z</time></trkpt><trkpt lat="43.69820417422511" lon="11.464009349880918"><ele>115.0</ele><time>2026-04-29T23:21:43Z</time></trkpt><trkpt lat="43.69805831185911" lon="11.463949459043834"><ele>115.0</ele><time>2026-04-29T23:21:44Z</time></trkpt><trkpt lat="43.69791219099645" lon="11.463893425214703"><ele>115.0</ele><time>2026-04-29T23:21:45Z</time></trkpt><trkpt lat="43.697767754381644" lon="11.463835239857023"><ele>115.0</ele><time>2026-04-29T23:21:46Z</time></trkpt><trkpt lat="43.697626844299286" lon="11.463778899802426"><ele>115.0</ele><time>2026-04-29T23:21:47Z</time></trkpt><trkpt lat="43.6974838870652" lon="11.463720565590659"><ele>115.0</ele><time>2026-04-29T23:21:48Z</time></trkpt><trkpt lat="43.697335020272675" lon="11.46365920688672"><ele>114.33333333333334</ele><time>2026-04-29T23:21:49Z</time></trkpt><trkpt lat="43.697180067425236" lon="11.463620114774338"><ele>113.66666666666666</ele><time>2026-04-29T23:21:50Z</time></trkpt><trkpt lat="43.69700901675833" lon="11.463619872621399"><ele>113.0</ele><time>2026-04-29T23:21:51Z</time></trkpt><trkpt lat="43.696843520004016" lon="11.46366007879195"><ele>113.33333333333333</ele><time>2026-04-29T23:21:52Z</time></trkpt><trkpt lat="43.696668908945085" lon="11.46371931953314"><ele>113.66666666666666</ele><time>2026-04-29T23:21:53Z</time></trkpt><trkpt lat="43.69649081252022" lon="11.463749844833883"><ele>114.0</ele><time>2026-04-29T23:21:54Z</time></trkpt><trkpt lat="43.69631978066333" lon="11.463812010352086"><ele>114.0</ele><time>2026-04-29T23:21:55Z</time></trkpt><trkpt lat="43.6961343152755" lon="11.463850973184359"><ele>114.0</ele><time>2026-04-29T23:21:56Z</time></trkpt><trkpt lat="43.69594651988167" lon="11.463884084179224"><ele>114.0</ele><time>2026-04-29T23:21:57Z</time></trkpt><trkpt lat="43.69575964446726" lon="11.46389648562632"><ele>114.0</ele><time>2026-04-29T23:21:58Z</time></trkpt><trkpt lat="43.695579284683156" lon="11.463879260736226"><ele>114.0</ele><time>2026-04-29T23:21:59Z</time></trkpt><trkpt lat="43.69540221740653" lon="11.463826948015807"><ele>114.0</ele><time>2026-04-29T23:22:00Z</time></trkpt><trkpt lat="43.69523138753287" lon="11.46375052321816"><ele>113.66666666666666</ele><time>2026-04-29T23:22:01Z</time></trkpt><trkpt lat="43.69504963631081" lon="11.46366751876776"><ele>113.33333333333333</ele><time>2026-04-29T23:22:02Z</time></trkpt><trkpt lat="43.694869148570824" lon="11.46358626620636"><ele>113.0</ele><time>2026-04-29T23:22:03Z</time></trkpt><trkpt lat="43.694690422804875" lon="11.463508408799461"><ele>113.0</ele><time>2026-04-29T23:22:04Z</time></trkpt><trkpt lat="43.69450872981714" lon="11.463428560233718"><ele>113.0</ele><time>2026-04-29T23:22:05Z</time></trkpt><trkpt lat="43.694329370874584" lon="11.463345287788258"><ele>113.0</ele><time>2026-04-29T23:22:06Z</time></trkpt><trkpt lat="43.69416379936908" lon="11.463234990333495"><ele>113.66666666666666</ele><time>2026-04-29T23:22:07Z</time></trkpt><trkpt lat="43.693998160204714" lon="11.463132677331608"><ele>114.33333333333334</ele><time>2026-04-29T23:22:08Z</time></trkpt><trkpt lat="43.69383487788459" lon="11.463012570801036"><ele>115.0</ele><time>2026-04-29T23:22:09Z</time></trkpt><trkpt lat="43.69367579179502" lon="11.46288836514587"><ele>114.33333333333334</ele><time>2026-04-29T23:22:10Z</time></trkpt><trkpt lat="43.693501654315064" lon="11.46277026007026"><ele>113.66666666666666</ele><time>2026-04-29T23:22:11Z</time></trkpt><trkpt lat="43.693349077049575" lon="11.462625772720303"><ele>113.0</ele><time>2026-04-29T23:22:12Z</time></trkpt><trkpt lat="43.693186754608305" lon="11.462498641255944"><ele>113.0</ele><time>2026-04-29T23:22:13Z</time></trkpt><trkpt lat="43.69301276350571" lon="11.462387283867287"><ele>113.0</ele><time>2026-04-29T23:22:14Z</time></trkpt><trkpt lat="43.69284798653576" lon="11.462254014603467"><ele>113.0</ele><time>2026-04-29T23:22:14.999Z</time></trkpt><trkpt lat="43.69268101022163" lon="11.462115219867536"><ele>113.66666666666666</ele><time>2026-04-29T23:22:15.999Z</time></trkpt><trkpt lat="43.692515321110356" lon="11.461979883471471"><ele>114.33333333333334</ele><time>2026-04-29T23:22:16.999Z</time></trkpt><trkpt lat="43.69234667013682" lon="11.461853219249857"><ele>115.0</ele><time>2026-04-29T23:22:17.999Z</time></trkpt><trkpt lat="43.69217596632998" lon="11.461744448444467"><ele>115.0</ele><time>2026-04-29T23:22:18.999Z</time></trkpt><trkpt lat="43.691996817639506" lon="11.461662242394823"><ele>115.0</ele><time>2026-04-29T23:22:19.999Z</time></trkpt><trkpt lat="43.69181239240456" lon="11.46159060488795"><ele>115.0</ele><time>2026-04-29T23:22:20.999Z</time></trkpt><trkpt lat="43.691626213746304" lon="11.461519114340227"><ele>114.33333333333334</ele><time>2026-04-29T23:22:21.999Z</time></trkpt><trkpt lat="43.69144694052582" lon="11.461435546647145"><ele>113.66666666666666</ele><time>2026-04-29T23:22:22.999Z</time></trkpt><trkpt lat="43.69126961918117" lon="11.461340691138163"><ele>113.0</ele><time>2026-04-29T23:22:23.999Z</time></trkpt><trkpt lat="43.691094287824555" lon="11.461230908135006"><ele>114.33333333333333</ele><time>2026-04-29T23:22:24.999Z</time></trkpt><trkpt lat="43.69092976390352" lon="11.461107232277042"><ele>115.66666666666666</ele><time>2026-04-29T23:22:25.999Z</time></trkpt><trkpt lat="43.69077031201538" lon="11.460973097188667"><ele>117.0</ele><time>2026-04-29T23:22:26.999Z</time></trkpt><trkpt lat="43.69061171740731" lon="11.460840849905711"><ele>117.0</ele><time>2026-04-29T23:22:27.999Z</time></trkpt><trkpt lat="43.69045423293938" lon="11.46071951455413"><ele>117.0</ele><time>2026-04-29T23:22:28.999Z</time></trkpt><trkpt lat="43.69029103839553" lon="11.460599857830008"><ele>117.0</ele><time>2026-04-29T23:22:29.999Z</time></trkpt><trkpt lat="43.69013324161666" lon="11.460476027178208"><ele>116.33333333333334</ele><time>2026-04-29T23:22:30.999Z</time></trkpt><trkpt lat="43.689971166574416" lon="11.460354987707337"><ele>115.66666666666667</ele><time>2026-04-29T23:22:31.999Z</time></trkpt><trkpt lat="43.68982153122909" lon="11.460236792124928"><ele>115.0</ele><time>2026-04-29T23:22:32.999Z</time></trkpt><trkpt lat="43.68968747090541" lon="11.460131300682955"><ele>115.0</ele><time>2026-04-29T23:22:33.999Z</time></trkpt><trkpt lat="43.68955676408722" lon="11.460029900287608"><ele>115.0</ele><time>2026-04-29T23:22:34.999Z</time></trkpt><trkpt lat="43.689446619368674" lon="11.459932240707687"><ele>115.0</ele><time>2026-04-29T23:22:35.999Z</time></trkpt><trkpt lat="43.689351673303115" lon="11.459831159975717"><ele>115.0</ele><time>2026-04-29T23:22:36.999Z</time></trkpt><trkpt lat="43.689275932690364" lon="11.459723275131322"><ele>114.33333333333334</ele><time>2026-04-29T23:22:37.999Z</time></trkpt><trkpt lat="43.689224425553846" lon="11.459607123661742"><ele>113.66666666666667</ele><time>2026-04-29T23:22:38.999Z</time></trkpt><trkpt lat="43.689184420280085" lon="11.459486120412675"><ele>113.0</ele><time>2026-04-29T23:22:39.999Z</time></trkpt><trkpt lat="43.689133166476196" lon="11.459409455176282"><ele>112.33333333333334</ele><time>2026-04-29T23:22:40.999Z</time></trkpt><trkpt lat="43.689052723642334" lon="11.459407029643822"><ele>111.66666666666667</ele><time>2026-04-29T23:22:41.999Z</time></trkpt><trkpt lat="43.68897594116558" lon="11.45945614382699"><ele>111.0</ele><time>2026-04-29T23:22:42.999Z</time></trkpt><trkpt lat="43.68890838624491" lon="11.459558869225846"><ele>113.75</ele><time>2026-04-29T23:22:43.999Z</time></trkpt><trkpt lat="43.6888510133437" lon="11.459689372230246"><ele>116.5</ele><time>2026-04-29T23:22:44.999Z</time></trkpt><trkpt lat="43.688771639216384" lon="11.459797410846232"><ele>119.25</ele><time>2026-04-29T23:22:45.999Z</time></trkpt><trkpt lat="43.68866338024599" lon="11.459872635429763"><ele>122.0</ele><time>2026-04-29T23:22:46.999Z</time></trkpt><trkpt lat="43.68853590963663" lon="11.45991745784181"><ele>122.0</ele><time>2026-04-29T23:22:47.999Z</time></trkpt><trkpt lat="43.68839968162049" lon="11.459968926257753"><ele>122.0</ele><time>2026-04-29T23:22:48.999Z</time></trkpt><trkpt lat="43.688251706031494" lon="11.460025044825045"><ele>122.0</ele><time>2026-04-29T23:22:49.999Z</time></trkpt><trkpt lat="43.688118527385136" lon="11.460071966779639"><ele>122.0</ele><time>2026-04-29T23:22:50.999Z</time></trkpt><trkpt lat="43.68800117227057" lon="11.460142326191328"><ele>122.0</ele><time>2026-04-29T23:22:51.999Z</time></trkpt><trkpt lat="43.687885502775465" lon="11.460255808670805"><ele>122.0</ele><time>2026-04-29T23:22:52.999Z</time></trkpt><trkpt lat="43.68779409235476" lon="11.460417205318688"><ele>122.0</ele><time>2026-04-29T23:22:53.999Z</time></trkpt><trkpt lat="43.687730905763004" lon="11.460622698397234"><ele>122.5</ele><time>2026-04-29T23:22:54.999Z</time></trkpt><trkpt lat="43.687661553204585" lon="11.46080858559329"><ele>123.0</ele><time>2026-04-29T23:22:55.999Z</time></trkpt><trkpt lat="43.68756836096745" lon="11.46095119458876"><ele>123.5</ele><time>2026-04-29T23:22:56.999Z</time></trkpt><trkpt lat="43.68743852083474" lon="11.461010655961712"><ele>124.0</ele><time>2026-04-29T23:22:57.999Z</time></trkpt><trkpt lat="43.687293530211946" lon="11.461055536001473"><ele>124.0</ele><time>2026-04-29T23:22:58.999Z</time></trkpt><trkpt lat="43.687145707508485" lon="11.461118826426265"><ele>124.0</ele><time>2026-04-29T23:22:59.999Z</time></trkpt><trkpt lat="43.68699766214927" lon="11.461178649963664"><ele>124.0</ele><time>2026-04-29T23:23:00.999Z</time></trkpt><trkpt lat="43.68685053594522" lon="11.46123213192712"><ele>126.0</ele><time>2026-04-29T23:23:01.999Z</time></trkpt><trkpt lat="43.686712427910756" lon="11.461312698226138"><ele>128.0</ele><time>2026-04-29T23:23:02.999Z</time></trkpt><trkpt lat="43.686598900776886" lon="11.461444281341302"><ele>130.0</ele><time>2026-04-29T23:23:03.999Z</time></trkpt><trkpt lat="43.68651294584656" lon="11.461624304543472"><ele>130.0</ele><time>2026-04-29T23:23:05Z</time></trkpt><trkpt lat="43.686417712244065" lon="11.461800491244341"><ele>130.0</ele><time>2026-04-29T23:23:06Z</time></trkpt><trkpt lat="43.68632750880811" lon="11.461966498335785"><ele>130.0</ele><time>2026-04-29T23:23:07Z</time></trkpt><trkpt lat="43.68622635458545" lon="11.462125748625256"><ele>130.66666666666669</ele><time>2026-04-29T23:23:08Z</time></trkpt><trkpt lat="43.68612805708061" lon="11.462275481637164"><ele>131.33333333333334</ele><time>2026-04-29T23:23:09Z</time></trkpt><trkpt lat="43.686012230806355" lon="11.462414712751098"><ele>132.0</ele><time>2026-04-29T23:23:10Z</time></trkpt><trkpt lat="43.6858981796011" lon="11.462549720484597"><ele>132.0</ele><time>2026-04-29T23:23:11Z</time></trkpt><trkpt lat="43.685779611171746" lon="11.462681521272387"><ele>132.0</ele><time>2026-04-29T23:23:12Z</time></trkpt><trkpt lat="43.68565506885074" lon="11.46280445318301"><ele>132.0</ele><time>2026-04-29T23:23:13Z</time></trkpt><trkpt lat="43.685538193449446" lon="11.462940740635494"><ele>133.0</ele><time>2026-04-29T23:23:14Z</time></trkpt><trkpt lat="43.68541932077195" lon="11.463079357098636"><ele>134.0</ele><time>2026-04-29T23:23:15Z</time></trkpt><trkpt lat="43.68529847840522" lon="11.463220270405436"><ele>135.0</ele><time>2026-04-29T23:23:16Z</time></trkpt><trkpt lat="43.685171472029296" lon="11.463358105570867"><ele>135.0</ele><time>2026-04-29T23:23:17Z</time></trkpt><trkpt lat="43.68504221336799" lon="11.4634787543065"><ele>135.0</ele><time>2026-04-29T23:23:18Z</time></trkpt><trkpt lat="43.68490523091218" lon="11.46357416390525"><ele>135.0</ele><time>2026-04-29T23:23:19Z</time></trkpt><trkpt lat="43.68475468489766" lon="11.463652706943043"><ele>135.0</ele><time>2026-04-29T23:23:20Z</time></trkpt><trkpt lat="43.684597990797485" lon="11.463722845038225"><ele>135.0</ele><time>2026-04-29T23:23:21Z</time></trkpt><trkpt lat="43.6844411527143" lon="11.46376576011596"><ele>135.0</ele><time>2026-04-29T23:23:22Z</time></trkpt><trkpt lat="43.684265783368055" lon="11.463821631277412"><ele>140.0</ele><time>2026-04-29T23:23:23Z</time></trkpt><trkpt lat="43.68408279565195" lon="11.463839635090737"><ele>145.0</ele><time>2026-04-29T23:23:24Z</time></trkpt><trkpt lat="43.68390401399808" lon="11.463848540730815"><ele>150.0</ele><time>2026-04-29T23:23:25Z</time></trkpt><trkpt lat="43.68372599775028" lon="11.463867393934647"><ele>151.0</ele><time>2026-04-29T23:23:26Z</time></trkpt><trkpt lat="43.68354392535193" lon="11.463865177543344"><ele>152.0</ele><time>2026-04-29T23:23:27Z</time></trkpt><trkpt lat="43.68335985130775" lon="11.463876533012426"><ele>153.0</ele><time>2026-04-29T23:23:28Z</time></trkpt><trkpt lat="43.683168903720684" lon="11.463908277851937"><ele>153.0</ele><time>2026-04-29T23:23:29Z</time></trkpt><trkpt lat="43.68298056846439" lon="11.463895886108734"><ele>153.0</ele><time>2026-04-29T23:23:30Z</time></trkpt><trkpt lat="43.68279778717365" lon="11.46393004091503"><ele>153.0</ele><time>2026-04-29T23:23:31Z</time></trkpt><trkpt lat="43.682610648463296" lon="11.463937178893412"><ele>152.66666666666666</ele><time>2026-04-29T23:23:32Z</time></trkpt><trkpt lat="43.68242672882362" lon="11.463945975470397"><ele>152.33333333333331</ele><time>2026-04-29T23:23:33Z</time></trkpt><trkpt lat="43.68224179636322" lon="11.463957617747344"><ele>152.0</ele><time>2026-04-29T23:23:34Z</time></trkpt><trkpt lat="43.682052945118386" lon="11.463973879337866"><ele>152.66666666666666</ele><time>2026-04-29T23:23:35Z</time></trkpt><trkpt lat="43.68187508921621" lon="11.463996386925462"><ele>153.33333333333334</ele><time>2026-04-29T23:23:36Z</time></trkpt><trkpt lat="43.68169567480358" lon="11.46404348665424"><ele>154.0</ele><time>2026-04-29T23:23:37Z</time></trkpt><trkpt lat="43.68152635729434" lon="11.464121169153337"><ele>154.0</ele><time>2026-04-29T23:23:38Z</time></trkpt><trkpt lat="43.68135924022577" lon="11.464235263355231"><ele>154.0</ele><time>2026-04-29T23:23:39Z</time></trkpt><trkpt lat="43.68118303984702" lon="11.46432025913826"><ele>154.0</ele><time>2026-04-29T23:23:40Z</time></trkpt><trkpt lat="43.68101390998229" lon="11.464418179709227"><ele>154.66666666666669</ele><time>2026-04-29T23:23:41Z</time></trkpt><trkpt lat="43.6808511239315" lon="11.464505784873204"><ele>155.33333333333334</ele><time>2026-04-29T23:23:42Z</time></trkpt><trkpt lat="43.680704060585455" lon="11.464576122270175"><ele>156.0</ele><time>2026-04-29T23:23:43Z</time></trkpt><trkpt lat="43.680548297439024" lon="11.464626797122348"><ele>157.5</ele><time>2026-04-29T23:23:44Z</time></trkpt><trkpt lat="43.68039731195905" lon="11.46463761230381"><ele>159.0</ele><time>2026-04-29T23:23:45Z</time></trkpt><trkpt lat="43.68025912647373" lon="11.464615812377932"><ele>160.5</ele><time>2026-04-29T23:23:46Z</time></trkpt><trkpt lat="43.68014859321636" lon="11.464485105994985"><ele>162.0</ele><time>2026-04-29T23:23:47Z</time></trkpt><trkpt lat="43.680029785184495" lon="11.464353935444892"><ele>164.33333333333334</ele><time>2026-04-29T23:23:48Z</time></trkpt><trkpt lat="43.679926812938376" lon="11.46418062276026"><ele>166.66666666666669</ele><time>2026-04-29T23:23:49Z</time></trkpt><trkpt lat="43.679815898962005" lon="11.464018764554938"><ele>169.0</ele><time>2026-04-29T23:23:50Z</time></trkpt><trkpt lat="43.679696971856394" lon="11.463859575430533"><ele>166.33333333333334</ele><time>2026-04-29T23:23:51Z</time></trkpt><trkpt lat="43.679574942766905" lon="11.463699935094187"><ele>163.66666666666666</ele><time>2026-04-29T23:23:52Z</time></trkpt><trkpt lat="43.67945433681904" lon="11.46352507983723"><ele>161.0</ele><time>2026-04-29T23:23:53Z</time></trkpt><trkpt lat="43.67934776161787" lon="11.463333008662154"><ele>164.33333333333331</ele><time>2026-04-29T23:23:54Z</time></trkpt><trkpt lat="43.679264167956966" lon="11.463128167609222"><ele>167.66666666666666</ele><time>2026-04-29T23:23:55Z</time></trkpt><trkpt lat="43.6792007130227" lon="11.462914385205908"><ele>171.0</ele><time>2026-04-29T23:23:56Z</time></trkpt><trkpt lat="43.67914816581952" lon="11.462732505137067"><ele>171.0</ele><time>2026-04-29T23:23:57Z</time></trkpt><trkpt lat="43.67909175559783" lon="11.462583187212758"><ele>171.0</ele><time>2026-04-29T23:23:58Z</time></trkpt><trkpt lat="43.679021685385045" lon="11.462456609081592"><ele>171.0</ele><time>2026-04-29T23:23:59Z</time></trkpt><trkpt lat="43.67892978143256" lon="11.46237337670136"><ele>171.0</ele><time>2026-04-29T23:24:00Z</time></trkpt><trkpt lat="43.67880508825832" lon="11.462344484384536"><ele>171.0</ele><time>2026-04-29T23:24:01Z</time></trkpt><trkpt lat="43.67868149013516" lon="11.462374147875686"><ele>171.0</ele><time>2026-04-29T23:24:02Z</time></trkpt><trkpt lat="43.678575937046375" lon="11.462487558168704"><ele>171.0</ele><time>2026-04-29T23:24:03Z</time></trkpt><trkpt lat="43.6785044233145" lon="11.462642016051959"><ele>171.0</ele><time>2026-04-29T23:24:04Z</time></trkpt><trkpt lat="43.678458467378704" lon="11.462845405650059"><ele>172.66666666666666</ele><time>2026-04-29T23:24:05Z</time></trkpt><trkpt lat="43.67839561485558" lon="11.463029118973859"><ele>174.33333333333331</ele><time>2026-04-29T23:24:06Z</time></trkpt><trkpt lat="43.67834775130322" lon="11.463247597926118"><ele>176.0</ele><time>2026-04-29T23:24:07Z</time></trkpt><trkpt lat="43.67826799449195" lon="11.463409362540899"><ele>176.0</ele><time>2026-04-29T23:24:08Z</time></trkpt><trkpt lat="43.67819733868421" lon="11.463549471116224"><ele>176.0</ele><time>2026-04-29T23:24:09Z</time></trkpt><trkpt lat="43.67811278531168" lon="11.463652801779897"><ele>176.0</ele><time>2026-04-29T23:24:10Z</time></trkpt><trkpt lat="43.67799684553646" lon="11.46367906535149"><ele>176.0</ele><time>2026-04-29T23:24:11Z</time></trkpt><trkpt lat="43.67787704364174" lon="11.463667022657903"><ele>176.25</ele><time>2026-04-29T23:24:11.999Z</time></trkpt><trkpt lat="43.67775508159188" lon="11.46362439465051"><ele>176.5</ele><time>2026-04-29T23:24:12.999Z</time></trkpt><trkpt lat="43.67766321900779" lon="11.463545355815961"><ele>176.75</ele><time>2026-04-29T23:24:13.999Z</time></trkpt><trkpt lat="43.677595311156544" lon="11.463419622313872"><ele>177.0</ele><time>2026-04-29T23:24:14.999Z</time></trkpt><trkpt lat="43.6775989959571" lon="11.463226089915546"><ele>177.0</ele><time>2026-04-29T23:24:15.999Z</time></trkpt><trkpt lat="43.67757913005514" lon="11.463030336975436"><ele>177.0</ele><time>2026-04-29T23:24:16.999Z</time></trkpt><trkpt lat="43.677584021044076" lon="11.46281799280976"><ele>177.0</ele><time>2026-04-29T23:24:17.999Z</time></trkpt><trkpt lat="43.67757810400979" lon="11.462601542405706"><ele>176.66666666666666</ele><time>2026-04-29T23:24:18.999Z</time></trkpt><trkpt lat="43.67756753298453" lon="11.462379737633423"><ele>176.33333333333331</ele><time>2026-04-29T23:24:19.999Z</time></trkpt><trkpt lat="43.677550832501055" lon="11.462150290389316"><ele>176.0</ele><time>2026-04-29T23:24:20.999Z</time></trkpt><trkpt lat="43.67752603393602" lon="11.461899327138735"><ele>176.0</ele><time>2026-04-29T23:24:21.999Z</time></trkpt><trkpt lat="43.6775020949864" lon="11.461656411253893"><ele>176.0</ele><time>2026-04-29T23:24:22.999Z</time></trkpt><trkpt lat="43.67747379801723" lon="11.461420419687212"><ele>176.0</ele><time>2026-04-29T23:24:23.999Z</time></trkpt><trkpt lat="43.67744674873018" lon="11.46118164931746"><ele>175.0</ele><time>2026-04-29T23:24:24.999Z</time></trkpt><trkpt lat="43.67740642730325" lon="11.46094644506627"><ele>174.0</ele><time>2026-04-29T23:24:25.999Z</time></trkpt><trkpt lat="43.677331811401714" lon="11.460734981636685"><ele>173.0</ele><time>2026-04-29T23:24:26.999Z</time></trkpt><trkpt lat="43.677238172895954" lon="11.460532290821908"><ele>175.0</ele><time>2026-04-29T23:24:27.999Z</time></trkpt><trkpt lat="43.67713586122931" lon="11.46034558259447"><ele>177.0</ele><time>2026-04-29T23:24:28.999Z</time></trkpt><trkpt lat="43.6770525578219" lon="11.460190892544276"><ele>179.0</ele><time>2026-04-29T23:24:29.999Z</time></trkpt><trkpt lat="43.6769681324057" lon="11.460081610286748"><ele>181.0</ele><time>2026-04-29T23:24:30.999Z</time></trkpt><trkpt lat="43.67688337887741" lon="11.460002273266902"><ele>181.0</ele><time>2026-04-29T23:24:31.999Z</time></trkpt><trkpt lat="43.67675034270569" lon="11.460025464311602"><ele>181.0</ele><time>2026-04-29T23:24:32.999Z</time></trkpt><trkpt lat="43.676624017512026" lon="11.460112036093099"><ele>181.0</ele><time>2026-04-29T23:24:33.999Z</time></trkpt><trkpt lat="43.67651464025622" lon="11.460235184627445"><ele>181.0</ele><time>2026-04-29T23:24:34.999Z</time></trkpt><trkpt lat="43.676383139042095" lon="11.460319120935166"><ele>181.0</ele><time>2026-04-29T23:24:35.999Z</time></trkpt><trkpt lat="43.67625808745589" lon="11.46040480289761"><ele>181.0</ele><time>2026-04-29T23:24:36.999Z</time></trkpt><trkpt lat="43.67613249343784" lon="11.460427056638684"><ele>181.0</ele><time>2026-04-29T23:24:37.999Z</time></trkpt><trkpt lat="43.67600170151197" lon="11.460377126641877"><ele>181.0</ele><time>2026-04-29T23:24:38.999Z</time></trkpt><trkpt lat="43.67587515749387" lon="11.460274387265361"><ele>181.66666666666669</ele><time>2026-04-29T23:24:39.999Z</time></trkpt><trkpt lat="43.67573661407215" lon="11.460181486409935"><ele>182.33333333333334</ele><time>2026-04-29T23:24:40.999Z</time></trkpt><trkpt lat="43.67559218099911" lon="11.460130781352825"><ele>183.0</ele><time>2026-04-29T23:24:41.999Z</time></trkpt><trkpt lat="43.67544528971547" lon="11.460125550752807"><ele>183.0</ele><time>2026-04-29T23:24:42.999Z</time></trkpt><trkpt lat="43.675296456229766" lon="11.46017909513985"><ele>183.0</ele><time>2026-04-29T23:24:43.999Z</time></trkpt><trkpt lat="43.675158568112536" lon="11.460280366372658"><ele>183.0</ele><time>2026-04-29T23:24:44.999Z</time></trkpt><trkpt lat="43.67501147761243" lon="11.460323617789188"><ele>183.75</ele><time>2026-04-29T23:24:45.999Z</time></trkpt><trkpt lat="43.67486172018702" lon="11.460323488820787"><ele>184.5</ele><time>2026-04-29T23:24:46.999Z</time></trkpt><trkpt lat="43.6747441830735" lon="11.460242092341757"><ele>185.25</ele><time>2026-04-29T23:24:47.999Z</time></trkpt><trkpt lat="43.67464332364653" lon="11.460120030443667"><ele>186.0</ele><time>2026-04-29T23:24:48.999Z</time></trkpt><trkpt lat="43.674618309608896" lon="11.459955209052412"><ele>186.0</ele><time>2026-04-29T23:24:49.999Z</time></trkpt><trkpt lat="43.67459786557015" lon="11.459759960435264"><ele>186.0</ele><time>2026-04-29T23:24:50.999Z</time></trkpt><trkpt lat="43.67455805795508" lon="11.459566711064811"><ele>186.0</ele><time>2026-04-29T23:24:51.999Z</time></trkpt><trkpt lat="43.674491200484205" lon="11.459379648361939"><ele>186.0</ele><time>2026-04-29T23:24:52.999Z</time></trkpt><trkpt lat="43.67438469281444" lon="11.459209886428173"><ele>187.0</ele><time>2026-04-29T23:24:53.999Z</time></trkpt><trkpt lat="43.67426185498345" lon="11.459061402611365"><ele>188.0</ele><time>2026-04-29T23:24:54.999Z</time></trkpt><trkpt lat="43.6741190971531" lon="11.458933078460484"><ele>189.0</ele><time>2026-04-29T23:24:55.999Z</time></trkpt><trkpt lat="43.673969725258466" lon="11.458820478534683"><ele>189.0</ele><time>2026-04-29T23:24:56.999Z</time></trkpt><trkpt lat="43.67384014176085" lon="11.458678035756412"><ele>189.0</ele><time>2026-04-29T23:24:57.999Z</time></trkpt><trkpt lat="43.6737134705036" lon="11.458535485292686"><ele>189.0</ele><time>2026-04-29T23:24:58.999Z</time></trkpt><trkpt lat="43.6735797582891" lon="11.458384956711187"><ele>189.0</ele><time>2026-04-29T23:24:59.999Z</time></trkpt><trkpt lat="43.67346811492645" lon="11.458221285817785"><ele>189.0</ele><time>2026-04-29T23:25:00.999Z</time></trkpt><trkpt lat="43.67337443224688" lon="11.458072150726794"><ele>189.0</ele><time>2026-04-29T23:25:01.999Z</time></trkpt><trkpt lat="43.67327725565127" lon="11.457936908984005"><ele>189.0</ele><time>2026-04-29T23:25:02.999Z</time></trkpt><trkpt lat="43.673176435923104" lon="11.457834255839709"><ele>188.5</ele><time>2026-04-29T23:25:03.999Z</time></trkpt><trkpt lat="43.673073729889644" lon="11.457756302274241"><ele>188.0</ele><time>2026-04-29T23:25:04.999Z</time></trkpt><trkpt lat="43.67294780820251" lon="11.457778213909474"><ele>187.5</ele><time>2026-04-29T23:25:05.999Z</time></trkpt><trkpt lat="43.67282599549273" lon="11.457836154260345"><ele>187.0</ele><time>2026-04-29T23:25:06.999Z</time></trkpt><trkpt lat="43.67272221112973" lon="11.45795689511636"><ele>185.0</ele><time>2026-04-29T23:25:07.999Z</time></trkpt><trkpt lat="43.67265587826685" lon="11.458132103946863"><ele>183.0</ele><time>2026-04-29T23:25:08.999Z</time></trkpt><trkpt lat="43.672637626094684" lon="11.458324652996872"><ele>181.0</ele><time>2026-04-29T23:25:09.999Z</time></trkpt><trkpt lat="43.672673355416336" lon="11.458537370010813"><ele>179.0</ele><time>2026-04-29T23:25:11Z</time></trkpt><trkpt lat="43.67270263640701" lon="11.458754424418988"><ele>176.66666666666666</ele><time>2026-04-29T23:25:12Z</time></trkpt><trkpt lat="43.672735083415965" lon="11.458978096508341"><ele>174.33333333333334</ele><time>2026-04-29T23:25:13Z</time></trkpt><trkpt lat="43.67278686492398" lon="11.459176836339106"><ele>172.0</ele><time>2026-04-29T23:25:14Z</time></trkpt><trkpt lat="43.67283978119572" lon="11.45935258097518"><ele>172.66666666666669</ele><time>2026-04-29T23:25:15Z</time></trkpt><trkpt lat="43.67292045173945" lon="11.459510965529104"><ele>173.33333333333334</ele><time>2026-04-29T23:25:16Z</time></trkpt><trkpt lat="43.673036137775995" lon="11.459645644338767"><ele>174.0</ele><time>2026-04-29T23:25:17Z</time></trkpt><trkpt lat="43.67315118310295" lon="11.459798078939151"><ele>174.0</ele><time>2026-04-29T23:25:18Z</time></trkpt><trkpt lat="43.67327080784123" lon="11.459932386752415"><ele>174.0</ele><time>2026-04-29T23:25:19Z</time></trkpt><trkpt lat="43.67337651923409" lon="11.460054153049281"><ele>174.0</ele><time>2026-04-29T23:25:20Z</time></trkpt><trkpt lat="43.67347485564384" lon="11.460183085398384"><ele>174.0</ele><time>2026-04-29T23:25:21Z</time></trkpt><trkpt lat="43.67354136621948" lon="11.460327725543058"><ele>172.0</ele><time>2026-04-29T23:25:22Z</time></trkpt><trkpt lat="43.67358285729543" lon="11.460493773160476"><ele>170.0</ele><time>2026-04-29T23:25:23Z</time></trkpt><trkpt lat="43.673613660022596" lon="11.460664682822447"><ele>168.0</ele><time>2026-04-29T23:25:24Z</time></trkpt><trkpt lat="43.67362173627375" lon="11.460835722140828"><ele>166.0</ele><time>2026-04-29T23:25:25Z</time></trkpt><trkpt lat="43.67359073430231" lon="11.460987263316262"><ele>166.0</ele><time>2026-04-29T23:25:26Z</time></trkpt><trkpt lat="43.673544121341415" lon="11.461148254245016"><ele>166.0</ele><time>2026-04-29T23:25:27Z</time></trkpt><trkpt lat="43.673472255933504" lon="11.461308440125523"><ele>166.0</ele><time>2026-04-29T23:25:28Z</time></trkpt><trkpt lat="43.67339789739949" lon="11.461467561304966"><ele>166.0</ele><time>2026-04-29T23:25:29Z</time></trkpt><trkpt lat="43.67331521387925" lon="11.461594157326855"><ele>165.5</ele><time>2026-04-29T23:25:30Z</time></trkpt><trkpt lat="43.67321695711225" lon="11.461687010498501"><ele>165.0</ele><time>2026-04-29T23:25:31Z</time></trkpt><trkpt lat="43.6731030386388" lon="11.46173236808382"><ele>164.5</ele><time>2026-04-29T23:25:32Z</time></trkpt><trkpt lat="43.672962395457155" lon="11.461774940153308"><ele>164.0</ele><time>2026-04-29T23:25:33Z</time></trkpt><trkpt lat="43.67281672141314" lon="11.461820312176583"><ele>162.0</ele><time>2026-04-29T23:25:34Z</time></trkpt><trkpt lat="43.672683691642526" lon="11.461892746778616"><ele>160.0</ele><time>2026-04-29T23:25:35Z</time></trkpt><trkpt lat="43.67254908276011" lon="11.461964473076593"><ele>158.0</ele><time>2026-04-29T23:25:36Z</time></trkpt><trkpt lat="43.672418395464526" lon="11.46207720328505"><ele>156.0</ele><time>2026-04-29T23:25:37Z</time></trkpt><trkpt lat="43.672286225042065" lon="11.462204677742251"><ele>156.0</ele><time>2026-04-29T23:25:38Z</time></trkpt><trkpt lat="43.672158591998695" lon="11.4623468945672"><ele>156.0</ele><time>2026-04-29T23:25:39Z</time></trkpt><trkpt lat="43.6720244470645" lon="11.462437663596221"><ele>156.0</ele><time>2026-04-29T23:25:40Z</time></trkpt><trkpt lat="43.671896894471644" lon="11.462522358973986"><ele>154.5</ele><time>2026-04-29T23:25:41Z</time></trkpt><trkpt lat="43.67176682350446" lon="11.462578405285248"><ele>153.0</ele><time>2026-04-29T23:25:42Z</time></trkpt><trkpt lat="43.6716315905976" lon="11.46259625053007"><ele>151.5</ele><time>2026-04-29T23:25:43Z</time></trkpt><trkpt lat="43.6714856366327" lon="11.462586913182715"><ele>150.0</ele><time>2026-04-29T23:25:44Z</time></trkpt><trkpt lat="43.6713529631558" lon="11.46251667984316"><ele>150.0</ele><time>2026-04-29T23:25:45Z</time></trkpt><trkpt lat="43.671209605784156" lon="11.462460986147434"><ele>150.0</ele><time>2026-04-29T23:25:46Z</time></trkpt><trkpt lat="43.67107859229217" lon="11.46235080139055"><ele>150.0</ele><time>2026-04-29T23:25:47Z</time></trkpt><trkpt lat="43.67093327196171" lon="11.462255993259225"><ele>150.33333333333334</ele><time>2026-04-29T23:25:48Z</time></trkpt><trkpt lat="43.67078952917572" lon="11.462163415067748"><ele>150.66666666666669</ele><time>2026-04-29T23:25:49Z</time></trkpt><trkpt lat="43.67063642194121" lon="11.462065175008679"><ele>151.0</ele><time>2026-04-29T23:25:50Z</time></trkpt><trkpt lat="43.67049074977223" lon="11.461971673599741"><ele>148.0</ele><time>2026-04-29T23:25:51Z</time></trkpt><trkpt lat="43.67033885215142" lon="11.461901683202344"><ele>145.0</ele><time>2026-04-29T23:25:52Z</time></trkpt><trkpt lat="43.67019718661937" lon="11.461809716062922"><ele>142.0</ele><time>2026-04-29T23:25:53Z</time></trkpt><trkpt lat="43.670056938075" lon="11.461719551277428"><ele>141.75</ele><time>2026-04-29T23:25:54Z</time></trkpt><trkpt lat="43.66992029888301" lon="11.46163911759811"><ele>141.5</ele><time>2026-04-29T23:25:55Z</time></trkpt><trkpt lat="43.66978695993055" lon="11.461579055080994"><ele>141.25</ele><time>2026-04-29T23:25:56Z</time></trkpt><trkpt lat="43.669648751023196" lon="11.461543141053998"><ele>141.0</ele><time>2026-04-29T23:25:57Z</time></trkpt><trkpt lat="43.669514981760486" lon="11.461532277391465"><ele>139.75</ele><time>2026-04-29T23:25:58Z</time></trkpt><trkpt lat="43.66937928535476" lon="11.461554018530151"><ele>138.5</ele><time>2026-04-29T23:25:59Z</time></trkpt><trkpt lat="43.669235846520515" lon="11.461589174331179"><ele>137.25</ele><time>2026-04-29T23:26:00Z</time></trkpt><trkpt lat="43.66908981309048" lon="11.461646387675463"><ele>136.0</ele><time>2026-04-29T23:26:01Z</time></trkpt><trkpt lat="43.668947000332345" lon="11.461741764066769"><ele>136.0</ele><time>2026-04-29T23:26:02Z</time></trkpt><trkpt lat="43.668812602484465" lon="11.461855584692596"><ele>136.0</ele><time>2026-04-29T23:26:03Z</time></trkpt><trkpt lat="43.66868701412872" lon="11.461989440744398"><ele>136.0</ele><time>2026-04-29T23:26:04Z</time></trkpt><trkpt lat="43.668547204113025" lon="11.462116756702466"><ele>133.0</ele><time>2026-04-29T23:26:05Z</time></trkpt><trkpt lat="43.66841575176065" lon="11.462241851890017"><ele>130.0</ele><time>2026-04-29T23:26:06Z</time></trkpt><trkpt lat="43.66828361205152" lon="11.462333353555447"><ele>127.0</ele><time>2026-04-29T23:26:07Z</time></trkpt><trkpt lat="43.66814709136021" lon="11.462388875240642"><ele>127.0</ele><time>2026-04-29T23:26:07.999Z</time></trkpt><trkpt lat="43.668008496949724" lon="11.462413409661732"><ele>127.0</ele><time>2026-04-29T23:26:08.999Z</time></trkpt><trkpt lat="43.66785436972773" lon="11.462423262311466"><ele>127.0</ele><time>2026-04-29T23:26:09.999Z</time></trkpt><trkpt lat="43.66770535688444" lon="11.462395059639334"><ele>127.0</ele><time>2026-04-29T23:26:10.999Z</time></trkpt><trkpt lat="43.66755468256367" lon="11.46233926803852"><ele>126.33333333333334</ele><time>2026-04-29T23:26:11.999Z</time></trkpt><trkpt lat="43.667417267457644" lon="11.462249906635133"><ele>125.66666666666666</ele><time>2026-04-29T23:26:12.999Z</time></trkpt><trkpt lat="43.667269902474104" lon="11.46217171591114"><ele>125.0</ele><time>2026-04-29T23:26:13.999Z</time></trkpt><trkpt lat="43.66713935142043" lon="11.46205501775724"><ele>125.0</ele><time>2026-04-29T23:26:14.999Z</time></trkpt><trkpt lat="43.66700796589029" lon="11.4619397487217"><ele>125.0</ele><time>2026-04-29T23:26:15.999Z</time></trkpt><trkpt lat="43.66687947233617" lon="11.46182208902461"><ele>125.0</ele><time>2026-04-29T23:26:16.999Z</time></trkpt><trkpt lat="43.66676254063272" lon="11.461687195711686"><ele>128.66666666666666</ele><time>2026-04-29T23:26:17.999Z</time></trkpt><trkpt lat="43.66663519562566" lon="11.461573292027314"><ele>132.33333333333334</ele><time>2026-04-29T23:26:18.999Z</time></trkpt><trkpt lat="43.666508783612585" lon="11.461456866509979"><ele>136.0</ele><time>2026-04-29T23:26:19.999Z</time></trkpt><trkpt lat="43.66637313499524" lon="11.461360833702066"><ele>136.33333333333334</ele><time>2026-04-29T23:26:20.999Z</time></trkpt><trkpt lat="43.66625568445694" lon="11.461227438120046"><ele>136.66666666666666</ele><time>2026-04-29T23:26:21.999Z</time></trkpt><trkpt lat="43.666149040602896" lon="11.461079283986757"><ele>137.0</ele><time>2026-04-29T23:26:22.999Z</time></trkpt><trkpt lat="43.666053059647474" lon="11.460916311747917"><ele>138.5</ele><time>2026-04-29T23:26:23.999Z</time></trkpt><trkpt lat="43.66596095469773" lon="11.460746246744993"><ele>140.0</ele><time>2026-04-29T23:26:24.999Z</time></trkpt><trkpt lat="43.665867850281074" lon="11.46058793858303"><ele>141.5</ele><time>2026-04-29T23:26:25.999Z</time></trkpt><trkpt lat="43.665769778880644" lon="11.46046502172405"><ele>143.0</ele><time>2026-04-29T23:26:26.999Z</time></trkpt><trkpt lat="43.66567709145877" lon="11.4603698431851"><ele>143.0</ele><time>2026-04-29T23:26:27.999Z</time></trkpt><trkpt lat="43.66561885574074" lon="11.460264985612959"><ele>143.0</ele><time>2026-04-29T23:26:28.999Z</time></trkpt><trkpt lat="43.66556762113552" lon="11.460125192234107"><ele>143.0</ele><time>2026-04-29T23:26:29.999Z</time></trkpt><trkpt lat="43.66549722446033" lon="11.46002994726268"><ele>143.0</ele><time>2026-04-29T23:26:30.999Z</time></trkpt><trkpt lat="43.66555703585356" lon="11.4597889587092"><ele>142.25</ele><time>2026-04-29T23:26:31.999Z</time></trkpt><trkpt lat="43.66557334936291" lon="11.4596035555245"><ele>141.5</ele><time>2026-04-29T23:26:32.999Z</time></trkpt><trkpt lat="43.665559672733565" lon="11.459405095068705"><ele>140.75</ele><time>2026-04-29T23:26:33.999Z</time></trkpt><trkpt lat="43.66552541028574" lon="11.459207022041891"><ele>140.0</ele><time>2026-04-29T23:26:34.999Z</time></trkpt><trkpt lat="43.66547661560073" lon="11.459016867970792"><ele>140.0</ele><time>2026-04-29T23:26:35.999Z</time></trkpt><trkpt lat="43.66542138315647" lon="11.458828084587296"><ele>140.0</ele><time>2026-04-29T23:26:36.999Z</time></trkpt><trkpt lat="43.665361639960416" lon="11.458624026304948"><ele>140.0</ele><time>2026-04-29T23:26:37.999Z</time></trkpt><trkpt lat="43.66530787250046" lon="11.458416409597335"><ele>140.0</ele><time>2026-04-29T23:26:38.999Z</time></trkpt><trkpt lat="43.665250449166095" lon="11.458210794966542"><ele>140.0</ele><time>2026-04-29T23:26:39.999Z</time></trkpt><trkpt lat="43.66519027835464" lon="11.458003260218113"><ele>140.0</ele><time>2026-04-29T23:26:40.999Z</time></trkpt><trkpt lat="43.66512994560902" lon="11.45779414500959"><ele>140.0</ele><time>2026-04-29T23:26:41.999Z</time></trkpt><trkpt lat="43.665082885854986" lon="11.45758386458958"><ele>140.0</ele><time>2026-04-29T23:26:42.999Z</time></trkpt><trkpt lat="43.66500861214215" lon="11.457366664832431"><ele>140.0</ele><time>2026-04-29T23:26:43.999Z</time></trkpt><trkpt lat="43.66495572779286" lon="11.457153487507314"><ele>140.33333333333331</ele><time>2026-04-29T23:26:44.999Z</time></trkpt><trkpt lat="43.66489719400975" lon="11.456935553826382"><ele>140.66666666666666</ele><time>2026-04-29T23:26:45.999Z</time></trkpt><trkpt lat="43.66483917734041" lon="11.456724403370115"><ele>141.0</ele><time>2026-04-29T23:26:46.999Z</time></trkpt><trkpt lat="43.66478691778961" lon="11.456534878643849"><ele>141.0</ele><time>2026-04-29T23:26:47.999Z</time></trkpt><trkpt lat="43.66473410955581" lon="11.456356620928958"><ele>141.0</ele><time>2026-04-29T23:26:48.999Z</time></trkpt><trkpt lat="43.66470254039277" lon="11.4561877188409"><ele>141.0</ele><time>2026-04-29T23:26:49.999Z</time></trkpt><trkpt lat="43.66466050887496" lon="11.456037056379406"><ele>141.0</ele><time>2026-04-29T23:26:50.999Z</time></trkpt><trkpt lat="43.66461933085072" lon="11.455891949966432"><ele>141.0</ele><time>2026-04-29T23:26:51.999Z</time></trkpt><trkpt lat="43.66458017775706" lon="11.45575391753685"><ele>141.0</ele><time>2026-04-29T23:26:52.999Z</time></trkpt><trkpt lat="43.66453803265771" lon="11.455600917172786"><ele>141.0</ele><time>2026-04-29T23:26:53.999Z</time></trkpt><trkpt lat="43.66447104018963" lon="11.455448095567768"><ele>141.0</ele><time>2026-04-29T23:26:54.999Z</time></trkpt><trkpt lat="43.66443734004473" lon="11.45525984513485"><ele>141.5</ele><time>2026-04-29T23:26:55.999Z</time></trkpt><trkpt lat="43.664391696024886" lon="11.45506815364018"><ele>142.0</ele><time>2026-04-29T23:26:56.999Z</time></trkpt><trkpt lat="43.66434739427984" lon="11.454886237636922"><ele>142.5</ele><time>2026-04-29T23:26:57.999Z</time></trkpt><trkpt lat="43.66430660858867" lon="11.454699663271114"><ele>143.0</ele><time>2026-04-29T23:26:58.999Z</time></trkpt><trkpt lat="43.66426830284544" lon="11.454499336022053"><ele>144.0</ele><time>2026-04-29T23:26:59.999Z</time></trkpt><trkpt lat="43.664243759266334" lon="11.454284879235058"><ele>145.0</ele><time>2026-04-29T23:27:00.999Z</time></trkpt><trkpt lat="43.66420955246312" lon="11.454071282484867"><ele>146.0</ele><time>2026-04-29T23:27:01.999Z</time></trkpt><trkpt lat="43.6641623422676" lon="11.453864574551726"><ele>146.66666666666666</ele><time>2026-04-29T23:27:02.999Z</time></trkpt><trkpt lat="43.66410899276746" lon="11.453656025426316"><ele>147.33333333333334</ele><time>2026-04-29T23:27:03.999Z</time></trkpt><trkpt lat="43.66404693889597" lon="11.453439605901561"><ele>148.0</ele><time>2026-04-29T23:27:04.999Z</time></trkpt><trkpt lat="43.66398030676085" lon="11.453241933949895"><ele>148.0</ele><time>2026-04-29T23:27:05.999Z</time></trkpt><trkpt lat="43.66389704626461" lon="11.453030589378752"><ele>148.0</ele><time>2026-04-29T23:27:06.999Z</time></trkpt><trkpt lat="43.66380950298279" lon="11.452828426554904"><ele>148.0</ele><time>2026-04-29T23:27:07.999Z</time></trkpt><trkpt lat="43.663718855712226" lon="11.45263568115699"><ele>143.33333333333334</ele><time>2026-04-29T23:27:08.999Z</time></trkpt><trkpt lat="43.66361341251983" lon="11.452474423964773"><ele>138.66666666666666</ele><time>2026-04-29T23:27:09.999Z</time></trkpt><trkpt lat="43.663477734991176" lon="11.452344163808656"><ele>134.0</ele><time>2026-04-29T23:27:10.999Z</time></trkpt><trkpt lat="43.66332594355108" lon="11.452238795622513"><ele>134.0</ele><time>2026-04-29T23:27:11.999Z</time></trkpt><trkpt lat="43.66316229603568" lon="11.452147171758131"><ele>134.0</ele><time>2026-04-29T23:27:12.999Z</time></trkpt><trkpt lat="43.66299572747095" lon="11.45206777717135"><ele>134.0</ele><time>2026-04-29T23:27:13.999Z</time></trkpt><trkpt lat="43.662829820919036" lon="11.451993557037094"><ele>132.66666666666666</ele><time>2026-04-29T23:27:14.999Z</time></trkpt><trkpt lat="43.662656508570734" lon="11.451938287283918"><ele>131.33333333333334</ele><time>2026-04-29T23:27:16Z</time></trkpt><trkpt lat="43.66248087116793" lon="11.451903804844898"><ele>130.0</ele><time>2026-04-29T23:27:17Z</time></trkpt><trkpt lat="43.6623004038724" lon="11.451872101081792"><ele>130.0</ele><time>2026-04-29T23:27:18Z</time></trkpt><trkpt lat="43.66211831216348" lon="11.45183416050072"><ele>130.0</ele><time>2026-04-29T23:27:19Z</time></trkpt><trkpt lat="43.66193476282385" lon="11.451778367662373"><ele>130.0</ele><time>2026-04-29T23:27:20Z</time></trkpt><trkpt lat="43.66176399537681" lon="11.451718683771011"><ele>129.33333333333334</ele><time>2026-04-29T23:27:21Z</time></trkpt><trkpt lat="43.66159614463395" lon="11.451637795956326"><ele>128.66666666666666</ele><time>2026-04-29T23:27:22Z</time></trkpt><trkpt lat="43.66143071945524" lon="11.451551949500109"><ele>128.0</ele><time>2026-04-29T23:27:23Z</time></trkpt><trkpt lat="43.66127202582322" lon="11.451464565145027"><ele>126.66666666666666</ele><time>2026-04-29T23:27:24Z</time></trkpt><trkpt lat="43.66110952102506" lon="11.45137966416609"><ele>125.33333333333334</ele><time>2026-04-29T23:27:25Z</time></trkpt><trkpt lat="43.66094403999229" lon="11.451305149192422"><ele>124.0</ele><time>2026-04-29T23:27:26Z</time></trkpt><trkpt lat="43.66077749134094" lon="11.451239794284962"><ele>124.0</ele><time>2026-04-29T23:27:27Z</time></trkpt><trkpt lat="43.66060897325339" lon="11.45118441340941"><ele>124.0</ele><time>2026-04-29T23:27:28Z</time></trkpt><trkpt lat="43.660443307739044" lon="11.451128530708084"><ele>124.0</ele><time>2026-04-29T23:27:29Z</time></trkpt><trkpt lat="43.66027479891977" lon="11.451070524030467"><ele>122.0</ele><time>2026-04-29T23:27:30Z</time></trkpt><trkpt lat="43.66011220665773" lon="11.451010690236108"><ele>120.0</ele><time>2026-04-29T23:27:31Z</time></trkpt><trkpt lat="43.65994546976286" lon="11.450947776643266"><ele>118.0</ele><time>2026-04-29T23:27:32Z</time></trkpt><trkpt lat="43.6597821674497" lon="11.450883288903073"><ele>118.0</ele><time>2026-04-29T23:27:33Z</time></trkpt><trkpt lat="43.659612341244426" lon="11.450815900590458"><ele>118.0</ele><time>2026-04-29T23:27:34Z</time></trkpt><trkpt lat="43.659443650442775" lon="11.450753513947882"><ele>118.0</ele><time>2026-04-29T23:27:35Z</time></trkpt><trkpt lat="43.659272054903944" lon="11.450697243674634"><ele>118.0</ele><time>2026-04-29T23:27:36Z</time></trkpt><trkpt lat="43.65909958915852" lon="11.450635853655934"><ele>118.0</ele><time>2026-04-29T23:27:37Z</time></trkpt><trkpt lat="43.658925647260176" lon="11.450569923363952"><ele>118.0</ele><time>2026-04-29T23:27:38Z</time></trkpt><trkpt lat="43.65875295118831" lon="11.450508137952935"><ele>118.33333333333334</ele><time>2026-04-29T23:27:39Z</time></trkpt><trkpt lat="43.65858369551804" lon="11.450443700256747"><ele>118.66666666666666</ele><time>2026-04-29T23:27:40Z</time></trkpt><trkpt lat="43.65841010134588" lon="11.4503807313613"><ele>119.0</ele><time>2026-04-29T23:27:41Z</time></trkpt><trkpt lat="43.658239404515804" lon="11.450325971979773"><ele>119.0</ele><time>2026-04-29T23:27:42Z</time></trkpt><trkpt lat="43.65806782988572" lon="11.450266719158986"><ele>119.0</ele><time>2026-04-29T23:27:43Z</time></trkpt><trkpt lat="43.65790127249092" lon="11.450205532791312"><ele>119.0</ele><time>2026-04-29T23:27:44Z</time></trkpt><trkpt lat="43.657734884405315" lon="11.450145345635779"><ele>119.66666666666666</ele><time>2026-04-29T23:27:45Z</time></trkpt><trkpt lat="43.657573369723636" lon="11.450084456701349"><ele>120.33333333333334</ele><time>2026-04-29T23:27:46Z</time></trkpt><trkpt lat="43.6574222441889" lon="11.450030689645345"><ele>121.0</ele><time>2026-04-29T23:27:47Z</time></trkpt><trkpt lat="43.657286826780954" lon="11.449986034817165"><ele>121.0</ele><time>2026-04-29T23:27:48Z</time></trkpt><trkpt lat="43.65715540367429" lon="11.449938324549107"><ele>121.0</ele><time>2026-04-29T23:27:49Z</time></trkpt><trkpt lat="43.65703800550449" lon="11.449893700168328"><ele>121.0</ele><time>2026-04-29T23:27:50Z</time></trkpt><trkpt lat="43.65691945617918" lon="11.449850615975311"><ele>121.0</ele><time>2026-04-29T23:27:51Z</time></trkpt><trkpt lat="43.656797249017366" lon="11.449814419172267"><ele>121.25</ele><time>2026-04-29T23:27:52Z</time></trkpt><trkpt lat="43.65667320729576" lon="11.449776910192357"><ele>121.5</ele><time>2026-04-29T23:27:53Z</time></trkpt><trkpt lat="43.6565505620159" lon="11.449737453658518"><ele>121.75</ele><time>2026-04-29T23:27:54Z</time></trkpt><trkpt lat="43.656428198826106" lon="11.449690912996985"><ele>122.0</ele><time>2026-04-29T23:27:55Z</time></trkpt><trkpt lat="43.65630957798471" lon="11.449651353636177"><ele>122.0</ele><time>2026-04-29T23:27:56Z</time></trkpt><trkpt lat="43.6561855458622" lon="11.449631798910906"><ele>122.0</ele><time>2026-04-29T23:27:57Z</time></trkpt><trkpt lat="43.656050781461914" lon="11.449640558146871"><ele>122.0</ele><time>2026-04-29T23:27:58Z</time></trkpt><trkpt lat="43.65591748794892" lon="11.449671781459589"><ele>122.0</ele><time>2026-04-29T23:27:59Z</time></trkpt><trkpt lat="43.65578306247676" lon="11.449697833215174"><ele>122.25</ele><time>2026-04-29T23:28:00Z</time></trkpt><trkpt lat="43.655641383040575" lon="11.44973603071051"><ele>122.5</ele><time>2026-04-29T23:28:01Z</time></trkpt><trkpt lat="43.655500824128985" lon="11.449777709968187"><ele>122.75</ele><time>2026-04-29T23:28:01.999Z</time></trkpt><trkpt lat="43.65536377464517" lon="11.449816098589881"><ele>123.0</ele><time>2026-04-29T23:28:02.999Z</time></trkpt><trkpt lat="43.655227212727496" lon="11.449867250792531"><ele>123.0</ele><time>2026-04-29T23:28:03.999Z</time></trkpt><trkpt lat="43.655089884367236" lon="11.449928407505997"><ele>123.0</ele><time>2026-04-29T23:28:04.999Z</time></trkpt><trkpt lat="43.65495680483605" lon="11.449996330135688"><ele>123.0</ele><time>2026-04-29T23:28:05.999Z</time></trkpt><trkpt lat="43.654837854504486" lon="11.45008716328803"><ele>123.0</ele><time>2026-04-29T23:28:06.999Z</time></trkpt><trkpt lat="43.654722565839" lon="11.450189594322318"><ele>123.0</ele><time>2026-04-29T23:28:07.999Z</time></trkpt><trkpt lat="43.654603968539305" lon="11.450289477555245"><ele>123.0</ele><time>2026-04-29T23:28:08.999Z</time></trkpt><trkpt lat="43.654472113714604" lon="11.450378295329838"><ele>123.0</ele><time>2026-04-29T23:28:09.999Z</time></trkpt><trkpt lat="43.65435240359905" lon="11.450472655220844"><ele>123.0</ele><time>2026-04-29T23:28:10.999Z</time></trkpt><trkpt lat="43.654236028646956" lon="11.450566041559476"><ele>123.0</ele><time>2026-04-29T23:28:11.999Z</time></trkpt><trkpt lat="43.654129223817904" lon="11.450649924129372"><ele>123.00000000000001</ele><time>2026-04-29T23:28:12.999Z</time></trkpt><trkpt lat="43.65403112270101" lon="11.450723875243899"><ele>123.00000000000001</ele><time>2026-04-29T23:28:13.999Z</time></trkpt><trkpt lat="43.653943429991216" lon="11.450786665655032"><ele>123.0</ele><time>2026-04-29T23:28:14.999Z</time></trkpt><trkpt lat="43.653860188976694" lon="11.450841901284104"><ele>123.0</ele><time>2026-04-29T23:28:15.999Z</time></trkpt><trkpt lat="43.65376832825542" lon="11.45087911238944"><ele>123.0</ele><time>2026-04-29T23:28:16.999Z</time></trkpt><trkpt lat="43.653664117155266" lon="11.45090350309619"><ele>123.0</ele><time>2026-04-29T23:28:17.999Z</time></trkpt><trkpt lat="43.653557065302486" lon="11.45094946298365"><ele>123.0</ele><time>2026-04-29T23:28:18.999Z</time></trkpt><trkpt lat="43.653453606968945" lon="11.45103944261895"><ele>123.0</ele><time>2026-04-29T23:28:19.999Z</time></trkpt><trkpt lat="43.65333514636848" lon="11.451098722170322"><ele>122.75</ele><time>2026-04-29T23:28:20.999Z</time></trkpt><trkpt lat="43.653203390532724" lon="11.45115835007189"><ele>122.5</ele><time>2026-04-29T23:28:21.999Z</time></trkpt><trkpt lat="43.65306997103244" lon="11.45121275178926"><ele>122.25</ele><time>2026-04-29T23:28:22.999Z</time></trkpt><trkpt lat="43.65293342937012" lon="11.451272735104459"><ele>122.0</ele><time>2026-04-29T23:28:23.999Z</time></trkpt><trkpt lat="43.6527899032019" lon="11.451295846241022"><ele>121.66666666666666</ele><time>2026-04-29T23:28:24.999Z</time></trkpt><trkpt lat="43.652645640523986" lon="11.451351399875684"><ele>121.33333333333334</ele><time>2026-04-29T23:28:25.999Z</time></trkpt><trkpt lat="43.65249205431495" lon="11.451378145454571"><ele>121.0</ele><time>2026-04-29T23:28:26.999Z</time></trkpt><trkpt lat="43.652337001203044" lon="11.45139419028091"><ele>121.0</ele><time>2026-04-29T23:28:27.999Z</time></trkpt><trkpt lat="43.65217989704634" lon="11.451411587941877"><ele>121.0</ele><time>2026-04-29T23:28:28.999Z</time></trkpt><trkpt lat="43.652019495607846" lon="11.451432138424266"><ele>121.0</ele><time>2026-04-29T23:28:29.999Z</time></trkpt><trkpt lat="43.65186160493301" lon="11.451423639151832"><ele>121.66666666666667</ele><time>2026-04-29T23:28:30.999Z</time></trkpt><trkpt lat="43.65170876936384" lon="11.451448608452454"><ele>122.33333333333334</ele><time>2026-04-29T23:28:31.999Z</time></trkpt><trkpt lat="43.65156334288605" lon="11.451406537580311"><ele>123.0</ele><time>2026-04-29T23:28:32.999Z</time></trkpt><trkpt lat="43.65141535506142" lon="11.45138884684145"><ele>123.0</ele><time>2026-04-29T23:28:33.999Z</time></trkpt><trkpt lat="43.65128645104764" lon="11.451309112646559"><ele>123.0</ele><time>2026-04-29T23:28:34.999Z</time></trkpt><trkpt lat="43.65115686708291" lon="11.451247734691373"><ele>123.0</ele><time>2026-04-29T23:28:35.999Z</time></trkpt><trkpt lat="43.65102658463433" lon="11.451202487978803"><ele>123.0</ele><time>2026-04-29T23:28:36.999Z</time></trkpt><trkpt lat="43.650906056367425" lon="11.451138063846575"><ele>123.5</ele><time>2026-04-29T23:28:37.999Z</time></trkpt><trkpt lat="43.65078284398404" lon="11.451094736470669"><ele>124.0</ele><time>2026-04-29T23:28:38.999Z</time></trkpt><trkpt lat="43.65065268208481" lon="11.451073278418084"><ele>124.5</ele><time>2026-04-29T23:28:39.999Z</time></trkpt><trkpt lat="43.6505115804081" lon="11.451067869315295"><ele>125.0</ele><time>2026-04-29T23:28:40.999Z</time></trkpt><trkpt lat="43.65037048467222" lon="11.45106921803375"><ele>124.0</ele><time>2026-04-29T23:28:41.999Z</time></trkpt><trkpt lat="43.650223467025214" lon="11.451088381846604"><ele>123.0</ele><time>2026-04-29T23:28:42.999Z</time></trkpt><trkpt lat="43.650071211455206" lon="11.451075438981588"><ele>122.0</ele><time>2026-04-29T23:28:43.999Z</time></trkpt><trkpt lat="43.64991444765831" lon="11.451082452181288"><ele>122.0</ele><time>2026-04-29T23:28:44.999Z</time></trkpt><trkpt lat="43.649761784643" lon="11.451111617830238"><ele>122.0</ele><time>2026-04-29T23:28:45.999Z</time></trkpt><trkpt lat="43.649607238439884" lon="11.451108564833483"><ele>122.0</ele><time>2026-04-29T23:28:46.999Z</time></trkpt><trkpt lat="43.64945856153663" lon="11.451093242614913"><ele>121.66666666666666</ele><time>2026-04-29T23:28:47.999Z</time></trkpt><trkpt lat="43.64931049083825" lon="11.451063598553864"><ele>121.33333333333334</ele><time>2026-04-29T23:28:48.999Z</time></trkpt><trkpt lat="43.64916491479053" lon="11.451024901309106"><ele>121.0</ele><time>2026-04-29T23:28:49.999Z</time></trkpt><trkpt lat="43.649010615277355" lon="11.450985211422068"><ele>121.0</ele><time>2026-04-29T23:28:50.999Z</time></trkpt><trkpt lat="43.6488481626916" lon="11.450944857264698"><ele>121.0</ele><time>2026-04-29T23:28:51.999Z</time></trkpt><trkpt lat="43.64869291721683" lon="11.45091113582267"><ele>121.0</ele><time>2026-04-29T23:28:52.999Z</time></trkpt><trkpt lat="43.64853575749375" lon="11.450878075627923"><ele>121.33333333333334</ele><time>2026-04-29T23:28:53.999Z</time></trkpt><trkpt lat="43.648367642566946" lon="11.45084140380545"><ele>121.66666666666666</ele><time>2026-04-29T23:28:54.999Z</time></trkpt><trkpt lat="43.6482047902023" lon="11.450813353262816"><ele>122.0</ele><time>2026-04-29T23:28:55.999Z</time></trkpt><trkpt lat="43.648033840318355" lon="11.45081153729745"><ele>122.0</ele><time>2026-04-29T23:28:56.999Z</time></trkpt><trkpt lat="43.647866475490346" lon="11.450815491259238"><ele>122.0</ele><time>2026-04-29T23:28:57.999Z</time></trkpt><trkpt lat="43.64769780538659" lon="11.450829522131265"><ele>122.0</ele><time>2026-04-29T23:28:58.999Z</time></trkpt><trkpt lat="43.647529332590345" lon="11.450845179506857"><ele>122.0</ele><time>2026-04-29T23:28:59.999Z</time></trkpt><trkpt lat="43.647356369769355" lon="11.450862712453699"><ele>122.0</ele><time>2026-04-29T23:29:00.999Z</time></trkpt><trkpt lat="43.64718191887168" lon="11.450880396543532"><ele>122.0</ele><time>2026-04-29T23:29:01.999Z</time></trkpt><trkpt lat="43.6470078767427" lon="11.450943713198406"><ele>122.0</ele><time>2026-04-29T23:29:02.999Z</time></trkpt><trkpt lat="43.64683598423599" lon="11.450977367472449"><ele>122.0</ele><time>2026-04-29T23:29:03.999Z</time></trkpt><trkpt lat="43.64666408105916" lon="11.451022647191511"><ele>122.0</ele><time>2026-04-29T23:29:04.999Z</time></trkpt><trkpt lat="43.646490569999145" lon="11.451071190515016"><ele>122.0</ele><time>2026-04-29T23:29:05.999Z</time></trkpt><trkpt lat="43.646319864069824" lon="11.451114922201505"><ele>122.0</ele><time>2026-04-29T23:29:06.999Z</time></trkpt><trkpt lat="43.646150189074234" lon="11.451157490382373"><ele>122.0</ele><time>2026-04-29T23:29:07.999Z</time></trkpt><trkpt lat="43.64598324836251" lon="11.451197398760334"><ele>122.66666666666666</ele><time>2026-04-29T23:29:08.999Z</time></trkpt><trkpt lat="43.64581795773978" lon="11.451240396102278"><ele>123.33333333333334</ele><time>2026-04-29T23:29:09.999Z</time></trkpt><trkpt lat="43.6456499349672" lon="11.451290330721447"><ele>124.0</ele><time>2026-04-29T23:29:10.999Z</time></trkpt><trkpt lat="43.64548988291763" lon="11.451339853404658"><ele>123.0</ele><time>2026-04-29T23:29:11.999Z</time></trkpt><trkpt lat="43.64533425648171" lon="11.451387897164633"><ele>122.0</ele><time>2026-04-29T23:29:12.999Z</time></trkpt><trkpt lat="43.64517433122861" lon="11.451438372715161"><ele>121.0</ele><time>2026-04-29T23:29:13.999Z</time></trkpt><trkpt lat="43.645021065407185" lon="11.451505374200243"><ele>121.0</ele><time>2026-04-29T23:29:14.999Z</time></trkpt><trkpt lat="43.64486135858342" lon="11.451579629135276"><ele>121.0</ele><time>2026-04-29T23:29:15.999Z</time></trkpt><trkpt lat="43.64470832999562" lon="11.45165925207365"><ele>121.0</ele><time>2026-04-29T23:29:16.999Z</time></trkpt><trkpt lat="43.644550419214255" lon="11.451745546454779"><ele>121.66666666666667</ele><time>2026-04-29T23:29:17.999Z</time></trkpt><trkpt lat="43.64439585100982" lon="11.451824568137873"><ele>122.33333333333334</ele><time>2026-04-29T23:29:18.999Z</time></trkpt><trkpt lat="43.64423507719343" lon="11.451906103796052"><ele>123.0</ele><time>2026-04-29T23:29:19.999Z</time></trkpt><trkpt lat="43.6440732216973" lon="11.451985664987594"><ele>123.0</ele><time>2026-04-29T23:29:20.999Z</time></trkpt><trkpt lat="43.64391168873324" lon="11.452065767578818"><ele>123.0</ele><time>2026-04-29T23:29:22Z</time></trkpt><trkpt lat="43.64375923586333" lon="11.452142259125505"><ele>123.0</ele><time>2026-04-29T23:29:23Z</time></trkpt><trkpt lat="43.64361387091046" lon="11.452206906073988"><ele>122.33333333333334</ele><time>2026-04-29T23:29:24Z</time></trkpt><trkpt lat="43.64345746906869" lon="11.452259238457138"><ele>121.66666666666667</ele><time>2026-04-29T23:29:25Z</time></trkpt><trkpt lat="43.64329210588624" lon="11.452303707507705"><ele>121.0</ele><time>2026-04-29T23:29:26Z</time></trkpt><trkpt lat="43.64312766418663" lon="11.452342806100114"><ele>121.0</ele><time>2026-04-29T23:29:27Z</time></trkpt><trkpt lat="43.6429579902448" lon="11.452370298432974"><ele>121.0</ele><time>2026-04-29T23:29:28Z</time></trkpt><trkpt lat="43.64279378755704" lon="11.452360716991434"><ele>121.0</ele><time>2026-04-29T23:29:29Z</time></trkpt><trkpt lat="43.64264804832341" lon="11.452385197270132"><ele>121.25</ele><time>2026-04-29T23:29:30Z</time></trkpt><trkpt lat="43.642511221487815" lon="11.452386788877737"><ele>121.5</ele><time>2026-04-29T23:29:31Z</time></trkpt><trkpt lat="43.642376707126964" lon="11.452394274942725"><ele>121.75</ele><time>2026-04-29T23:29:32Z</time></trkpt><trkpt lat="43.64225721354635" lon="11.452383109402385"><ele>122.0</ele><time>2026-04-29T23:29:33Z</time></trkpt><trkpt lat="43.64214783048031" lon="11.452441792224093"><ele>122.0</ele><time>2026-04-29T23:29:34Z</time></trkpt><trkpt lat="43.64203541054184" lon="11.452481933105096"><ele>122.0</ele><time>2026-04-29T23:29:35Z</time></trkpt><trkpt lat="43.64192109751563" lon="11.452477078960582"><ele>122.0</ele><time>2026-04-29T23:29:36Z</time></trkpt><trkpt lat="43.64181464534468" lon="11.452423664790079"><ele>122.0</ele><time>2026-04-29T23:29:37Z</time></trkpt><trkpt lat="43.641701972389654" lon="11.452345468510138"><ele>121.75</ele><time>2026-04-29T23:29:38Z</time></trkpt><trkpt lat="43.641577577111626" lon="11.452277193614018"><ele>121.5</ele><time>2026-04-29T23:29:39Z</time></trkpt><trkpt lat="43.641448135685934" lon="11.45219013917625"><ele>121.25</ele><time>2026-04-29T23:29:40Z</time></trkpt><trkpt lat="43.64132042424015" lon="11.452084877324083"><ele>121.0</ele><time>2026-04-29T23:29:41Z</time></trkpt><trkpt lat="43.64120323959724" lon="11.451973047889009"><ele>121.33333333333334</ele><time>2026-04-29T23:29:42Z</time></trkpt><trkpt lat="43.641071713094966" lon="11.45187932466398"><ele>121.66666666666666</ele><time>2026-04-29T23:29:43Z</time></trkpt><trkpt lat="43.640921754589066" lon="11.45180917657082"><ele>122.0</ele><time>2026-04-29T23:29:44Z</time></trkpt><trkpt lat="43.6407700194603" lon="11.451751574799745"><ele>122.0</ele><time>2026-04-29T23:29:45Z</time></trkpt><trkpt lat="43.64061716393566" lon="11.451705276066543"><ele>122.0</ele><time>2026-04-29T23:29:46Z</time></trkpt><trkpt lat="43.64046028539483" lon="11.451663388950822"><ele>122.0</ele><time>2026-04-29T23:29:47Z</time></trkpt><trkpt lat="43.64030521553904" lon="11.45162619495664"><ele>123.0</ele><time>2026-04-29T23:29:48Z</time></trkpt><trkpt lat="43.64014676868225" lon="11.451609869917949"><ele>124.0</ele><time>2026-04-29T23:29:49Z</time></trkpt><trkpt lat="43.639996236355294" lon="11.451631037913584"><ele>125.0</ele><time>2026-04-29T23:29:50Z</time></trkpt><trkpt lat="43.63984368096332" lon="11.451674148158027"><ele>125.0</ele><time>2026-04-29T23:29:51Z</time></trkpt><trkpt lat="43.639696308161106" lon="11.45173731839865"><ele>125.0</ele><time>2026-04-29T23:29:52Z</time></trkpt><trkpt lat="43.639555351917" lon="11.451843796826259"><ele>125.0</ele><time>2026-04-29T23:29:53Z</time></trkpt><trkpt lat="43.639414827003534" lon="11.451976826062653"><ele>124.66666666666666</ele><time>2026-04-29T23:29:54Z</time></trkpt><trkpt lat="43.6392735445408" lon="11.452106016550015"><ele>124.33333333333334</ele><time>2026-04-29T23:29:55Z</time></trkpt><trkpt lat="43.6391278150202" lon="11.452234542333663"><ele>124.0</ele><time>2026-04-29T23:29:56Z</time></trkpt><trkpt lat="43.638985059512976" lon="11.45235587014589"><ele>123.0</ele><time>2026-04-29T23:29:57Z</time></trkpt><trkpt lat="43.638841409700824" lon="11.452472097207517"><ele>122.0</ele><time>2026-04-29T23:29:58Z</time></trkpt><trkpt lat="43.63870125281899" lon="11.452585031831875"><ele>121.0</ele><time>2026-04-29T23:29:59Z</time></trkpt><trkpt lat="43.63855747935658" lon="11.452706680719912"><ele>121.0</ele><time>2026-04-29T23:30:00Z</time></trkpt><trkpt lat="43.6384238352437" lon="11.452828213353726"><ele>121.0</ele><time>2026-04-29T23:30:01Z</time></trkpt><trkpt lat="43.638292362638786" lon="11.452960704165038"><ele>121.0</ele><time>2026-04-29T23:30:02Z</time></trkpt><trkpt lat="43.638156229129194" lon="11.453087323846175"><ele>121.0</ele><time>2026-04-29T23:30:03Z</time></trkpt><trkpt lat="43.638004292744164" lon="11.453191583769554"><ele>121.0</ele><time>2026-04-29T23:30:04Z</time></trkpt><trkpt lat="43.637862412962726" lon="11.453318164200844"><ele>121.0</ele><time>2026-04-29T23:30:05Z</time></trkpt><trkpt lat="43.637721475371094" lon="11.453445414041246"><ele>120.0</ele><time>2026-04-29T23:30:06Z</time></trkpt><trkpt lat="43.637586078775" lon="11.453595324902821"><ele>119.0</ele><time>2026-04-29T23:30:06.999Z</time></trkpt><trkpt lat="43.63743437899135" lon="11.453712208298407"><ele>118.0</ele><time>2026-04-29T23:30:07.999Z</time></trkpt><trkpt lat="43.63730126773651" lon="11.453869445178482"><ele>117.66666666666667</ele><time>2026-04-29T23:30:08.999Z</time></trkpt><trkpt lat="43.63715612987242" lon="11.454000129366879"><ele>117.33333333333334</ele><time>2026-04-29T23:30:09.999Z</time></trkpt><trkpt lat="43.637012967228586" lon="11.454116958642985"><ele>117.0</ele><time>2026-04-29T23:30:10.999Z</time></trkpt><trkpt lat="43.63687121011055" lon="11.45423677363554"><ele>117.66666666666666</ele><time>2026-04-29T23:30:11.999Z</time></trkpt><trkpt lat="43.636731103883946" lon="11.45436517815538"><ele>118.33333333333333</ele><time>2026-04-29T23:30:12.999Z</time></trkpt><trkpt lat="43.63658754936432" lon="11.454464194608638"><ele>119.0</ele><time>2026-04-29T23:30:13.999Z</time></trkpt><trkpt lat="43.63644667150742" lon="11.454590591169016"><ele>119.0</ele><time>2026-04-29T23:30:14.999Z</time></trkpt><trkpt lat="43.63632462231117" lon="11.45472965300176"><ele>119.0</ele><time>2026-04-29T23:30:15.999Z</time></trkpt><trkpt lat="43.636179191052214" lon="11.45485488549205"><ele>119.0</ele><time>2026-04-29T23:30:16.999Z</time></trkpt><trkpt lat="43.636045666902156" lon="11.454967772582993"><ele>119.0</ele><time>2026-04-29T23:30:17.999Z</time></trkpt><trkpt lat="43.63592023941307" lon="11.4550832202841"><ele>119.0</ele><time>2026-04-29T23:30:18.999Z</time></trkpt><trkpt lat="43.63579373921752" lon="11.455160402405369"><ele>119.0</ele><time>2026-04-29T23:30:19.999Z</time></trkpt><trkpt lat="43.635692413589524" lon="11.455249116248186"><ele>119.0</ele><time>2026-04-29T23:30:20.999Z</time></trkpt><trkpt lat="43.635605201920484" lon="11.455325709371632"><ele>119.0</ele><time>2026-04-29T23:30:21.999Z</time></trkpt><trkpt lat="43.63550355625033" lon="11.455363463325481"><ele>119.0</ele><time>2026-04-29T23:30:22.999Z</time></trkpt><trkpt lat="43.63541325200858" lon="11.455430015472505"><ele>119.0</ele><time>2026-04-29T23:30:23.999Z</time></trkpt><trkpt lat="43.63533569939955" lon="11.455538227274934"><ele>119.0</ele><time>2026-04-29T23:30:24.999Z</time></trkpt><trkpt lat="43.63525092567227" lon="11.455655730238396"><ele>119.0</ele><time>2026-04-29T23:30:25.999Z</time></trkpt><trkpt lat="43.6351419360347" lon="11.455758507322729"><ele>119.75</ele><time>2026-04-29T23:30:26.999Z</time></trkpt><trkpt lat="43.63502314025061" lon="11.455859577295472"><ele>120.5</ele><time>2026-04-29T23:30:27.999Z</time></trkpt><trkpt lat="43.63491067188919" lon="11.45595559396081"><ele>121.25</ele><time>2026-04-29T23:30:28.999Z</time></trkpt><trkpt lat="43.63479539569156" lon="11.45606192433288"><ele>122.0</ele><time>2026-04-29T23:30:29.999Z</time></trkpt><trkpt lat="43.63467161567755" lon="11.456173105736267"><ele>122.0</ele><time>2026-04-29T23:30:30.999Z</time></trkpt><trkpt lat="43.63454695834418" lon="11.456280267593543"><ele>122.0</ele><time>2026-04-29T23:30:31.999Z</time></trkpt><trkpt lat="43.634414619051334" lon="11.456393705988459"><ele>122.0</ele><time>2026-04-29T23:30:32.999Z</time></trkpt><trkpt lat="43.6342856372101" lon="11.456505034868572"><ele>121.66666666666666</ele><time>2026-04-29T23:30:33.999Z</time></trkpt><trkpt lat="43.63415503591813" lon="11.456622514078399"><ele>121.33333333333334</ele><time>2026-04-29T23:30:34.999Z</time></trkpt><trkpt lat="43.634016335673294" lon="11.456717413589399"><ele>121.0</ele><time>2026-04-29T23:30:35.999Z</time></trkpt><trkpt lat="43.63387737328492" lon="11.456838969254775"><ele>121.0</ele><time>2026-04-29T23:30:36.999Z</time></trkpt><trkpt lat="43.63375212643786" lon="11.45698476220651"><ele>121.0</ele><time>2026-04-29T23:30:37.999Z</time></trkpt><trkpt lat="43.633615672137324" lon="11.457107541673885"><ele>121.0</ele><time>2026-04-29T23:30:38.999Z</time></trkpt><trkpt lat="43.63347116448915" lon="11.457227090679583"><ele>120.66666666666667</ele><time>2026-04-29T23:30:39.999Z</time></trkpt><trkpt lat="43.63333002330343" lon="11.457351234661077"><ele>120.33333333333334</ele><time>2026-04-29T23:30:40.999Z</time></trkpt><trkpt lat="43.63317656552118" lon="11.45745821114682"><ele>120.0</ele><time>2026-04-29T23:30:41.999Z</time></trkpt><trkpt lat="43.633039771693475" lon="11.457578082801291"><ele>120.0</ele><time>2026-04-29T23:30:42.999Z</time></trkpt><trkpt lat="43.63289826877739" lon="11.457702398507175"><ele>120.0</ele><time>2026-04-29T23:30:43.999Z</time></trkpt><trkpt lat="43.6327616757805" lon="11.457822688276586"><ele>120.0</ele><time>2026-04-29T23:30:44.999Z</time></trkpt><trkpt lat="43.63262933193767" lon="11.4579635551408"><ele>120.0</ele><time>2026-04-29T23:30:45.999Z</time></trkpt><trkpt lat="43.63248139506195" lon="11.45806962839911"><ele>120.0</ele><time>2026-04-29T23:30:46.999Z</time></trkpt><trkpt lat="43.632345605010244" lon="11.458188552671064"><ele>120.0</ele><time>2026-04-29T23:30:47.999Z</time></trkpt><trkpt lat="43.63221177099693" lon="11.45832813745386"><ele>120.0</ele><time>2026-04-29T23:30:48.999Z</time></trkpt><trkpt lat="43.63207619181244" lon="11.45844903983106"><ele>120.0</ele><time>2026-04-29T23:30:49.999Z</time></trkpt><trkpt lat="43.63193544158359" lon="11.458576578883692"><ele>120.0</ele><time>2026-04-29T23:30:50.999Z</time></trkpt><trkpt lat="43.6318069784297" lon="11.4586979525226"><ele>120.33333333333334</ele><time>2026-04-29T23:30:51.999Z</time></trkpt><trkpt lat="43.63166941103796" lon="11.458817709013008"><ele>120.66666666666667</ele><time>2026-04-29T23:30:52.999Z</time></trkpt><trkpt lat="43.63153590587336" lon="11.458925701848877"><ele>121.0</ele><time>2026-04-29T23:30:53.999Z</time></trkpt><trkpt lat="43.63139881154267" lon="11.45902303913135"><ele>121.0</ele><time>2026-04-29T23:30:54.999Z</time></trkpt><trkpt lat="43.631248621650315" lon="11.459099328312583"><ele>121.0</ele><time>2026-04-29T23:30:55.999Z</time></trkpt><trkpt lat="43.63108687141827" lon="11.459133186485289"><ele>121.0</ele><time>2026-04-29T23:30:56.999Z</time></trkpt><trkpt lat="43.63092318726582" lon="11.459152136857288"><ele>121.33333333333334</ele><time>2026-04-29T23:30:57.999Z</time></trkpt><trkpt lat="43.6307588607224" lon="11.459150817445849"><ele>121.66666666666666</ele><time>2026-04-29T23:30:58.999Z</time></trkpt><trkpt lat="43.63059808984779" lon="11.459170614617937"><ele>122.0</ele><time>2026-04-29T23:30:59.999Z</time></trkpt><trkpt lat="43.63042931129118" lon="11.45916616509512"><ele>122.0</ele><time>2026-04-29T23:31:00.999Z</time></trkpt><trkpt lat="43.63026854195907" lon="11.459184857286441"><ele>122.0</ele><time>2026-04-29T23:31:01.999Z</time></trkpt><trkpt lat="43.630105947308245" lon="11.4592037617232"><ele>122.0</ele><time>2026-04-29T23:31:02.999Z</time></trkpt><trkpt lat="43.62996837819701" lon="11.459219756569968"><ele>122.0</ele><time>2026-04-29T23:31:03.999Z</time></trkpt><trkpt lat="43.62984345453032" lon="11.459231678125985"><ele>121.99999999999999</ele><time>2026-04-29T23:31:04.999Z</time></trkpt><trkpt lat="43.629738043927105" lon="11.459259022132501"><ele>121.99999999999999</ele><time>2026-04-29T23:31:05.999Z</time></trkpt><trkpt lat="43.629636423389826" lon="11.459265606135764"><ele>122.0</ele><time>2026-04-29T23:31:06.999Z</time></trkpt><trkpt lat="43.62953990076104" lon="11.459262735863804"><ele>122.0</ele><time>2026-04-29T23:31:07.999Z</time></trkpt><trkpt lat="43.62944139130872" lon="11.459220127074431"><ele>121.75</ele><time>2026-04-29T23:31:08.999Z</time></trkpt><trkpt lat="43.629359498273445" lon="11.459108941241764"><ele>121.5</ele><time>2026-04-29T23:31:09.999Z</time></trkpt><trkpt lat="43.62930430150039" lon="11.45896317848172"><ele>121.25</ele><time>2026-04-29T23:31:10.999Z</time></trkpt><trkpt lat="43.629271622274864" lon="11.458793756032064"><ele>121.0</ele><time>2026-04-29T23:31:11.999Z</time></trkpt><trkpt lat="43.62924292959329" lon="11.458613825309104"><ele>121.5</ele><time>2026-04-29T23:31:12.999Z</time></trkpt><trkpt lat="43.62920187303135" lon="11.458436165211115"><ele>122.0</ele><time>2026-04-29T23:31:13.999Z</time></trkpt><trkpt lat="43.62914066730466" lon="11.45826530325515"><ele>122.5</ele><time>2026-04-29T23:31:14.999Z</time></trkpt><trkpt lat="43.62908302716439" lon="11.458091075840011"><ele>123.0</ele><time>2026-04-29T23:31:15.999Z</time></trkpt><trkpt lat="43.629023555588105" lon="11.45790683167333"><ele>123.75</ele><time>2026-04-29T23:31:16.999Z</time></trkpt><trkpt lat="43.628996849001574" lon="11.457708703388052"><ele>124.5</ele><time>2026-04-29T23:31:17.999Z</time></trkpt><trkpt lat="43.62899838299041" lon="11.45751390157521"><ele>125.25</ele><time>2026-04-29T23:31:18.999Z</time></trkpt><trkpt lat="43.629007398295386" lon="11.457314403346778"><ele>126.0</ele><time>2026-04-29T23:31:19.999Z</time></trkpt><trkpt lat="43.629003405270495" lon="11.45712093480956"><ele>126.25</ele><time>2026-04-29T23:31:20.999Z</time></trkpt><trkpt lat="43.628980375137175" lon="11.456929891646553"><ele>126.5</ele><time>2026-04-29T23:31:21.999Z</time></trkpt><trkpt lat="43.62893380919186" lon="11.45676020677671"><ele>126.75</ele><time>2026-04-29T23:31:22.999Z</time></trkpt><trkpt lat="43.628892667274584" lon="11.456606833441272"><ele>127.0</ele><time>2026-04-29T23:31:23.999Z</time></trkpt><trkpt lat="43.62885873623699" lon="11.456476884357825"><ele>127.0</ele><time>2026-04-29T23:31:24.999Z</time></trkpt><trkpt lat="43.62882286905178" lon="11.456355610905348"><ele>127.0</ele><time>2026-04-29T23:31:25.999Z</time></trkpt><trkpt lat="43.628801404595336" lon="11.45625404335652"><ele>127.0</ele><time>2026-04-29T23:31:26.999Z</time></trkpt><trkpt lat="43.62876004027846" lon="11.456142308229781"><ele>127.0</ele><time>2026-04-29T23:31:29Z</time></trkpt><trkpt lat="43.628562860087236" lon="11.456230604241203"><ele>128.0</ele><time>2026-04-29T23:31:30Z</time></trkpt><trkpt lat="43.628476722169786" lon="11.45631915492734"><ele>129.0</ele><time>2026-04-29T23:31:31Z</time></trkpt><trkpt lat="43.62838974077941" lon="11.456413291938322"><ele>130.0</ele><time>2026-04-29T23:31:32Z</time></trkpt><trkpt lat="43.628299428961604" lon="11.456495317262394"><ele>131.0</ele><time>2026-04-29T23:31:33Z</time></trkpt><trkpt lat="43.62820273608492" lon="11.456577345843213"><ele>132.0</ele><time>2026-04-29T23:31:34Z</time></trkpt><trkpt lat="43.62809709435425" lon="11.456667668591878"><ele>132.0</ele><time>2026-04-29T23:31:35Z</time></trkpt><trkpt lat="43.627987475059214" lon="11.45675934247847"><ele>132.0</ele><time>2026-04-29T23:31:36Z</time></trkpt><trkpt lat="43.627868560484906" lon="11.456857232462351"><ele>132.0</ele><time>2026-04-29T23:31:37Z</time></trkpt><trkpt lat="43.62774102368593" lon="11.45696164931738"><ele>132.0</ele><time>2026-04-29T23:31:38Z</time></trkpt><trkpt lat="43.62761528282769" lon="11.457070767673327"><ele>133.33333333333334</ele><time>2026-04-29T23:31:39Z</time></trkpt><trkpt lat="43.62748323602977" lon="11.457171538172078"><ele>134.66666666666669</ele><time>2026-04-29T23:31:40Z</time></trkpt><trkpt lat="43.627351674901384" lon="11.45728089351202"><ele>136.0</ele><time>2026-04-29T23:31:41Z</time></trkpt><trkpt lat="43.627203685938355" lon="11.457374649889342"><ele>136.0</ele><time>2026-04-29T23:31:42Z</time></trkpt><trkpt lat="43.62705939184689" lon="11.457494649152348"><ele>136.0</ele><time>2026-04-29T23:31:43Z</time></trkpt><trkpt lat="43.6269082330297" lon="11.457593814817868"><ele>136.0</ele><time>2026-04-29T23:31:44Z</time></trkpt><trkpt lat="43.626749066285235" lon="11.457686510561718"><ele>135.33333333333334</ele><time>2026-04-29T23:31:45Z</time></trkpt><trkpt lat="43.62659129045427" lon="11.457788434029167"><ele>134.66666666666666</ele><time>2026-04-29T23:31:46Z</time></trkpt><trkpt lat="43.626434007462315" lon="11.457894300630203"><ele>134.0</ele><time>2026-04-29T23:31:47Z</time></trkpt><trkpt lat="43.62627093878851" lon="11.45800145017267"><ele>135.0</ele><time>2026-04-29T23:31:48Z</time></trkpt><trkpt lat="43.62610821421638" lon="11.45810356468578"><ele>136.0</ele><time>2026-04-29T23:31:49Z</time></trkpt><trkpt lat="43.625938017380555" lon="11.458200218381448"><ele>137.0</ele><time>2026-04-29T23:31:50Z</time></trkpt><trkpt lat="43.625768063891364" lon="11.458303211097894"><ele>137.0</ele><time>2026-04-29T23:31:51Z</time></trkpt><trkpt lat="43.625595202403" lon="11.45841136284235"><ele>137.0</ele><time>2026-04-29T23:31:52Z</time></trkpt><trkpt lat="43.62542448134554" lon="11.45851799679626"><ele>137.0</ele><time>2026-04-29T23:31:53Z</time></trkpt><trkpt lat="43.625250777941574" lon="11.458623510509547"><ele>137.66666666666666</ele><time>2026-04-29T23:31:54Z</time></trkpt><trkpt lat="43.62507613651581" lon="11.458717718491998"><ele>138.33333333333334</ele><time>2026-04-29T23:31:55Z</time></trkpt><trkpt lat="43.62489428550536" lon="11.458787299362394"><ele>139.0</ele><time>2026-04-29T23:31:56Z</time></trkpt><trkpt lat="43.624710853067334" lon="11.45882020405279"><ele>139.0</ele><time>2026-04-29T23:31:57Z</time></trkpt><trkpt lat="43.6245308150824" lon="11.458777600335619"><ele>139.0</ele><time>2026-04-29T23:31:58Z</time></trkpt><trkpt lat="43.62435419448343" lon="11.458716559403095"><ele>139.0</ele><time>2026-04-29T23:31:59Z</time></trkpt><trkpt lat="43.62418421962844" lon="11.458648680616529"><ele>139.0</ele><time>2026-04-29T23:32:00Z</time></trkpt><trkpt lat="43.62401685497118" lon="11.458533024901632"><ele>139.0</ele><time>2026-04-29T23:32:01Z</time></trkpt><trkpt lat="43.62385466629578" lon="11.458418663922462"><ele>139.0</ele><time>2026-04-29T23:32:02Z</time></trkpt><trkpt lat="43.62368717245101" lon="11.458303501981213"><ele>137.0</ele><time>2026-04-29T23:32:03Z</time></trkpt><trkpt lat="43.6235168017294" lon="11.458210869431806"><ele>135.0</ele><time>2026-04-29T23:32:04Z</time></trkpt><trkpt lat="43.623344595662246" lon="11.458146889290793"><ele>133.0</ele><time>2026-04-29T23:32:05Z</time></trkpt><trkpt lat="43.62317270192244" lon="11.458106764217035"><ele>133.0</ele><time>2026-04-29T23:32:05.999Z</time></trkpt><trkpt lat="43.622989719507075" lon="11.458114320615433"><ele>133.0</ele><time>2026-04-29T23:32:06.999Z</time></trkpt><trkpt lat="43.62280474305403" lon="11.458159619627684"><ele>133.0</ele><time>2026-04-29T23:32:07.999Z</time></trkpt><trkpt lat="43.622627817892095" lon="11.458240029360356"><ele>132.0</ele><time>2026-04-29T23:32:08.999Z</time></trkpt><trkpt lat="43.622476495008605" lon="11.458329068062945"><ele>131.0</ele><time>2026-04-29T23:32:09.999Z</time></trkpt><trkpt lat="43.62235167788256" lon="11.458400427602179"><ele>130.0</ele><time>2026-04-29T23:32:10.999Z</time></trkpt><trkpt lat="43.622237302329566" lon="11.458421628823295"><ele>129.0</ele><time>2026-04-29T23:32:11.999Z</time></trkpt><trkpt lat="43.622131647653475" lon="11.458353810941205"><ele>129.0</ele><time>2026-04-29T23:32:12.999Z</time></trkpt><trkpt lat="43.62203646966255" lon="11.458354217945747"><ele>129.0</ele><time>2026-04-29T23:32:13.999Z</time></trkpt><trkpt lat="43.621954406731795" lon="11.458407697867461"><ele>129.0</ele><time>2026-04-29T23:32:14.999Z</time></trkpt><trkpt lat="43.621871806820685" lon="11.45852134582917"><ele>129.0</ele><time>2026-04-29T23:32:15.999Z</time></trkpt><trkpt lat="43.62180207894317" lon="11.458637761578895"><ele>129.0</ele><time>2026-04-29T23:32:16.999Z</time></trkpt><trkpt lat="43.62163757900197" lon="11.458556382849645"><ele>129.5</ele><time>2026-04-29T23:32:17.999Z</time></trkpt><trkpt lat="43.62151105410025" lon="11.458464531446598"><ele>130.0</ele><time>2026-04-29T23:32:18.999Z</time></trkpt><trkpt lat="43.621397180112034" lon="11.458348801575474"><ele>130.5</ele><time>2026-04-29T23:32:19.999Z</time></trkpt><trkpt lat="43.62126828632704" lon="11.45823660923924"><ele>131.0</ele><time>2026-04-29T23:32:20.999Z</time></trkpt><trkpt lat="43.62112096139291" lon="11.458162529347998"><ele>131.33333333333331</ele><time>2026-04-29T23:32:21.999Z</time></trkpt><trkpt lat="43.62097564211848" lon="11.45807925158625"><ele>131.66666666666666</ele><time>2026-04-29T23:32:22.999Z</time></trkpt><trkpt lat="43.62082515516644" lon="11.458004378188717"><ele>132.0</ele><time>2026-04-29T23:32:23.999Z</time></trkpt><trkpt lat="43.620675511258604" lon="11.457934311488742"><ele>134.0</ele><time>2026-04-29T23:32:24.999Z</time></trkpt><trkpt lat="43.62053172905477" lon="11.457845930955841"><ele>136.0</ele><time>2026-04-29T23:32:25.999Z</time></trkpt><trkpt lat="43.6204132919779" lon="11.457711093486319"><ele>138.0</ele><time>2026-04-29T23:32:26.999Z</time></trkpt><trkpt lat="43.62029319037506" lon="11.457570641464523"><ele>138.33333333333334</ele><time>2026-04-29T23:32:27.999Z</time></trkpt><trkpt lat="43.62017591602601" lon="11.45742603029106"><ele>138.66666666666669</ele><time>2026-04-29T23:32:28.999Z</time></trkpt><trkpt lat="43.620049836869065" lon="11.457282473589254"><ele>139.0</ele><time>2026-04-29T23:32:29.999Z</time></trkpt><trkpt lat="43.6199220271813" lon="11.457143957689018"><ele>141.66666666666669</ele><time>2026-04-29T23:32:30.999Z</time></trkpt><trkpt lat="43.619790023945775" lon="11.457025855022579"><ele>144.33333333333334</ele><time>2026-04-29T23:32:31.999Z</time></trkpt><trkpt lat="43.61965472771109" lon="11.456916109217424"><ele>147.0</ele><time>2026-04-29T23:32:32.999Z</time></trkpt><trkpt lat="43.61951144348952" lon="11.45681053738671"><ele>147.33333333333334</ele><time>2026-04-29T23:32:33.999Z</time></trkpt><trkpt lat="43.61937699699833" lon="11.456696387038669"><ele>147.66666666666669</ele><time>2026-04-29T23:32:34.999Z</time></trkpt><trkpt lat="43.6192333545186" lon="11.456614031823392"><ele>148.0</ele><time>2026-04-29T23:32:35.999Z</time></trkpt><trkpt lat="43.61909506021176" lon="11.456505561858352"><ele>148.0</ele><time>2026-04-29T23:32:36.999Z</time></trkpt><trkpt lat="43.618958206018135" lon="11.45639074432749"><ele>148.0</ele><time>2026-04-29T23:32:37.999Z</time></trkpt><trkpt lat="43.618818974798934" lon="11.4562829115433"><ele>148.0</ele><time>2026-04-29T23:32:38.999Z</time></trkpt><trkpt lat="43.61867781160991" lon="11.456175061291125"><ele>150.0</ele><time>2026-04-29T23:32:39.999Z</time></trkpt><trkpt lat="43.61852709695459" lon="11.456077646637155"><ele>152.0</ele><time>2026-04-29T23:32:40.999Z</time></trkpt><trkpt lat="43.618376838633935" lon="11.456007481418935"><ele>154.0</ele><time>2026-04-29T23:32:41.999Z</time></trkpt><trkpt lat="43.618220748617965" lon="11.45595187240561"><ele>154.0</ele><time>2026-04-29T23:32:42.999Z</time></trkpt><trkpt lat="43.61809238602234" lon="11.455906898471312"><ele>154.0</ele><time>2026-04-29T23:32:43.999Z</time></trkpt><trkpt lat="43.61797777055137" lon="11.455832933554493"><ele>154.0</ele><time>2026-04-29T23:32:44.999Z</time></trkpt><trkpt lat="43.61789795725344" lon="11.455697148040633"><ele>154.0</ele><time>2026-04-29T23:32:45.999Z</time></trkpt><trkpt lat="43.617835635163274" lon="11.455551532338722"><ele>156.25</ele><time>2026-04-29T23:32:46.999Z</time></trkpt><trkpt lat="43.61778748375036" lon="11.45537926063147"><ele>158.5</ele><time>2026-04-29T23:32:47.999Z</time></trkpt><trkpt lat="43.61778171850951" lon="11.455190638489785"><ele>160.75</ele><time>2026-04-29T23:32:48.999Z</time></trkpt><trkpt lat="43.617783204233504" lon="11.455005895936777"><ele>163.0</ele><time>2026-04-29T23:32:49.999Z</time></trkpt><trkpt lat="43.61776336829415" lon="11.454852548087086"><ele>163.0</ele><time>2026-04-29T23:32:50.999Z</time></trkpt><trkpt lat="43.61768986481697" lon="11.454735135640584"><ele>163.0</ele><time>2026-04-29T23:32:51.999Z</time></trkpt><trkpt lat="43.617582575221114" lon="11.454667313338566"><ele>163.0</ele><time>2026-04-29T23:32:52.999Z</time></trkpt><trkpt lat="43.617464131103304" lon="11.454692916289927"><ele>163.0</ele><time>2026-04-29T23:32:53.999Z</time></trkpt><trkpt lat="43.617362983778825" lon="11.454790639347515"><ele>163.0</ele><time>2026-04-29T23:32:54.999Z</time></trkpt><trkpt lat="43.617268029333346" lon="11.454908218423384"><ele>163.0</ele><time>2026-04-29T23:32:55.999Z</time></trkpt><trkpt lat="43.617177010174665" lon="11.455013263095072"><ele>163.0</ele><time>2026-04-29T23:32:56.999Z</time></trkpt><trkpt lat="43.61706120407443" lon="11.455146401892664"><ele>163.0</ele><time>2026-04-29T23:32:57.999Z</time></trkpt><trkpt lat="43.616950881820934" lon="11.455243453901224"><ele>163.25</ele><time>2026-04-29T23:32:58.999Z</time></trkpt><trkpt lat="43.61685167037702" lon="11.455286665672315"><ele>163.5</ele><time>2026-04-29T23:32:59.999Z</time></trkpt><trkpt lat="43.61674038500587" lon="11.455287680876372"><ele>163.75</ele><time>2026-04-29T23:33:00.999Z</time></trkpt><trkpt lat="43.616633922172646" lon="11.455220343213824"><ele>164.0</ele><time>2026-04-29T23:33:01.999Z</time></trkpt><trkpt lat="43.616542353468276" lon="11.455111062203674"><ele>164.0</ele><time>2026-04-29T23:33:02.999Z</time></trkpt><trkpt lat="43.616500166747215" lon="11.454936428954314"><ele>164.0</ele><time>2026-04-29T23:33:03.999Z</time></trkpt><trkpt lat="43.61650085674172" lon="11.454760611933587"><ele>164.0</ele><time>2026-04-29T23:33:04.999Z</time></trkpt><trkpt lat="43.616545597310974" lon="11.454587136917949"><ele>164.0</ele><time>2026-04-29T23:33:05.999Z</time></trkpt><trkpt lat="43.61661417349718" lon="11.454417750528194"><ele>166.25</ele><time>2026-04-29T23:33:06.999Z</time></trkpt><trkpt lat="43.61665106095679" lon="11.454234226411836"><ele>168.5</ele><time>2026-04-29T23:33:07.999Z</time></trkpt><trkpt lat="43.61666091046512" lon="11.454029162439298"><ele>170.75</ele><time>2026-04-29T23:33:08.999Z</time></trkpt><trkpt lat="43.616631904386466" lon="11.45382679474771"><ele>173.0</ele><time>2026-04-29T23:33:09.999Z</time></trkpt><trkpt lat="43.61657262830887" lon="11.453632356558234"><ele>175.5</ele><time>2026-04-29T23:33:10.999Z</time></trkpt><trkpt lat="43.616531250615246" lon="11.453455970284999"><ele>178.0</ele><time>2026-04-29T23:33:11.999Z</time></trkpt><trkpt lat="43.61653707690649" lon="11.453290050711502"><ele>180.5</ele><time>2026-04-29T23:33:12.999Z</time></trkpt><trkpt lat="43.61662240038534" lon="11.453150785758009"><ele>183.0</ele><time>2026-04-29T23:33:13.999Z</time></trkpt><trkpt lat="43.6167410323817" lon="11.453055283928654"><ele>186.0</ele><time>2026-04-29T23:33:14.999Z</time></trkpt><trkpt lat="43.616860198869524" lon="11.452929746906687"><ele>189.0</ele><time>2026-04-29T23:33:15.999Z</time></trkpt><trkpt lat="43.61698733036482" lon="11.452796457477296"><ele>192.0</ele><time>2026-04-29T23:33:16.999Z</time></trkpt><trkpt lat="43.61711416441163" lon="11.45265633517256"><ele>192.0</ele><time>2026-04-29T23:33:17.999Z</time></trkpt><trkpt lat="43.617234658803234" lon="11.45250289629433"><ele>192.0</ele><time>2026-04-29T23:33:18.999Z</time></trkpt><trkpt lat="43.61735330083091" lon="11.452385927325405"><ele>192.0</ele><time>2026-04-29T23:33:19.999Z</time></trkpt><trkpt lat="43.617445688259686" lon="11.452288323436962"><ele>192.0</ele><time>2026-04-29T23:33:20.999Z</time></trkpt><trkpt lat="43.61748541323349" lon="11.452168562588477"><ele>192.0</ele><time>2026-04-29T23:33:21.999Z</time></trkpt><trkpt lat="43.61747270598287" lon="11.452010256559182"><ele>192.0</ele><time>2026-04-29T23:33:22.999Z</time></trkpt><trkpt lat="43.6173940718663" lon="11.451866286974559"><ele>192.0</ele><time>2026-04-29T23:33:23.999Z</time></trkpt><trkpt lat="43.617280694926826" lon="11.451765810377275"><ele>192.0</ele><time>2026-04-29T23:33:24.999Z</time></trkpt><trkpt lat="43.61718659231896" lon="11.451659792176384"><ele>192.0</ele><time>2026-04-29T23:33:25.999Z</time></trkpt><trkpt lat="43.617126688214256" lon="11.451504220406875"><ele>192.0</ele><time>2026-04-29T23:33:26.999Z</time></trkpt><trkpt lat="43.61711039955879" lon="11.451330434301726"><ele>192.0</ele><time>2026-04-29T23:33:27.999Z</time></trkpt><trkpt lat="43.61712254227169" lon="11.451143932671458"><ele>192.0</ele><time>2026-04-29T23:33:28.999Z</time></trkpt><trkpt lat="43.61713706639721" lon="11.450951753395888"><ele>193.25</ele><time>2026-04-29T23:33:29.999Z</time></trkpt><trkpt lat="43.61712004741042" lon="11.450753132073176"><ele>194.5</ele><time>2026-04-29T23:33:30.999Z</time></trkpt><trkpt lat="43.617097599197365" lon="11.450585577494726"><ele>195.75</ele><time>2026-04-29T23:33:31.999Z</time></trkpt><trkpt lat="43.6170236243632" lon="11.450458598601333"><ele>197.0</ele><time>2026-04-29T23:33:32.999Z</time></trkpt><trkpt lat="43.616914335596725" lon="11.450345540237747"><ele>197.0</ele><time>2026-04-29T23:33:34Z</time></trkpt><trkpt lat="43.616765998509656" lon="11.450292760195579"><ele>197.0</ele><time>2026-04-29T23:33:35Z</time></trkpt><trkpt lat="43.616619432378315" lon="11.4503183925086"><ele>197.0</ele><time>2026-04-29T23:33:36Z</time></trkpt><trkpt lat="43.61650140440486" lon="11.4502514874514"><ele>197.0</ele><time>2026-04-29T23:33:37Z</time></trkpt><trkpt lat="43.61641693822612" lon="11.4501322897856"><ele>197.0</ele><time>2026-04-29T23:33:38Z</time></trkpt><trkpt lat="43.61636376262784" lon="11.449973905670655"><ele>197.0</ele><time>2026-04-29T23:33:39Z</time></trkpt><trkpt lat="43.61637417491013" lon="11.449810166517057"><ele>197.0</ele><time>2026-04-29T23:33:40Z</time></trkpt><trkpt lat="43.61640686106028" lon="11.44966071702385"><ele>197.0</ele><time>2026-04-29T23:33:41Z</time></trkpt><trkpt lat="43.6164966409042" lon="11.449533314323759"><ele>199.25</ele><time>2026-04-29T23:33:42Z</time></trkpt><trkpt lat="43.616605302239215" lon="11.449423817657266"><ele>201.5</ele><time>2026-04-29T23:33:43Z</time></trkpt><trkpt lat="43.616697061914884" lon="11.44930032967871"><ele>203.75</ele><time>2026-04-29T23:33:44Z</time></trkpt><trkpt lat="43.61672834095675" lon="11.449132796133615"><ele>206.0</ele><time>2026-04-29T23:33:45Z</time></trkpt><trkpt lat="43.61672669506869" lon="11.448943175969639"><ele>209.0</ele><time>2026-04-29T23:33:46Z</time></trkpt><trkpt lat="43.61667028148681" lon="11.44877095819019"><ele>212.0</ele><time>2026-04-29T23:33:47Z</time></trkpt><trkpt lat="43.61658374386412" lon="11.448616248860668"><ele>215.0</ele><time>2026-04-29T23:33:48Z</time></trkpt><trkpt lat="43.61648189706911" lon="11.448481108235217"><ele>218.0</ele><time>2026-04-29T23:33:49Z</time></trkpt><trkpt lat="43.61637505482486" lon="11.448342214586553"><ele>218.0</ele><time>2026-04-29T23:33:50Z</time></trkpt><trkpt lat="43.61625870535823" lon="11.448212279280353"><ele>218.0</ele><time>2026-04-29T23:33:51Z</time></trkpt><trkpt lat="43.61614317477574" lon="11.4480945069885"><ele>218.0</ele><time>2026-04-29T23:33:52Z</time></trkpt><trkpt lat="43.61601792535815" lon="11.447969584338294"><ele>218.0</ele><time>2026-04-29T23:33:53Z</time></trkpt><trkpt lat="43.61592069814349" lon="11.447803498205381"><ele>216.0</ele><time>2026-04-29T23:33:54Z</time></trkpt><trkpt lat="43.61583913593962" lon="11.447620117594019"><ele>214.0</ele><time>2026-04-29T23:33:55Z</time></trkpt><trkpt lat="43.615739563583446" lon="11.447450664638597"><ele>212.0</ele><time>2026-04-29T23:33:56Z</time></trkpt><trkpt lat="43.615673947934496" lon="11.447298883398851"><ele>210.0</ele><time>2026-04-29T23:33:57Z</time></trkpt><trkpt lat="43.61556216326524" lon="11.447174374326273"><ele>211.0</ele><time>2026-04-29T23:33:58Z</time></trkpt><trkpt lat="43.615430225681045" lon="11.447066444328565"><ele>212.0</ele><time>2026-04-29T23:33:59Z</time></trkpt><trkpt lat="43.615308803072466" lon="11.446942153770392"><ele>213.0</ele><time>2026-04-29T23:34:00Z</time></trkpt><trkpt lat="43.6152380168868" lon="11.44677107292918"><ele>214.0</ele><time>2026-04-29T23:34:01Z</time></trkpt><trkpt lat="43.6151788477645" lon="11.4465858686898"><ele>214.0</ele><time>2026-04-29T23:34:02Z</time></trkpt><trkpt lat="43.61511244613059" lon="11.446423095652031"><ele>214.0</ele><time>2026-04-29T23:34:03Z</time></trkpt><trkpt lat="43.615007264622946" lon="11.44629412807192"><ele>214.0</ele><time>2026-04-29T23:34:04Z</time></trkpt><trkpt lat="43.61488781744514" lon="11.446208657786148"><ele>214.0</ele><time>2026-04-29T23:34:04.999Z</time></trkpt><trkpt lat="43.61473736081064" lon="11.446242827899875"><ele>214.0</ele><time>2026-04-29T23:34:05.999Z</time></trkpt><trkpt lat="43.614590400007316" lon="11.446310541353276"><ele>214.0</ele><time>2026-04-29T23:34:06.999Z</time></trkpt><trkpt lat="43.61444004455557" lon="11.446338321644182"><ele>214.0</ele><time>2026-04-29T23:34:07.999Z</time></trkpt><trkpt lat="43.6142966287315" lon="11.446365104100543"><ele>213.0</ele><time>2026-04-29T23:34:08.999Z</time></trkpt><trkpt lat="43.61415475883516" lon="11.446345534444838"><ele>212.0</ele><time>2026-04-29T23:34:09.999Z</time></trkpt><trkpt lat="43.61403562705706" lon="11.446244521464001"><ele>211.0</ele><time>2026-04-29T23:34:10.999Z</time></trkpt><trkpt lat="43.61390401868883" lon="11.446140696821042"><ele>210.0</ele><time>2026-04-29T23:34:11.999Z</time></trkpt><trkpt lat="43.61376630408183" lon="11.44604876253183"><ele>216.0</ele><time>2026-04-29T23:34:12.999Z</time></trkpt><trkpt lat="43.61361525507773" lon="11.445996453402188"><ele>222.0</ele><time>2026-04-29T23:34:13.999Z</time></trkpt><trkpt lat="43.61347217363167" lon="11.445906408405635"><ele>228.0</ele><time>2026-04-29T23:34:14.999Z</time></trkpt><trkpt lat="43.61335689240185" lon="11.445759366339882"><ele>228.0</ele><time>2026-04-29T23:34:15.999Z</time></trkpt><trkpt lat="43.6132246018617" lon="11.445617912333962"><ele>228.0</ele><time>2026-04-29T23:34:16.999Z</time></trkpt><trkpt lat="43.61309038938678" lon="11.445484656280708"><ele>228.0</ele><time>2026-04-29T23:34:17.999Z</time></trkpt><trkpt lat="43.61294239437529" lon="11.445385936414395"><ele>229.0</ele><time>2026-04-29T23:34:18.999Z</time></trkpt><trkpt lat="43.61277951887166" lon="11.445353237506756"><ele>230.0</ele><time>2026-04-29T23:34:19.999Z</time></trkpt><trkpt lat="43.612627237306334" lon="11.445270987266197"><ele>231.0</ele><time>2026-04-29T23:34:20.999Z</time></trkpt><trkpt lat="43.61248665139369" lon="11.445169652876492"><ele>231.0</ele><time>2026-04-29T23:34:21.999Z</time></trkpt><trkpt lat="43.61236487479216" lon="11.445037832464994"><ele>231.0</ele><time>2026-04-29T23:34:22.999Z</time></trkpt><trkpt lat="43.61223606069012" lon="11.444897426388424"><ele>231.0</ele><time>2026-04-29T23:34:23.999Z</time></trkpt><trkpt lat="43.61211627073548" lon="11.444745904115193"><ele>232.66666666666669</ele><time>2026-04-29T23:34:24.999Z</time></trkpt><trkpt lat="43.61199148281806" lon="11.444599713075364"><ele>234.33333333333334</ele><time>2026-04-29T23:34:25.999Z</time></trkpt><trkpt lat="43.611859770390005" lon="11.44444864949958"><ele>236.0</ele><time>2026-04-29T23:34:26.999Z</time></trkpt><trkpt lat="43.6117567679367" lon="11.444278065802342"><ele>236.0</ele><time>2026-04-29T23:34:27.999Z</time></trkpt><trkpt lat="43.61172791023732" lon="11.444061533261785"><ele>236.0</ele><time>2026-04-29T23:34:28.999Z</time></trkpt><trkpt lat="43.61170722559501" lon="11.443830778452654"><ele>236.0</ele><time>2026-04-29T23:34:29.999Z</time></trkpt><trkpt lat="43.611686421544725" lon="11.443601363405518"><ele>237.66666666666669</ele><time>2026-04-29T23:34:30.999Z</time></trkpt><trkpt lat="43.61166908988258" lon="11.443361377492614"><ele>239.33333333333331</ele><time>2026-04-29T23:34:31.999Z</time></trkpt><trkpt lat="43.61164263287612" lon="11.443129062268076"><ele>241.0</ele><time>2026-04-29T23:34:32.999Z</time></trkpt><trkpt lat="43.61159583702971" lon="11.44290662091104"><ele>242.66666666666666</ele><time>2026-04-29T23:34:33.999Z</time></trkpt><trkpt lat="43.61151673182909" lon="11.442697846339621"><ele>244.33333333333331</ele><time>2026-04-29T23:34:34.999Z</time></trkpt><trkpt lat="43.611413497621044" lon="11.442505058140904"><ele>246.0</ele><time>2026-04-29T23:34:35.999Z</time></trkpt><trkpt lat="43.611330999946084" lon="11.44230121255291"><ele>246.66666666666669</ele><time>2026-04-29T23:34:36.999Z</time></trkpt><trkpt lat="43.61123754334748" lon="11.44210137566264"><ele>247.33333333333334</ele><time>2026-04-29T23:34:37.999Z</time></trkpt><trkpt lat="43.61118045824946" lon="11.441873389900096"><ele>248.0</ele><time>2026-04-29T23:34:38.999Z</time></trkpt><trkpt lat="43.61113352088141" lon="11.441638851347252"><ele>248.0</ele><time>2026-04-29T23:34:39.999Z</time></trkpt><trkpt lat="43.61110213815726" lon="11.441402904222919"><ele>248.0</ele><time>2026-04-29T23:34:40.999Z</time></trkpt><trkpt lat="43.611075935898604" lon="11.441162489051619"><ele>248.0</ele><time>2026-04-29T23:34:41.999Z</time></trkpt><trkpt lat="43.61104984565036" lon="11.44092478929808"><ele>249.0</ele><time>2026-04-29T23:34:42.999Z</time></trkpt><trkpt lat="43.61102253481864" lon="11.440689167166543"><ele>250.0</ele><time>2026-04-29T23:34:43.999Z</time></trkpt><trkpt lat="43.61099577952594" lon="11.440452894554674"><ele>251.0</ele><time>2026-04-29T23:34:44.999Z</time></trkpt><trkpt lat="43.610957707229" lon="11.44020596141903"><ele>251.33333333333334</ele><time>2026-04-29T23:34:45.999Z</time></trkpt><trkpt lat="43.61089596407055" lon="11.43997714014071"><ele>251.66666666666669</ele><time>2026-04-29T23:34:46.999Z</time></trkpt><trkpt lat="43.61080647677455" lon="11.439769225272066"><ele>252.0</ele><time>2026-04-29T23:34:47.999Z</time></trkpt><trkpt lat="43.61067117906893" lon="11.43960437131566"><ele>252.33333333333331</ele><time>2026-04-29T23:34:48.999Z</time></trkpt><trkpt lat="43.61050224122415" lon="11.439488091702344"><ele>252.66666666666666</ele><time>2026-04-29T23:34:49.999Z</time></trkpt><trkpt lat="43.610326779386476" lon="11.439413835468523"><ele>253.0</ele><time>2026-04-29T23:34:50.999Z</time></trkpt><trkpt lat="43.61015378365372" lon="11.439333586978542"><ele>252.33333333333331</ele><time>2026-04-29T23:34:51.999Z</time></trkpt><trkpt lat="43.60998202006149" lon="11.439223677778902"><ele>251.66666666666669</ele><time>2026-04-29T23:34:52.999Z</time></trkpt><trkpt lat="43.60981556563489" lon="11.439109441629281"><ele>251.0</ele><time>2026-04-29T23:34:53.999Z</time></trkpt><trkpt lat="43.60966116954891" lon="11.43896355945164"><ele>252.0</ele><time>2026-04-29T23:34:54.999Z</time></trkpt><trkpt lat="43.60953960878679" lon="11.43876306963954"><ele>253.0</ele><time>2026-04-29T23:34:55.999Z</time></trkpt><trkpt lat="43.609412082669955" lon="11.438586998872072"><ele>254.0</ele><time>2026-04-29T23:34:56.999Z</time></trkpt><trkpt lat="43.60929666071357" lon="11.438384449719338"><ele>254.0</ele><time>2026-04-29T23:34:57.999Z</time></trkpt><trkpt lat="43.60917606175126" lon="11.43818676209637"><ele>254.0</ele><time>2026-04-29T23:34:58.999Z</time></trkpt><trkpt lat="43.60905500072725" lon="11.437998008199965"><ele>254.0</ele><time>2026-04-29T23:34:59.999Z</time></trkpt><trkpt lat="43.60892971645487" lon="11.437806652076135"><ele>254.66666666666669</ele><time>2026-04-29T23:35:00.999Z</time></trkpt><trkpt lat="43.608810112021224" lon="11.437626307316696"><ele>255.33333333333331</ele><time>2026-04-29T23:35:01.999Z</time></trkpt><trkpt lat="43.60867856660926" lon="11.437446131291086"><ele>256.0</ele><time>2026-04-29T23:35:02.999Z</time></trkpt><trkpt lat="43.608529258844555" lon="11.437308033672066"><ele>257.0</ele><time>2026-04-29T23:35:03.999Z</time></trkpt><trkpt lat="43.60835032885631" lon="11.437214956052276"><ele>258.0</ele><time>2026-04-29T23:35:04.999Z</time></trkpt><trkpt lat="43.60818098633661" lon="11.437132553129716"><ele>259.0</ele><time>2026-04-29T23:35:05.999Z</time></trkpt><trkpt lat="43.60801347995755" lon="11.437042029426275"><ele>259.0</ele><time>2026-04-29T23:35:06.999Z</time></trkpt><trkpt lat="43.607854303134104" lon="11.436928860204398"><ele>259.0</ele><time>2026-04-29T23:35:07.999Z</time></trkpt><trkpt lat="43.607711164261204" lon="11.436783540178462"><ele>259.0</ele><time>2026-04-29T23:35:08.999Z</time></trkpt><trkpt lat="43.607586288040345" lon="11.436613078918505"><ele>261.0</ele><time>2026-04-29T23:35:09.999Z</time></trkpt><trkpt lat="43.60747528959004" lon="11.436419169032455"><ele>263.0</ele><time>2026-04-29T23:35:10.999Z</time></trkpt><trkpt lat="43.60737692397344" lon="11.43620910151116"><ele>265.0</ele><time>2026-04-29T23:35:11.999Z</time></trkpt><trkpt lat="43.60728212614475" lon="11.43598497100307"><ele>265.0</ele><time>2026-04-29T23:35:12.999Z</time></trkpt><trkpt lat="43.60718897781652" lon="11.435762658022291"><ele>265.0</ele><time>2026-04-29T23:35:13.999Z</time></trkpt><trkpt lat="43.607086074037" lon="11.435538283214697"><ele>265.0</ele><time>2026-04-29T23:35:14.999Z</time></trkpt><trkpt lat="43.60698144718943" lon="11.435322437665238"><ele>266.3333333333333</ele><time>2026-04-29T23:35:15.999Z</time></trkpt><trkpt lat="43.60687835426607" lon="11.435109270350605"><ele>267.6666666666667</ele><time>2026-04-29T23:35:16.999Z</time></trkpt><trkpt lat="43.60677741032689" lon="11.43489583742857"><ele>269.0</ele><time>2026-04-29T23:35:17.999Z</time></trkpt><trkpt lat="43.60667178092717" lon="11.434676386223531"><ele>269.0</ele><time>2026-04-29T23:35:18.999Z</time></trkpt><trkpt lat="43.60657000995367" lon="11.43445819466159"><ele>269.0</ele><time>2026-04-29T23:35:19.999Z</time></trkpt><trkpt lat="43.606468370264295" lon="11.434234112612518"><ele>269.0</ele><time>2026-04-29T23:35:20.999Z</time></trkpt><trkpt lat="43.60636759223872" lon="11.434015126037643"><ele>269.0</ele><time>2026-04-29T23:35:21.999Z</time></trkpt><trkpt lat="43.60626464955828" lon="11.433801562246966"><ele>269.0</ele><time>2026-04-29T23:35:22.999Z</time></trkpt><trkpt lat="43.60615909189696" lon="11.433588257419535"><ele>269.0</ele><time>2026-04-29T23:35:23.999Z</time></trkpt><trkpt lat="43.60605622166898" lon="11.43337439870106"><ele>269.0</ele><time>2026-04-29T23:35:24.999Z</time></trkpt><trkpt lat="43.60595822609147" lon="11.433172111627432"><ele>269.0</ele><time>2026-04-29T23:35:25.999Z</time></trkpt><trkpt lat="43.60585782363705" lon="11.432992249826805"><ele>269.0</ele><time>2026-04-29T23:35:26.999Z</time></trkpt><trkpt lat="43.60578696652717" lon="11.432811487911334"><ele>268.75</ele><time>2026-04-29T23:35:27.999Z</time></trkpt><trkpt lat="43.605699411756916" lon="11.432664077775627"><ele>268.5</ele><time>2026-04-29T23:35:28.999Z</time></trkpt><trkpt lat="43.605666069262895" lon="11.432485968689445"><ele>268.25</ele><time>2026-04-29T23:35:29.999Z</time></trkpt><trkpt lat="43.60565965025766" lon="11.43231869032965"><ele>268.0</ele><time>2026-04-29T23:35:30.999Z</time></trkpt><trkpt lat="43.60567753833848" lon="11.432149035976577"><ele>268.5</ele><time>2026-04-29T23:35:31.999Z</time></trkpt><trkpt lat="43.60577236745869" lon="11.432012684814836"><ele>269.0</ele><time>2026-04-29T23:35:32.999Z</time></trkpt><trkpt lat="43.6058579534574" lon="11.431863597496953"><ele>269.5</ele><time>2026-04-29T23:35:33.998Z</time></trkpt><trkpt lat="43.60597316061435" lon="11.431732814571248"><ele>270.0</ele><time>2026-04-29T23:35:34.998Z</time></trkpt><trkpt lat="43.60608741316725" lon="11.431581846228875"><ele>269.6666666666667</ele><time>2026-04-29T23:35:35.998Z</time></trkpt><trkpt lat="43.60620351188266" lon="11.431412578298833"><ele>269.33333333333337</ele><time>2026-04-29T23:35:36.998Z</time></trkpt><trkpt lat="43.60631425257549" lon="11.43124229525977"><ele>269.0</ele><time>2026-04-29T23:35:37.998Z</time></trkpt><trkpt lat="43.6064305476866" lon="11.431074595387988"><ele>269.0</ele><time>2026-04-29T23:35:38.998Z</time></trkpt><trkpt lat="43.606550923865605" lon="11.430917864419083"><ele>269.0</ele><time>2026-04-29T23:35:40Z</time></trkpt><trkpt lat="43.60667308355721" lon="11.430757945513387"><ele>269.0</ele><time>2026-04-29T23:35:41Z</time></trkpt><trkpt lat="43.60679333883807" lon="11.430594063054427"><ele>269.33333333333337</ele><time>2026-04-29T23:35:42Z</time></trkpt><trkpt lat="43.60689588060397" lon="11.430416054539053"><ele>269.6666666666667</ele><time>2026-04-29T23:35:43Z</time></trkpt><trkpt lat="43.606963888814214" lon="11.430232225072134"><ele>270.0</ele><time>2026-04-29T23:35:44Z</time></trkpt><trkpt lat="43.60699665370673" lon="11.43002846187932"><ele>270.6666666666667</ele><time>2026-04-29T23:35:45Z</time></trkpt><trkpt lat="43.60699439519376" lon="11.429802453274245"><ele>271.33333333333337</ele><time>2026-04-29T23:35:46Z</time></trkpt><trkpt lat="43.60696680458687" lon="11.429566669206771"><ele>272.0</ele><time>2026-04-29T23:35:47Z</time></trkpt><trkpt lat="43.60694489309499" lon="11.429342527009197"><ele>271.0</ele><time>2026-04-29T23:35:48Z</time></trkpt><trkpt lat="43.60693179634614" lon="11.429106034774378"><ele>270.0</ele><time>2026-04-29T23:35:49Z</time></trkpt><trkpt lat="43.60691742567416" lon="11.428864309387743"><ele>269.0</ele><time>2026-04-29T23:35:50Z</time></trkpt><trkpt lat="43.606901233034804" lon="11.42862562652582"><ele>269.0</ele><time>2026-04-29T23:35:51Z</time></trkpt><trkpt lat="43.606889933393504" lon="11.42838561573755"><ele>269.0</ele><time>2026-04-29T23:35:52Z</time></trkpt><trkpt lat="43.60687646006541" lon="11.428144491692239"><ele>269.0</ele><time>2026-04-29T23:35:53Z</time></trkpt><trkpt lat="43.60686063710809" lon="11.427908382954767"><ele>268.6666666666667</ele><time>2026-04-29T23:35:54Z</time></trkpt><trkpt lat="43.60684569432499" lon="11.427675962212037"><ele>268.3333333333333</ele><time>2026-04-29T23:35:55Z</time></trkpt><trkpt lat="43.606832848880174" lon="11.427447426871938"><ele>268.0</ele><time>2026-04-29T23:35:56Z</time></trkpt><trkpt lat="43.60681798088411" lon="11.427223858498724"><ele>267.66666666666663</ele><time>2026-04-29T23:35:57Z</time></trkpt><trkpt lat="43.606806007051695" lon="11.426996792582255"><ele>267.3333333333333</ele><time>2026-04-29T23:35:58Z</time></trkpt><trkpt lat="43.6067950848125" lon="11.426777018253464"><ele>267.0</ele><time>2026-04-29T23:35:59Z</time></trkpt><trkpt lat="43.60677975955895" lon="11.426554230373517"><ele>267.0</ele><time>2026-04-29T23:36:00Z</time></trkpt><trkpt lat="43.6067532739189" lon="11.426332846886698"><ele>267.0</ele><time>2026-04-29T23:36:01Z</time></trkpt><trkpt lat="43.60670043602664" lon="11.426115268094385"><ele>267.0</ele><time>2026-04-29T23:36:02Z</time></trkpt><trkpt lat="43.60662133917829" lon="11.425897520132906"><ele>267.0</ele><time>2026-04-29T23:36:03Z</time></trkpt><trkpt lat="43.60651908977957" lon="11.425687152068948"><ele>267.0</ele><time>2026-04-29T23:36:04Z</time></trkpt><trkpt lat="43.60641345267201" lon="11.425480843046154"><ele>267.0</ele><time>2026-04-29T23:36:05Z</time></trkpt><trkpt lat="43.60630687336246" lon="11.42527037411718"><ele>267.0</ele><time>2026-04-29T23:36:06Z</time></trkpt><trkpt lat="43.6062001983031" lon="11.425064321983626"><ele>267.0</ele><time>2026-04-29T23:36:07Z</time></trkpt><trkpt lat="43.606092464697035" lon="11.424855544813125"><ele>267.0</ele><time>2026-04-29T23:36:08Z</time></trkpt><trkpt lat="43.60599249596658" lon="11.424634062099303"><ele>265.0</ele><time>2026-04-29T23:36:08.999Z</time></trkpt><trkpt lat="43.605902469015234" lon="11.424422349127347"><ele>263.0</ele><time>2026-04-29T23:36:09.999Z</time></trkpt><trkpt lat="43.60580760779907" lon="11.4242035745754"><ele>261.0</ele><time>2026-04-29T23:36:10.999Z</time></trkpt><trkpt lat="43.60570911554977" lon="11.423996077268352"><ele>260.6666666666667</ele><time>2026-04-29T23:36:11.999Z</time></trkpt><trkpt lat="43.60559318269386" lon="11.423792599717943"><ele>260.33333333333337</ele><time>2026-04-29T23:36:12.999Z</time></trkpt><trkpt lat="43.605468927222105" lon="11.423598084079028"><ele>260.0</ele><time>2026-04-29T23:36:13.999Z</time></trkpt><trkpt lat="43.60534321440545" lon="11.423407936743022"><ele>260.6666666666667</ele><time>2026-04-29T23:36:14.999Z</time></trkpt><trkpt lat="43.60522974394588" lon="11.423199396144874"><ele>261.3333333333333</ele><time>2026-04-29T23:36:15.999Z</time></trkpt><trkpt lat="43.60516536750488" lon="11.422959362535133"><ele>262.0</ele><time>2026-04-29T23:36:16.999Z</time></trkpt><trkpt lat="43.6050711841227" lon="11.422738497051522"><ele>263.66666666666663</ele><time>2026-04-29T23:36:17.999Z</time></trkpt><trkpt lat="43.60500377483055" lon="11.422510514262001"><ele>265.3333333333333</ele><time>2026-04-29T23:36:18.999Z</time></trkpt><trkpt lat="43.60493717824815" lon="11.4222758210314"><ele>267.0</ele><time>2026-04-29T23:36:19.999Z</time></trkpt><trkpt lat="43.60490496307248" lon="11.422033468300711"><ele>267.6666666666667</ele><time>2026-04-29T23:36:20.999Z</time></trkpt><trkpt lat="43.60488299965789" lon="11.421794470786564"><ele>268.33333333333337</ele><time>2026-04-29T23:36:21.999Z</time></trkpt><trkpt lat="43.60485261459041" lon="11.421555237850834"><ele>269.0</ele><time>2026-04-29T23:36:22.999Z</time></trkpt><trkpt lat="43.604826602347956" lon="11.421326644724209"><ele>268.6666666666667</ele><time>2026-04-29T23:36:23.999Z</time></trkpt><trkpt lat="43.60475428676239" lon="11.421103560702162"><ele>268.3333333333333</ele><time>2026-04-29T23:36:24.999Z</time></trkpt><trkpt lat="43.60466584569594" lon="11.420895139491313"><ele>268.0</ele><time>2026-04-29T23:36:25.999Z</time></trkpt><trkpt lat="43.604571425612356" lon="11.420698726361787"><ele>271.0</ele><time>2026-04-29T23:36:26.999Z</time></trkpt><trkpt lat="43.60448842284666" lon="11.420516767663342"><ele>274.0</ele><time>2026-04-29T23:36:27.999Z</time></trkpt><trkpt lat="43.60442052955346" lon="11.420358083337106"><ele>277.0</ele><time>2026-04-29T23:36:28.999Z</time></trkpt><trkpt lat="43.604355252338685" lon="11.420188249224987"><ele>280.0</ele><time>2026-04-29T23:36:29.999Z</time></trkpt><trkpt lat="43.60429435963177" lon="11.420000021460824"><ele>281.3333333333333</ele><time>2026-04-29T23:36:30.999Z</time></trkpt><trkpt lat="43.60424955154396" lon="11.419792469270389"><ele>282.6666666666667</ele><time>2026-04-29T23:36:31.999Z</time></trkpt><trkpt lat="43.60421208004763" lon="11.419576462597048"><ele>284.0</ele><time>2026-04-29T23:36:32.999Z</time></trkpt><trkpt lat="43.604181826521284" lon="11.419340888246142"><ele>284.33333333333337</ele><time>2026-04-29T23:36:33.999Z</time></trkpt><trkpt lat="43.60415316322234" lon="11.419113434585828"><ele>284.6666666666667</ele><time>2026-04-29T23:36:34.999Z</time></trkpt><trkpt lat="43.604116717107715" lon="11.418884678371212"><ele>285.0</ele><time>2026-04-29T23:36:35.999Z</time></trkpt><trkpt lat="43.6040761596985" lon="11.418664161727515"><ele>286.3333333333333</ele><time>2026-04-29T23:36:36.999Z</time></trkpt><trkpt lat="43.60403046584458" lon="11.418441080155127"><ele>287.66666666666663</ele><time>2026-04-29T23:36:37.999Z</time></trkpt><trkpt lat="43.60398369369155" lon="11.418222021989305"><ele>289.0</ele><time>2026-04-29T23:36:38.999Z</time></trkpt><trkpt lat="43.603930388713565" lon="11.418004254442643"><ele>290.66666666666663</ele><time>2026-04-29T23:36:39.999Z</time></trkpt><trkpt lat="43.6038597988407" lon="11.417805682354105"><ele>292.3333333333333</ele><time>2026-04-29T23:36:40.999Z</time></trkpt><trkpt lat="43.6037613592415" lon="11.417650557474403"><ele>294.0</ele><time>2026-04-29T23:36:41.999Z</time></trkpt><trkpt lat="43.60363844736122" lon="11.417534705101419"><ele>295.3333333333333</ele><time>2026-04-29T23:36:42.999Z</time></trkpt><trkpt lat="43.603492722388324" lon="11.417458841767283"><ele>296.66666666666663</ele><time>2026-04-29T23:36:43.999Z</time></trkpt><trkpt lat="43.60334542409677" lon="11.417410784271073"><ele>298.0</ele><time>2026-04-29T23:36:44.999Z</time></trkpt><trkpt lat="43.603188614470646" lon="11.417388485049514"><ele>298.0</ele><time>2026-04-29T23:36:45.999Z</time></trkpt><trkpt lat="43.60302699276773" lon="11.417386667318352"><ele>298.0</ele><time>2026-04-29T23:36:46.999Z</time></trkpt><trkpt lat="43.60286072983571" lon="11.417393376345197"><ele>298.0</ele><time>2026-04-29T23:36:47.999Z</time></trkpt><trkpt lat="43.60269845498277" lon="11.417405481479433"><ele>300.0</ele><time>2026-04-29T23:36:48.999Z</time></trkpt><trkpt lat="43.60253587819732" lon="11.417414285031906"><ele>302.0</ele><time>2026-04-29T23:36:49.999Z</time></trkpt><trkpt lat="43.602384667029554" lon="11.417422761512407"><ele>304.0</ele><time>2026-04-29T23:36:50.999Z</time></trkpt><trkpt lat="43.602247072609174" lon="11.417403323464534"><ele>304.0</ele><time>2026-04-29T23:36:51.999Z</time></trkpt><trkpt lat="43.60213334447795" lon="11.417418055950233"><ele>304.0</ele><time>2026-04-29T23:36:52.999Z</time></trkpt><trkpt lat="43.60202870976499" lon="11.4173762946331"><ele>304.0</ele><time>2026-04-29T23:36:53.999Z</time></trkpt><trkpt lat="43.60194530616926" lon="11.41727112255006"><ele>304.0</ele><time>2026-04-29T23:36:54.999Z</time></trkpt><trkpt lat="43.60185518718347" lon="11.417154321182297"><ele>304.5</ele><time>2026-04-29T23:36:55.999Z</time></trkpt><trkpt lat="43.60180138450352" lon="11.416986021293472"><ele>305.0</ele><time>2026-04-29T23:36:56.999Z</time></trkpt><trkpt lat="43.60182710878189" lon="11.416807504633741"><ele>305.5</ele><time>2026-04-29T23:36:57.999Z</time></trkpt><trkpt lat="43.60184452687235" lon="11.416610774495636"><ele>306.0</ele><time>2026-04-29T23:36:58.999Z</time></trkpt><trkpt lat="43.60188884557662" lon="11.416422821908407"><ele>306.3333333333333</ele><time>2026-04-29T23:36:59.999Z</time></trkpt><trkpt lat="43.60190111976102" lon="11.41620331541709"><ele>306.66666666666663</ele><time>2026-04-29T23:37:00.999Z</time></trkpt><trkpt lat="43.601899530909336" lon="11.415982003535337"><ele>307.0</ele><time>2026-04-29T23:37:01.999Z</time></trkpt><trkpt lat="43.601920495080805" lon="11.415764541936968"><ele>307.0</ele><time>2026-04-29T23:37:02.999Z</time></trkpt><trkpt lat="43.60194471017158" lon="11.415539436035552"><ele>307.0</ele><time>2026-04-29T23:37:03.999Z</time></trkpt><trkpt lat="43.60196031179779" lon="11.415329966967553"><ele>307.0</ele><time>2026-04-29T23:37:04.999Z</time></trkpt><trkpt lat="43.60198303949191" lon="11.415139582699453"><ele>305.0</ele><time>2026-04-29T23:37:05.999Z</time></trkpt><trkpt lat="43.6020051192349" lon="11.414952723879125"><ele>303.0</ele><time>2026-04-29T23:37:06.999Z</time></trkpt><trkpt lat="43.602018318057716" lon="11.4147706589695"><ele>301.0</ele><time>2026-04-29T23:37:07.999Z</time></trkpt><trkpt lat="43.602014565548615" lon="11.414574206121305"><ele>299.0</ele><time>2026-04-29T23:37:08.999Z</time></trkpt><trkpt lat="43.601991976878665" lon="11.414375238686695"><ele>299.0</ele><time>2026-04-29T23:37:09.999Z</time></trkpt><trkpt lat="43.601960337062245" lon="11.41417407514273"><ele>299.0</ele><time>2026-04-29T23:37:10.999Z</time></trkpt><trkpt lat="43.60193079065854" lon="11.41398289729163"><ele>299.0</ele><time>2026-04-29T23:37:11.999Z</time></trkpt><trkpt lat="43.601913672020906" lon="11.41380547472961"><ele>299.0</ele><time>2026-04-29T23:37:12.999Z</time></trkpt><trkpt lat="43.60191098284206" lon="11.413626843877148"><ele>298.0</ele><time>2026-04-29T23:37:13.999Z</time></trkpt><trkpt lat="43.60193294866274" lon="11.413454693203485"><ele>297.0</ele><time>2026-04-29T23:37:14.999Z</time></trkpt><trkpt lat="43.601969948973206" lon="11.413291189860136"><ele>296.0</ele><time>2026-04-29T23:37:15.999Z</time></trkpt><trkpt lat="43.60198054108329" lon="11.413138850323776"><ele>295.0</ele><time>2026-04-29T23:37:16.999Z</time></trkpt><trkpt lat="43.60194487570504" lon="11.413001350103578"><ele>295.4</ele><time>2026-04-29T23:37:17.999Z</time></trkpt><trkpt lat="43.60186569902751" lon="11.41289957980444"><ele>295.8</ele><time>2026-04-29T23:37:18.999Z</time></trkpt><trkpt lat="43.60176185630868" lon="11.412831407962988"><ele>296.2</ele><time>2026-04-29T23:37:19.999Z</time></trkpt><trkpt lat="43.60164647282198" lon="11.41280354053307"><ele>296.6</ele><time>2026-04-29T23:37:20.999Z</time></trkpt><trkpt lat="43.60154098667479" lon="11.41281639994587"><ele>297.0</ele><time>2026-04-29T23:37:21.999Z</time></trkpt><trkpt lat="43.60144648645158" lon="11.412790227333883"><ele>297.0</ele><time>2026-04-29T23:37:22.999Z</time></trkpt><trkpt lat="43.6013807335581" lon="11.4127463647804"><ele>297.0</ele><time>2026-04-29T23:37:23.999Z</time></trkpt><trkpt lat="43.601349768384544" lon="11.412628446154967"><ele>297.0</ele><time>2026-04-29T23:37:24.999Z</time></trkpt><trkpt lat="43.60134554780538" lon="11.412496314809855"><ele>297.0</ele><time>2026-04-29T23:37:25.999Z</time></trkpt><trkpt lat="43.6013727521879" lon="11.412359753870145"><ele>297.0</ele><time>2026-04-29T23:37:26.999Z</time></trkpt><trkpt lat="43.60140349532409" lon="11.412221118466793"><ele>297.2</ele><time>2026-04-29T23:37:27.999Z</time></trkpt><trkpt lat="43.6014178033889" lon="11.412077938514793"><ele>297.4</ele><time>2026-04-29T23:37:28.999Z</time></trkpt><trkpt lat="43.60143900718669" lon="11.411953720267162"><ele>297.6</ele><time>2026-04-29T23:37:29.999Z</time></trkpt><trkpt lat="43.601370488197944" lon="11.411854604394804"><ele>297.8</ele><time>2026-04-29T23:37:30.999Z</time></trkpt><trkpt lat="43.60132804176244" lon="11.411774206488811"><ele>298.0</ele><time>2026-04-29T23:37:31.999Z</time></trkpt><trkpt lat="43.60120666925544" lon="11.411785568261209"><ele>298.0</ele><time>2026-04-29T23:37:32.999Z</time></trkpt><trkpt lat="43.60110736618266" lon="11.411885981361113"><ele>298.0</ele><time>2026-04-29T23:37:33.999Z</time></trkpt><trkpt lat="43.60100873333948" lon="11.411961838943176"><ele>298.0</ele><time>2026-04-29T23:37:34.999Z</time></trkpt><trkpt lat="43.60090696838426" lon="11.411997943025758"><ele>298.0</ele><time>2026-04-29T23:37:35.999Z</time></trkpt><trkpt lat="43.600805284587246" lon="11.41204473910193"><ele>298.0</ele><time>2026-04-29T23:37:36.999Z</time></trkpt><trkpt lat="43.6007258349434" lon="11.412080304041899"><ele>298.0</ele><time>2026-04-29T23:37:37.999Z</time></trkpt><trkpt lat="43.60063140004065" lon="11.41203079244087"><ele>298.0</ele><time>2026-04-29T23:37:38.999Z</time></trkpt><trkpt lat="43.60056116099433" lon="11.411918822378396"><ele>298.0</ele><time>2026-04-29T23:37:39.999Z</time></trkpt><trkpt lat="43.6005039554414" lon="11.411786481485517"><ele>298.0</ele><time>2026-04-29T23:37:40.998Z</time></trkpt><trkpt lat="43.600473148728376" lon="11.411631694135833"><ele>298.0</ele><time>2026-04-29T23:37:41.998Z</time></trkpt><trkpt lat="43.60048264497033" lon="11.41146660415994"><ele>300.0</ele><time>2026-04-29T23:37:42.998Z</time></trkpt><trkpt lat="43.600514235093264" lon="11.411301449091502"><ele>302.0</ele><time>2026-04-29T23:37:43.998Z</time></trkpt><trkpt lat="43.600567217106544" lon="11.411146991277958"><ele>304.0</ele><time>2026-04-29T23:37:44.998Z</time></trkpt><trkpt lat="43.60062791625161" lon="11.410991974991772"><ele>306.0</ele><time>2026-04-29T23:37:46Z</time></trkpt><trkpt lat="43.60068037380551" lon="11.410815963839168"><ele>306.0</ele><time>2026-04-29T23:37:47Z</time></trkpt><trkpt lat="43.600715126348746" lon="11.410641546072481"><ele>306.0</ele><time>2026-04-29T23:37:48Z</time></trkpt><trkpt lat="43.600740879301206" lon="11.410450288658131"><ele>306.0</ele><time>2026-04-29T23:37:49Z</time></trkpt><trkpt lat="43.60076946842451" lon="11.410259638424378"><ele>306.0</ele><time>2026-04-29T23:37:50Z</time></trkpt><trkpt lat="43.60077872361242" lon="11.410066403700647"><ele>307.0</ele><time>2026-04-29T23:37:51Z</time></trkpt><trkpt lat="43.600763795204564" lon="11.409872677889583"><ele>308.0</ele><time>2026-04-29T23:37:52Z</time></trkpt><trkpt lat="43.60071616399768" lon="11.409681119407512"><ele>309.0</ele><time>2026-04-29T23:37:53Z</time></trkpt><trkpt lat="43.60064171093771" lon="11.409489563286366"><ele>310.0</ele><time>2026-04-29T23:37:54Z</time></trkpt><trkpt lat="43.600554921425655" lon="11.40930781927006"><ele>310.5</ele><time>2026-04-29T23:37:55Z</time></trkpt><trkpt lat="43.60047072359783" lon="11.409116073073799"><ele>311.0</ele><time>2026-04-29T23:37:56Z</time></trkpt><trkpt lat="43.600403882489104" lon="11.408943003075445"><ele>311.5</ele><time>2026-04-29T23:37:57Z</time></trkpt><trkpt lat="43.60035836999401" lon="11.40878035795255"><ele>312.0</ele><time>2026-04-29T23:37:58Z</time></trkpt><trkpt lat="43.60034942720991" lon="11.408626413415064"><ele>312.0</ele><time>2026-04-29T23:37:59Z</time></trkpt><trkpt lat="43.60034519742135" lon="11.408474289732332"><ele>312.0</ele><time>2026-04-29T23:38:00Z</time></trkpt><trkpt lat="43.600407274820945" lon="11.408332741494474"><ele>312.0</ele><time>2026-04-29T23:38:01Z</time></trkpt><trkpt lat="43.60051525656591" lon="11.408256515574116"><ele>312.0</ele><time>2026-04-29T23:38:02Z</time></trkpt><trkpt lat="43.60063309833751" lon="11.408212328091292"><ele>312.0</ele><time>2026-04-29T23:38:03Z</time></trkpt><trkpt lat="43.60076314428579" lon="11.408151963732898"><ele>312.0</ele><time>2026-04-29T23:38:04Z</time></trkpt><trkpt lat="43.600888311015744" lon="11.40809277516473"><ele>312.0</ele><time>2026-04-29T23:38:05Z</time></trkpt><trkpt lat="43.60098619230386" lon="11.407981430663495"><ele>312.0</ele><time>2026-04-29T23:38:06Z</time></trkpt><trkpt lat="43.6010445320036" lon="11.407824239230232"><ele>312.25</ele><time>2026-04-29T23:38:07Z</time></trkpt><trkpt lat="43.60106917452976" lon="11.407638107203683"><ele>312.5</ele><time>2026-04-29T23:38:08Z</time></trkpt><trkpt lat="43.6010467212692" lon="11.40743294989305"><ele>312.75</ele><time>2026-04-29T23:38:09Z</time></trkpt><trkpt lat="43.60100035462567" lon="11.407228119011007"><ele>313.0</ele><time>2026-04-29T23:38:10Z</time></trkpt><trkpt lat="43.60094463165232" lon="11.407031914462321"><ele>313.0</ele><time>2026-04-29T23:38:11Z</time></trkpt><trkpt lat="43.60088922807879" lon="11.40684903961639"><ele>313.0</ele><time>2026-04-29T23:38:12Z</time></trkpt><trkpt lat="43.600825086434945" lon="11.406657975374841"><ele>313.0</ele><time>2026-04-29T23:38:13Z</time></trkpt><trkpt lat="43.60076373516191" lon="11.406459599235122"><ele>318.0</ele><time>2026-04-29T23:38:13.999Z</time></trkpt><trkpt lat="43.60069242039826" lon="11.406262167964266"><ele>323.0</ele><time>2026-04-29T23:38:14.999Z</time></trkpt><trkpt lat="43.600599933997835" lon="11.40608633917697"><ele>328.0</ele><time>2026-04-29T23:38:15.999Z</time></trkpt><trkpt lat="43.60047150538746" lon="11.405928477730487"><ele>322.0</ele><time>2026-04-29T23:38:16.999Z</time></trkpt><trkpt lat="43.60032792972701" lon="11.40579232607519"><ele>316.0</ele><time>2026-04-29T23:38:17.999Z</time></trkpt><trkpt lat="43.6001660378306" lon="11.40568596128106"><ele>310.0</ele><time>2026-04-29T23:38:18.999Z</time></trkpt><trkpt lat="43.60001181166086" lon="11.405577911015044"><ele>312.66666666666663</ele><time>2026-04-29T23:38:19.999Z</time></trkpt><trkpt lat="43.59986623963602" lon="11.405426485855708"><ele>315.3333333333333</ele><time>2026-04-29T23:38:20.999Z</time></trkpt><trkpt lat="43.59975940473544" lon="11.405219603392197"><ele>318.0</ele><time>2026-04-29T23:38:21.999Z</time></trkpt><trkpt lat="43.599632867176936" lon="11.405022595677677"><ele>318.0</ele><time>2026-04-29T23:38:22.999Z</time></trkpt><trkpt lat="43.599523896527955" lon="11.404811763382474"><ele>318.0</ele><time>2026-04-29T23:38:23.999Z</time></trkpt><trkpt lat="43.599405449228904" lon="11.404605057776637"><ele>318.0</ele><time>2026-04-29T23:38:24.999Z</time></trkpt><trkpt lat="43.59931084456407" lon="11.404404448875129"><ele>317.0</ele><time>2026-04-29T23:38:25.999Z</time></trkpt><trkpt lat="43.599216202930144" lon="11.404233198894966"><ele>316.0</ele><time>2026-04-29T23:38:26.999Z</time></trkpt><trkpt lat="43.59913193202144" lon="11.404071961731098"><ele>315.0</ele><time>2026-04-29T23:38:27.999Z</time></trkpt><trkpt lat="43.59908253830095" lon="11.403926294114948"><ele>314.0</ele><time>2026-04-29T23:38:28.999Z</time></trkpt><trkpt lat="43.599091685588235" lon="11.403786860819503"><ele>314.0</ele><time>2026-04-29T23:38:29.999Z</time></trkpt><trkpt lat="43.59916106349576" lon="11.40368597375371"><ele>314.0</ele><time>2026-04-29T23:38:30.999Z</time></trkpt><trkpt lat="43.599268735359026" lon="11.40361858770265"><ele>314.0</ele><time>2026-04-29T23:38:31.999Z</time></trkpt><trkpt lat="43.599380218208324" lon="11.403520823173631"><ele>314.0</ele><time>2026-04-29T23:38:32.999Z</time></trkpt><trkpt lat="43.599490721050586" lon="11.403400723418375"><ele>318.0</ele><time>2026-04-29T23:38:33.999Z</time></trkpt><trkpt lat="43.59962027449529" lon="11.403302270987476"><ele>322.0</ele><time>2026-04-29T23:38:34.999Z</time></trkpt><trkpt lat="43.59975272891917" lon="11.403178298810912"><ele>326.0</ele><time>2026-04-29T23:38:35.999Z</time></trkpt><trkpt lat="43.599882581707064" lon="11.403060902985208"><ele>324.6666666666667</ele><time>2026-04-29T23:38:36.999Z</time></trkpt><trkpt lat="43.60001371051553" lon="11.402939882986901"><ele>323.3333333333333</ele><time>2026-04-29T23:38:37.999Z</time></trkpt><trkpt lat="43.60015879594436" lon="11.40282122807772"><ele>322.0</ele><time>2026-04-29T23:38:38.999Z</time></trkpt><trkpt lat="43.60029693412989" lon="11.402699436302134"><ele>321.66666666666663</ele><time>2026-04-29T23:38:39.999Z</time></trkpt><trkpt lat="43.60042175821373" lon="11.402553683594666"><ele>321.3333333333333</ele><time>2026-04-29T23:38:40.999Z</time></trkpt><trkpt lat="43.60050992453779" lon="11.402369086477746"><ele>321.0</ele><time>2026-04-29T23:38:41.999Z</time></trkpt><trkpt lat="43.60055670142554" lon="11.402138855463575"><ele>321.0</ele><time>2026-04-29T23:38:42.999Z</time></trkpt><trkpt lat="43.600580347496546" lon="11.40189828051202"><ele>321.0</ele><time>2026-04-29T23:38:43.999Z</time></trkpt><trkpt lat="43.600605759174954" lon="11.401654529015458"><ele>321.0</ele><time>2026-04-29T23:38:44.999Z</time></trkpt><trkpt lat="43.60064097805339" lon="11.4014080420894"><ele>320.0</ele><time>2026-04-29T23:38:45.999Z</time></trkpt><trkpt lat="43.60068314560548" lon="11.40117347406761"><ele>319.0</ele><time>2026-04-29T23:38:46.999Z</time></trkpt><trkpt lat="43.600725596811124" lon="11.400934283165446"><ele>318.0</ele><time>2026-04-29T23:38:47.999Z</time></trkpt><trkpt lat="43.600769008886864" lon="11.400693254497165"><ele>318.3333333333333</ele><time>2026-04-29T23:38:48.999Z</time></trkpt><trkpt lat="43.60080358363907" lon="11.400438384507101"><ele>318.66666666666663</ele><time>2026-04-29T23:38:49.999Z</time></trkpt><trkpt lat="43.600837485135685" lon="11.400189054764327"><ele>319.0</ele><time>2026-04-29T23:38:50.999Z</time></trkpt><trkpt lat="43.600878788981824" lon="11.39993720646145"><ele>319.0</ele><time>2026-04-29T23:38:51.999Z</time></trkpt><trkpt lat="43.600895598812976" lon="11.399685675830746"><ele>319.0</ele><time>2026-04-29T23:38:52.999Z</time></trkpt><trkpt lat="43.60089434912222" lon="11.399451268960567"><ele>319.0</ele><time>2026-04-29T23:38:53.999Z</time></trkpt><trkpt lat="43.600844079805405" lon="11.399207741793592"><ele>320.3333333333333</ele><time>2026-04-29T23:38:54.999Z</time></trkpt><trkpt lat="43.60073868076954" lon="11.398992273411"><ele>321.6666666666667</ele><time>2026-04-29T23:38:55.999Z</time></trkpt><trkpt lat="43.600630949867785" lon="11.398774452963721"><ele>323.0</ele><time>2026-04-29T23:38:56.999Z</time></trkpt><trkpt lat="43.600513099580304" lon="11.39857283540377"><ele>322.6666666666667</ele><time>2026-04-29T23:38:57.999Z</time></trkpt><trkpt lat="43.600392867803215" lon="11.398367934013146"><ele>322.3333333333333</ele><time>2026-04-29T23:38:58.999Z</time></trkpt><trkpt lat="43.600269180752754" lon="11.39817757291223"><ele>322.0</ele><time>2026-04-29T23:38:59.999Z</time></trkpt><trkpt lat="43.60013588363252" lon="11.39800591096687"><ele>325.0</ele><time>2026-04-29T23:39:00.999Z</time></trkpt><trkpt lat="43.59999006947416" lon="11.397840340359823"><ele>328.0</ele><time>2026-04-29T23:39:01.999Z</time></trkpt><trkpt lat="43.5998504896898" lon="11.397682991624707"><ele>331.0</ele><time>2026-04-29T23:39:02.999Z</time></trkpt><trkpt lat="43.59970366664115" lon="11.397518981124986"><ele>331.0</ele><time>2026-04-29T23:39:03.999Z</time></trkpt><trkpt lat="43.599552837685025" lon="11.397375773327044"><ele>331.0</ele><time>2026-04-29T23:39:04.999Z</time></trkpt><trkpt lat="43.59939805153078" lon="11.397244132240216"><ele>331.0</ele><time>2026-04-29T23:39:05.999Z</time></trkpt><trkpt lat="43.599231179299075" lon="11.397127840690615"><ele>329.3333333333333</ele><time>2026-04-29T23:39:06.999Z</time></trkpt><trkpt lat="43.59906753683793" lon="11.397005616226915"><ele>327.6666666666667</ele><time>2026-04-29T23:39:07.999Z</time></trkpt><trkpt lat="43.59892729657158" lon="11.396825816702608"><ele>326.0</ele><time>2026-04-29T23:39:08.999Z</time></trkpt><trkpt lat="43.598801924541505" lon="11.396631272144942"><ele>326.0</ele><time>2026-04-29T23:39:09.999Z</time></trkpt><trkpt lat="43.59868131632447" lon="11.396427692255566"><ele>326.0</ele><time>2026-04-29T23:39:10.999Z</time></trkpt><trkpt lat="43.59854813328538" lon="11.396237849156698"><ele>326.0</ele><time>2026-04-29T23:39:11.999Z</time></trkpt><trkpt lat="43.598430037093685" lon="11.39603710883867"><ele>326.6666666666667</ele><time>2026-04-29T23:39:12.999Z</time></trkpt><trkpt lat="43.598323605010904" lon="11.395821756927585"><ele>327.3333333333333</ele><time>2026-04-29T23:39:13.999Z</time></trkpt><trkpt lat="43.59821611519062" lon="11.395612291188224"><ele>328.0</ele><time>2026-04-29T23:39:14.999Z</time></trkpt><trkpt lat="43.59812636454033" lon="11.395391335244177"><ele>328.0</ele><time>2026-04-29T23:39:15.999Z</time></trkpt><trkpt lat="43.59805899052471" lon="11.395157747264545"><ele>328.0</ele><time>2026-04-29T23:39:16.999Z</time></trkpt><trkpt lat="43.597996181508286" lon="11.394916829878241"><ele>328.0</ele><time>2026-04-29T23:39:17.999Z</time></trkpt><trkpt lat="43.59799367855896" lon="11.394669677188007"><ele>328.0</ele><time>2026-04-29T23:39:18.999Z</time></trkpt><trkpt lat="43.59796707075436" lon="11.394423492751748"><ele>328.0</ele><time>2026-04-29T23:39:19.999Z</time></trkpt><trkpt lat="43.59795017083831" lon="11.394184848567077"><ele>328.0</ele><time>2026-04-29T23:39:20.999Z</time></trkpt><trkpt lat="43.59790372138986" lon="11.393977714158416"><ele>329.3333333333333</ele><time>2026-04-29T23:39:21.999Z</time></trkpt><trkpt lat="43.59781304246461" lon="11.393805763678316"><ele>330.6666666666667</ele><time>2026-04-29T23:39:22.999Z</time></trkpt><trkpt lat="43.59769297558877" lon="11.393662574790698"><ele>332.0</ele><time>2026-04-29T23:39:23.999Z</time></trkpt><trkpt lat="43.59754886671407" lon="11.393559162159912"><ele>332.0</ele><time>2026-04-29T23:39:24.999Z</time></trkpt><trkpt lat="43.59738412087153" lon="11.393470211610174"><ele>332.0</ele><time>2026-04-29T23:39:25.999Z</time></trkpt><trkpt lat="43.59724424988606" lon="11.393332002120623"><ele>332.0</ele><time>2026-04-29T23:39:26.999Z</time></trkpt><trkpt lat="43.597114138126514" lon="11.393182507655073"><ele>332.33333333333337</ele><time>2026-04-29T23:39:27.999Z</time></trkpt><trkpt lat="43.597007917225646" lon="11.39300209851007"><ele>332.6666666666667</ele><time>2026-04-29T23:39:28.999Z</time></trkpt><trkpt lat="43.59691842657183" lon="11.39279445040528"><ele>333.0</ele><time>2026-04-29T23:39:29.999Z</time></trkpt><trkpt lat="43.59683201251576" lon="11.392577628662083"><ele>333.0</ele><time>2026-04-29T23:39:30.999Z</time></trkpt><trkpt lat="43.59673208910545" lon="11.39236566168459"><ele>333.0</ele><time>2026-04-29T23:39:31.999Z</time></trkpt><trkpt lat="43.59664709806293" lon="11.392139788174132"><ele>333.0</ele><time>2026-04-29T23:39:32.999Z</time></trkpt><trkpt lat="43.596556944691244" lon="11.391920100316966"><ele>336.3333333333333</ele><time>2026-04-29T23:39:33.999Z</time></trkpt><trkpt lat="43.5964836931352" lon="11.391685681294206"><ele>339.66666666666663</ele><time>2026-04-29T23:39:34.999Z</time></trkpt><trkpt lat="43.59639461572257" lon="11.39145664758767"><ele>343.0</ele><time>2026-04-29T23:39:35.999Z</time></trkpt><trkpt lat="43.5963081032113" lon="11.391234681292184"><ele>340.3333333333333</ele><time>2026-04-29T23:39:36.999Z</time></trkpt><trkpt lat="43.596215251150085" lon="11.39100898741236"><ele>337.6666666666667</ele><time>2026-04-29T23:39:37.999Z</time></trkpt><trkpt lat="43.59614603128009" lon="11.390769656119218"><ele>335.0</ele><time>2026-04-29T23:39:38.999Z</time></trkpt><trkpt lat="43.59607870024292" lon="11.390531590545821"><ele>336.33333333333337</ele><time>2026-04-29T23:39:39.999Z</time></trkpt><trkpt lat="43.59600730647126" lon="11.390289075993639"><ele>337.6666666666667</ele><time>2026-04-29T23:39:40.999Z</time></trkpt><trkpt lat="43.59593168433797" lon="11.39004237059266"><ele>339.0</ele><time>2026-04-29T23:39:41.999Z</time></trkpt><trkpt lat="43.595858638139944" lon="11.389797205252624"><ele>339.6666666666667</ele><time>2026-04-29T23:39:42.999Z</time></trkpt><trkpt lat="43.59578698019245" lon="11.389555678613114"><ele>340.33333333333337</ele><time>2026-04-29T23:39:43.998Z</time></trkpt><trkpt lat="43.595718346016405" lon="11.389306963994397"><ele>341.0</ele><time>2026-04-29T23:39:44.998Z</time></trkpt><trkpt lat="43.595673962242174" lon="11.389050358041057"><ele>340.6666666666667</ele><time>2026-04-29T23:39:45.998Z</time></trkpt><trkpt lat="43.595630285133396" lon="11.38879510577648"><ele>340.3333333333333</ele><time>2026-04-29T23:39:46.998Z</time></trkpt><trkpt lat="43.595578943514866" lon="11.388540479136337"><ele>340.0</ele><time>2026-04-29T23:39:47.998Z</time></trkpt><trkpt lat="43.59555193092613" lon="11.388284144974365"><ele>340.0</ele><time>2026-04-29T23:39:48.998Z</time></trkpt><trkpt lat="43.59555479609141" lon="11.38804139971924"><ele>340.0</ele><time>2026-04-29T23:39:49.998Z</time></trkpt><trkpt lat="43.59562692332418" lon="11.387807577479576"><ele>340.0</ele><time>2026-04-29T23:39:50.998Z</time></trkpt><trkpt lat="43.59569453572085" lon="11.387565785324792"><ele>340.3333333333333</ele><time>2026-04-29T23:39:52Z</time></trkpt><trkpt lat="43.59574788303728" lon="11.387316364829577"><ele>340.6666666666667</ele><time>2026-04-29T23:39:53Z</time></trkpt><trkpt lat="43.5958202174972" lon="11.387077173391436"><ele>341.0</ele><time>2026-04-29T23:39:54Z</time></trkpt><trkpt lat="43.5958827821638" lon="11.38682603020786"><ele>341.0</ele><time>2026-04-29T23:39:55Z</time></trkpt><trkpt lat="43.59596405574835" lon="11.386587277230019"><ele>341.0</ele><time>2026-04-29T23:39:56Z</time></trkpt><trkpt lat="43.59602897100914" lon="11.386348081546508"><ele>341.0</ele><time>2026-04-29T23:39:57Z</time></trkpt><trkpt lat="43.596094592580286" lon="11.386125939623234"><ele>345.33333333333337</ele><time>2026-04-29T23:39:58Z</time></trkpt><trkpt lat="43.596172803122485" lon="11.385911834824586"><ele>349.6666666666667</ele><time>2026-04-29T23:39:59Z</time></trkpt><trkpt lat="43.5962724346377" lon="11.385712904279828"><ele>354.0</ele><time>2026-04-29T23:40:00Z</time></trkpt><trkpt lat="43.59639814863647" lon="11.385537995921698"><ele>352.3333333333333</ele><time>2026-04-29T23:40:01Z</time></trkpt><trkpt lat="43.596524082386075" lon="11.385368811020255"><ele>350.66666666666663</ele><time>2026-04-29T23:40:02Z</time></trkpt><trkpt lat="43.5966434421539" lon="11.385193134406116"><ele>349.0</ele><time>2026-04-29T23:40:03Z</time></trkpt><trkpt lat="43.59676089458023" lon="11.385038605368688"><ele>349.0</ele><time>2026-04-29T23:40:04Z</time></trkpt><trkpt lat="43.596889456605275" lon="11.384943772925665"><ele>349.0</ele><time>2026-04-29T23:40:05Z</time></trkpt><trkpt lat="43.59703696415885" lon="11.38495505861061"><ele>349.0</ele><time>2026-04-29T23:40:06Z</time></trkpt><trkpt lat="43.59719304600069" lon="11.384948771576088"><ele>352.66666666666663</ele><time>2026-04-29T23:40:07Z</time></trkpt><trkpt lat="43.5973450271779" lon="11.38494537745132"><ele>356.3333333333333</ele><time>2026-04-29T23:40:08Z</time></trkpt><trkpt lat="43.59749540816476" lon="11.38492516935696"><ele>360.0</ele><time>2026-04-29T23:40:09Z</time></trkpt><trkpt lat="43.59764627705342" lon="11.384930074622824"><ele>360.0</ele><time>2026-04-29T23:40:10Z</time></trkpt><trkpt lat="43.59779366604249" lon="11.384888706994166"><ele>360.0</ele><time>2026-04-29T23:40:11Z</time></trkpt><trkpt lat="43.5979178833309" lon="11.38472414710125"><ele>360.0</ele><time>2026-04-29T23:40:12Z</time></trkpt><trkpt lat="43.59802529377416" lon="11.38456874839593"><ele>362.3333333333333</ele><time>2026-04-29T23:40:13Z</time></trkpt><trkpt lat="43.598129317324215" lon="11.384406966300498"><ele>364.66666666666663</ele><time>2026-04-29T23:40:14Z</time></trkpt><trkpt lat="43.59826596174039" lon="11.384316802651837"><ele>367.0</ele><time>2026-04-29T23:40:15Z</time></trkpt><trkpt lat="43.59841152005918" lon="11.384271779379644"><ele>367.0</ele><time>2026-04-29T23:40:15.999Z</time></trkpt><trkpt lat="43.598554858581394" lon="11.384191645896893"><ele>367.0</ele><time>2026-04-29T23:40:16.999Z</time></trkpt><trkpt lat="43.59869281243527" lon="11.384105517270912"><ele>367.0</ele><time>2026-04-29T23:40:17.999Z</time></trkpt><trkpt lat="43.59882255976222" lon="11.38398872259323"><ele>367.0</ele><time>2026-04-29T23:40:18.999Z</time></trkpt><trkpt lat="43.59895287741157" lon="11.3838738427535"><ele>367.0</ele><time>2026-04-29T23:40:19.999Z</time></trkpt><trkpt lat="43.5990886750333" lon="11.383761039321623"><ele>367.0</ele><time>2026-04-29T23:40:20.999Z</time></trkpt><trkpt lat="43.59922772239233" lon="11.38364301898351"><ele>367.0</ele><time>2026-04-29T23:40:21.999Z</time></trkpt><trkpt lat="43.5993657149552" lon="11.383526029646433"><ele>367.0</ele><time>2026-04-29T23:40:22.999Z</time></trkpt><trkpt lat="43.59952189935954" lon="11.383407202107604"><ele>367.0</ele><time>2026-04-29T23:40:23.999Z</time></trkpt><trkpt lat="43.599671153144634" lon="11.38328898092243"><ele>368.3333333333333</ele><time>2026-04-29T23:40:24.999Z</time></trkpt><trkpt lat="43.599809255356554" lon="11.383141028793396"><ele>369.6666666666667</ele><time>2026-04-29T23:40:25.999Z</time></trkpt><trkpt lat="43.599936748316935" lon="11.382966358793679"><ele>371.0</ele><time>2026-04-29T23:40:26.999Z</time></trkpt><trkpt lat="43.60003472394296" lon="11.382751665979583"><ele>371.0</ele><time>2026-04-29T23:40:27.999Z</time></trkpt><trkpt lat="43.600113381778336" lon="11.382506171490078"><ele>371.0</ele><time>2026-04-29T23:40:28.999Z</time></trkpt><trkpt lat="43.60020283125618" lon="11.38228565614655"><ele>371.0</ele><time>2026-04-29T23:40:29.999Z</time></trkpt><trkpt lat="43.60034036580215" lon="11.382107344191446"><ele>375.33333333333337</ele><time>2026-04-29T23:40:30.999Z</time></trkpt><trkpt lat="43.600483928775134" lon="11.381934868245912"><ele>379.6666666666667</ele><time>2026-04-29T23:40:31.999Z</time></trkpt><trkpt lat="43.60061127505744" lon="11.381751067657738"><ele>384.0</ele><time>2026-04-29T23:40:32.999Z</time></trkpt><trkpt lat="43.600749289282355" lon="11.38158114824763"><ele>384.0</ele><time>2026-04-29T23:40:33.999Z</time></trkpt><trkpt lat="43.60087273190156" lon="11.381399808122591"><ele>384.0</ele><time>2026-04-29T23:40:34.999Z</time></trkpt><trkpt lat="43.60098190858038" lon="11.38119483427214"><ele>384.0</ele><time>2026-04-29T23:40:35.999Z</time></trkpt><trkpt lat="43.60108700576213" lon="11.380998488777662"><ele>389.0</ele><time>2026-04-29T23:40:36.999Z</time></trkpt><trkpt lat="43.60119110741658" lon="11.380795881310544"><ele>394.0</ele><time>2026-04-29T23:40:37.999Z</time></trkpt><trkpt lat="43.60129224424721" lon="11.380607131569269"><ele>399.0</ele><time>2026-04-29T23:40:38.999Z</time></trkpt><trkpt lat="43.60138848300112" lon="11.380413153782635"><ele>399.0</ele><time>2026-04-29T23:40:39.999Z</time></trkpt><trkpt lat="43.60147842983796" lon="11.380220914917615"><ele>399.0</ele><time>2026-04-29T23:40:40.999Z</time></trkpt><trkpt lat="43.601570273499746" lon="11.380027541444148"><ele>399.0</ele><time>2026-04-29T23:40:41.999Z</time></trkpt><trkpt lat="43.60165631755786" lon="11.379829961688433"><ele>399.0</ele><time>2026-04-29T23:40:42.999Z</time></trkpt><trkpt lat="43.60170888536494" lon="11.379614295254543"><ele>399.0</ele><time>2026-04-29T23:40:43.999Z</time></trkpt><trkpt lat="43.60172273236341" lon="11.379375872042562"><ele>399.0</ele><time>2026-04-29T23:40:44.999Z</time></trkpt><trkpt lat="43.60170124039707" lon="11.379133258097434"><ele>399.0</ele><time>2026-04-29T23:40:45.999Z</time></trkpt><trkpt lat="43.60169966699992" lon="11.378894796342014"><ele>399.0</ele><time>2026-04-29T23:40:46.999Z</time></trkpt><trkpt lat="43.60171836636103" lon="11.378647407865934"><ele>399.0</ele><time>2026-04-29T23:40:47.999Z</time></trkpt><trkpt lat="43.601754203591845" lon="11.378410604231789"><ele>399.33333333333337</ele><time>2026-04-29T23:40:48.999Z</time></trkpt><trkpt lat="43.60180812511406" lon="11.378163621638059"><ele>399.6666666666667</ele><time>2026-04-29T23:40:49.999Z</time></trkpt><trkpt lat="43.60187865590571" lon="11.377907703304508"><ele>400.0</ele><time>2026-04-29T23:40:50.999Z</time></trkpt><trkpt lat="43.601949716878536" lon="11.377665701614283"><ele>401.6666666666667</ele><time>2026-04-29T23:40:51.999Z</time></trkpt><trkpt lat="43.60201432085586" lon="11.377424551076414"><ele>403.33333333333337</ele><time>2026-04-29T23:40:52.999Z</time></trkpt><trkpt lat="43.6020747262011" lon="11.377181320507203"><ele>405.0</ele><time>2026-04-29T23:40:53.999Z</time></trkpt><trkpt lat="43.60214082674477" lon="11.376929732876398"><ele>406.0</ele><time>2026-04-29T23:40:54.999Z</time></trkpt><trkpt lat="43.6022056569603" lon="11.376690932968295"><ele>407.0</ele><time>2026-04-29T23:40:55.999Z</time></trkpt><trkpt lat="43.602268931496766" lon="11.376452447524064"><ele>408.0</ele><time>2026-04-29T23:40:56.999Z</time></trkpt><trkpt lat="43.60232959863932" lon="11.37622100381427"><ele>410.0</ele><time>2026-04-29T23:40:57.999Z</time></trkpt><trkpt lat="43.6024044456677" lon="11.375987876022712"><ele>412.0</ele><time>2026-04-29T23:40:58.999Z</time></trkpt><trkpt lat="43.60245426762746" lon="11.375746562844714"><ele>414.0</ele><time>2026-04-29T23:40:59.999Z</time></trkpt><trkpt lat="43.60252410908" lon="11.375513407696715"><ele>414.66666666666663</ele><time>2026-04-29T23:41:00.999Z</time></trkpt><trkpt lat="43.60259702461947" lon="11.375288234820658"><ele>415.3333333333333</ele><time>2026-04-29T23:41:01.999Z</time></trkpt><trkpt lat="43.60264879173443" lon="11.37508724512456"><ele>416.0</ele><time>2026-04-29T23:41:02.999Z</time></trkpt><trkpt lat="43.60271461657382" lon="11.374827115442585"><ele>416.3333333333333</ele><time>2026-04-29T23:41:03.999Z</time></trkpt><trkpt lat="43.60278764461519" lon="11.37459558153034"><ele>416.66666666666663</ele><time>2026-04-29T23:41:04.999Z</time></trkpt><trkpt lat="43.60285344442952" lon="11.374360884211868"><ele>417.0</ele><time>2026-04-29T23:41:05.999Z</time></trkpt><trkpt lat="43.60292043132964" lon="11.374123874970252"><ele>417.66666666666663</ele><time>2026-04-29T23:41:06.999Z</time></trkpt><trkpt lat="43.602977562444444" lon="11.373894391455696"><ele>418.3333333333333</ele><time>2026-04-29T23:41:07.999Z</time></trkpt><trkpt lat="43.60303741321136" lon="11.373706395147225"><ele>419.0</ele><time>2026-04-29T23:41:08.999Z</time></trkpt><trkpt lat="43.603080200744415" lon="11.37353461691306"><ele>419.0</ele><time>2026-04-29T23:41:09.999Z</time></trkpt><trkpt lat="43.6030967487967" lon="11.373374964373145"><ele>419.0</ele><time>2026-04-29T23:41:10.999Z</time></trkpt><trkpt lat="43.60307949418136" lon="11.373227762441946"><ele>419.0</ele><time>2026-04-29T23:41:11.999Z</time></trkpt><trkpt lat="43.60302667716605" lon="11.373115161112542"><ele>419.0</ele><time>2026-04-29T23:41:12.999Z</time></trkpt><trkpt lat="43.60296652085978" lon="11.373015529494753"><ele>419.0</ele><time>2026-04-29T23:41:13.999Z</time></trkpt><trkpt lat="43.60284021018463" lon="11.373018928816633"><ele>419.75</ele><time>2026-04-29T23:41:14.999Z</time></trkpt><trkpt lat="43.60272091783707" lon="11.373036939629758"><ele>420.5</ele><time>2026-04-29T23:41:15.999Z</time></trkpt><trkpt lat="43.60261520172834" lon="11.37301554265397"><ele>421.25</ele><time>2026-04-29T23:41:16.999Z</time></trkpt><trkpt lat="43.60252033539742" lon="11.372917817959262"><ele>422.0</ele><time>2026-04-29T23:41:17.999Z</time></trkpt><trkpt lat="43.60250256291534" lon="11.37276175564064"><ele>425.25</ele><time>2026-04-29T23:41:18.999Z</time></trkpt><trkpt lat="43.60247014416939" lon="11.372608848361903"><ele>428.5</ele><time>2026-04-29T23:41:19.999Z</time></trkpt><trkpt lat="43.60242971241345" lon="11.372448957948192"><ele>431.75</ele><time>2026-04-29T23:41:20.999Z</time></trkpt><trkpt lat="43.60238018835821" lon="11.37229979533395"><ele>435.0</ele><time>2026-04-29T23:41:21.999Z</time></trkpt><trkpt lat="43.6022916792043" lon="11.372201326982246"><ele>435.0</ele><time>2026-04-29T23:41:22.999Z</time></trkpt><trkpt lat="43.602164534639876" lon="11.372162597326604"><ele>435.0</ele><time>2026-04-29T23:41:23.999Z</time></trkpt><trkpt lat="43.60203917374878" lon="11.37221306220383"><ele>435.0</ele><time>2026-04-29T23:41:24.999Z</time></trkpt><trkpt lat="43.601938229975175" lon="11.372287194308074"><ele>435.0</ele><time>2026-04-29T23:41:25.999Z</time></trkpt><trkpt lat="43.60181139038057" lon="11.372366929379787"><ele>436.25</ele><time>2026-04-29T23:41:26.999Z</time></trkpt><trkpt lat="43.601667282747535" lon="11.372382140958564"><ele>437.5</ele><time>2026-04-29T23:41:27.999Z</time></trkpt><trkpt lat="43.601527393030715" lon="11.372409063846042"><ele>438.75</ele><time>2026-04-29T23:41:28.999Z</time></trkpt><trkpt lat="43.6013806477045" lon="11.3723880622864"><ele>440.0</ele><time>2026-04-29T23:41:29.999Z</time></trkpt><trkpt lat="43.60123137967984" lon="11.372355377005656"><ele>443.0</ele><time>2026-04-29T23:41:30.999Z</time></trkpt><trkpt lat="43.60109401230084" lon="11.372337147287224"><ele>446.0</ele><time>2026-04-29T23:41:31.999Z</time></trkpt><trkpt lat="43.60098460880287" lon="11.37239825134032"><ele>449.0</ele><time>2026-04-29T23:41:32.999Z</time></trkpt><trkpt lat="43.60090350660408" lon="11.372512791693895"><ele>452.0</ele><time>2026-04-29T23:41:33.999Z</time></trkpt><trkpt lat="43.600859043771194" lon="11.372693123017541"><ele>452.0</ele><time>2026-04-29T23:41:34.999Z</time></trkpt><trkpt lat="43.600815843396596" lon="11.372866017830397"><ele>452.0</ele><time>2026-04-29T23:41:35.999Z</time></trkpt><trkpt lat="43.600802287517965" lon="11.373024281319388"><ele>452.0</ele><time>2026-04-29T23:41:36.999Z</time></trkpt><trkpt lat="43.60083748145464" lon="11.373174048477557"><ele>452.0</ele><time>2026-04-29T23:41:37.999Z</time></trkpt><trkpt lat="43.60094037111502" lon="11.373285972511134"><ele>451.8</ele><time>2026-04-29T23:41:38.999Z</time></trkpt><trkpt lat="43.6010415246584" lon="11.373370508630133"><ele>451.6</ele><time>2026-04-29T23:41:39.999Z</time></trkpt><trkpt lat="43.60110926217869" lon="11.373476172071005"><ele>451.40000000000003</ele><time>2026-04-29T23:41:40.999Z</time></trkpt><trkpt lat="43.60109134478527" lon="11.373619993819228"><ele>451.20000000000005</ele><time>2026-04-29T23:41:41.999Z</time></trkpt><trkpt lat="43.60102107464141" lon="11.373716777158588"><ele>451.0</ele><time>2026-04-29T23:41:42.999Z</time></trkpt><trkpt lat="43.60094274298785" lon="11.373795617518189"><ele>449.75</ele><time>2026-04-29T23:41:43.999Z</time></trkpt><trkpt lat="43.60083987423401" lon="11.373872328331469"><ele>448.5</ele><time>2026-04-29T23:41:44.999Z</time></trkpt><trkpt lat="43.600720157324055" lon="11.37390647031836"><ele>447.25</ele><time>2026-04-29T23:41:45.999Z</time></trkpt><trkpt lat="43.6006029500683" lon="11.373961526401498"><ele>446.0</ele><time>2026-04-29T23:41:46.998Z</time></trkpt><trkpt lat="43.60048594465059" lon="11.374048169935005"><ele>446.0</ele><time>2026-04-29T23:41:47.998Z</time></trkpt><trkpt lat="43.60037579745118" lon="11.374169142144364"><ele>446.0</ele><time>2026-04-29T23:41:48.998Z</time></trkpt><trkpt lat="43.600300723352525" lon="11.374345293373228"><ele>446.0</ele><time>2026-04-29T23:41:49.998Z</time></trkpt><trkpt lat="43.600220207334154" lon="11.374466974161269"><ele>446.0</ele><time>2026-04-29T23:41:50.998Z</time></trkpt><trkpt lat="43.60014222927541" lon="11.374535518664057"><ele>449.0</ele><time>2026-04-29T23:41:51.998Z</time></trkpt><trkpt lat="43.600061621074914" lon="11.374509787834839"><ele>452.0</ele><time>2026-04-29T23:41:52.998Z</time></trkpt><trkpt lat="43.59999758110894" lon="11.374425576891829"><ele>455.0</ele><time>2026-04-29T23:41:53.998Z</time></trkpt><trkpt lat="43.59997170950583" lon="11.374302807466604"><ele>458.0</ele><time>2026-04-29T23:41:54.998Z</time></trkpt><trkpt lat="43.600011143435694" lon="11.374157952652283"><ele>461.0</ele><time>2026-04-29T23:41:55.998Z</time></trkpt><trkpt lat="43.60003641698144" lon="11.373995020342306"><ele>461.0</ele><time>2026-04-29T23:41:56.998Z</time></trkpt><trkpt lat="43.600061030955054" lon="11.373829956875174"><ele>461.0</ele><time>2026-04-29T23:41:58Z</time></trkpt><trkpt lat="43.6000293860755" lon="11.373667823390516"><ele>461.0</ele><time>2026-04-29T23:41:59Z</time></trkpt><trkpt lat="43.59993677770736" lon="11.373531078559171"><ele>461.0</ele><time>2026-04-29T23:42:00Z</time></trkpt><trkpt lat="43.59980433620949" lon="11.373458501759044"><ele>461.0</ele><time>2026-04-29T23:42:01Z</time></trkpt><trkpt lat="43.59966785225609" lon="11.373432534316033"><ele>461.0</ele><time>2026-04-29T23:42:02Z</time></trkpt><trkpt lat="43.599517722745205" lon="11.37345232278354"><ele>461.0</ele><time>2026-04-29T23:42:03Z</time></trkpt><trkpt lat="43.599371675142514" lon="11.3734366560586"><ele>461.0</ele><time>2026-04-29T23:42:04Z</time></trkpt><trkpt lat="43.59922679520761" lon="11.373413825150482"><ele>463.75</ele><time>2026-04-29T23:42:05Z</time></trkpt><trkpt lat="43.59908819856724" lon="11.373363256671036"><ele>466.5</ele><time>2026-04-29T23:42:06Z</time></trkpt><trkpt lat="43.598971758601124" lon="11.373294465301834"><ele>469.25</ele><time>2026-04-29T23:42:07Z</time></trkpt><trkpt lat="43.59888144392623" lon="11.373226987910673"><ele>472.0</ele><time>2026-04-29T23:42:08Z</time></trkpt><trkpt lat="43.598862370816185" lon="11.373077294628747"><ele>471.5</ele><time>2026-04-29T23:42:09Z</time></trkpt><trkpt lat="43.59890587672067" lon="11.372932208824476"><ele>471.0</ele><time>2026-04-29T23:42:10Z</time></trkpt><trkpt lat="43.598924921040634" lon="11.372760892115299"><ele>470.5</ele><time>2026-04-29T23:42:11Z</time></trkpt><trkpt lat="43.59894988031629" lon="11.372594472660053"><ele>470.0</ele><time>2026-04-29T23:42:12Z</time></trkpt><trkpt lat="43.59893609268544" lon="11.372422920501444"><ele>470.0</ele><time>2026-04-29T23:42:13Z</time></trkpt><trkpt lat="43.59888711704442" lon="11.372268040995637"><ele>470.0</ele><time>2026-04-29T23:42:14Z</time></trkpt><trkpt lat="43.59880563476972" lon="11.372147461463515"><ele>470.0</ele><time>2026-04-29T23:42:15Z</time></trkpt><trkpt lat="43.59868751108218" lon="11.372086919035631"><ele>470.0</ele><time>2026-04-29T23:42:16Z</time></trkpt><trkpt lat="43.598562653272296" lon="11.37206594941489"><ele>471.25</ele><time>2026-04-29T23:42:17Z</time></trkpt><trkpt lat="43.59843045081691" lon="11.372058879597242"><ele>472.5</ele><time>2026-04-29T23:42:17.999Z</time></trkpt><trkpt lat="43.59830077204675" lon="11.372103149986325"><ele>473.75</ele><time>2026-04-29T23:42:18.999Z</time></trkpt><trkpt lat="43.59818704335661" lon="11.372129092562357"><ele>475.0</ele><time>2026-04-29T23:42:19.999Z</time></trkpt><trkpt lat="43.59809940508565" lon="11.372042343633758"><ele>475.0</ele><time>2026-04-29T23:42:20.999Z</time></trkpt><trkpt lat="43.5980788652771" lon="11.371875449765325"><ele>475.0</ele><time>2026-04-29T23:42:21.999Z</time></trkpt><trkpt lat="43.59808754974906" lon="11.371711899108494"><ele>475.0</ele><time>2026-04-29T23:42:22.999Z</time></trkpt><trkpt lat="43.59811876249376" lon="11.371560456801374"><ele>475.0</ele><time>2026-04-29T23:42:23.999Z</time></trkpt><trkpt lat="43.59814906854605" lon="11.371358566691512"><ele>476.75</ele><time>2026-04-29T23:42:24.999Z</time></trkpt><trkpt lat="43.59820279260238" lon="11.371179070723818"><ele>478.5</ele><time>2026-04-29T23:42:25.999Z</time></trkpt><trkpt lat="43.59829540762975" lon="11.371022937348199"><ele>480.25</ele><time>2026-04-29T23:42:26.999Z</time></trkpt><trkpt lat="43.59839837712508" lon="11.370879204820183"><ele>482.0</ele><time>2026-04-29T23:42:27.999Z</time></trkpt><trkpt lat="43.59851338905659" lon="11.370751168882682"><ele>482.0</ele><time>2026-04-29T23:42:28.999Z</time></trkpt><trkpt lat="43.59863172732974" lon="11.370615368003621"><ele>482.0</ele><time>2026-04-29T23:42:29.999Z</time></trkpt><trkpt lat="43.59877630609724" lon="11.370537224886883"><ele>482.0</ele><time>2026-04-29T23:42:30.999Z</time></trkpt><trkpt lat="43.59891818537482" lon="11.370561816619432"><ele>482.5</ele><time>2026-04-29T23:42:31.999Z</time></trkpt><trkpt lat="43.59905161272132" lon="11.370642562352353"><ele>483.0</ele><time>2026-04-29T23:42:32.999Z</time></trkpt><trkpt lat="43.59918125538546" lon="11.370664625438053"><ele>483.5</ele><time>2026-04-29T23:42:33.999Z</time></trkpt><trkpt lat="43.59930110517426" lon="11.370645448299177"><ele>484.0</ele><time>2026-04-29T23:42:34.999Z</time></trkpt><trkpt lat="43.59940988389715" lon="11.370533207707691"><ele>485.75</ele><time>2026-04-29T23:42:35.999Z</time></trkpt><trkpt lat="43.59949018353239" lon="11.370391683718237"><ele>487.5</ele><time>2026-04-29T23:42:36.999Z</time></trkpt><trkpt lat="43.59953470035797" lon="11.370207346195134"><ele>489.25</ele><time>2026-04-29T23:42:37.999Z</time></trkpt><trkpt lat="43.599532868113535" lon="11.370011042301563"><ele>491.0</ele><time>2026-04-29T23:42:38.999Z</time></trkpt><trkpt lat="43.599574140427734" lon="11.369829856417025"><ele>493.5</ele><time>2026-04-29T23:42:39.999Z</time></trkpt><trkpt lat="43.5996463936248" lon="11.369687738878303"><ele>496.0</ele><time>2026-04-29T23:42:40.999Z</time></trkpt><trkpt lat="43.59974865628156" lon="11.369566055032903"><ele>498.5</ele><time>2026-04-29T23:42:41.999Z</time></trkpt><trkpt lat="43.59989805493439" lon="11.36953539339532"><ele>501.0</ele><time>2026-04-29T23:42:42.999Z</time></trkpt><trkpt lat="43.60002191197635" lon="11.369556392720462"><ele>501.0</ele><time>2026-04-29T23:42:43.999Z</time></trkpt><trkpt lat="43.60011808937397" lon="11.369678143877772"><ele>501.0</ele><time>2026-04-29T23:42:44.999Z</time></trkpt><trkpt lat="43.60020736149118" lon="11.369772917628657"><ele>501.0</ele><time>2026-04-29T23:42:45.999Z</time></trkpt><trkpt lat="43.60035189065905" lon="11.369951149989713"><ele>501.0</ele><time>2026-04-29T23:42:46.999Z</time></trkpt><trkpt lat="43.60046961533947" lon="11.370017853168768"><ele>500.75</ele><time>2026-04-29T23:42:47.999Z</time></trkpt><trkpt lat="43.60056626572724" lon="11.37001083903518"><ele>500.5</ele><time>2026-04-29T23:42:48.999Z</time></trkpt><trkpt lat="43.600665050560764" lon="11.369900944751352"><ele>500.25</ele><time>2026-04-29T23:42:49.999Z</time></trkpt><trkpt lat="43.60073613306421" lon="11.369732600620626"><ele>500.0</ele><time>2026-04-29T23:42:50.999Z</time></trkpt><trkpt lat="43.60079000543799" lon="11.369557404820545"><ele>500.0</ele><time>2026-04-29T23:42:51.999Z</time></trkpt><trkpt lat="43.600835971715654" lon="11.369375095201425"><ele>500.0</ele><time>2026-04-29T23:42:52.999Z</time></trkpt><trkpt lat="43.60086801737651" lon="11.369183672025132"><ele>500.0</ele><time>2026-04-29T23:42:53.999Z</time></trkpt><trkpt lat="43.60087085482647" lon="11.3690039300666"><ele>500.0</ele><time>2026-04-29T23:42:54.999Z</time></trkpt><trkpt lat="43.60082215913091" lon="11.368841164931208"><ele>499.0</ele><time>2026-04-29T23:42:55.999Z</time></trkpt><trkpt lat="43.600723789516955" lon="11.368701416160361"><ele>498.0</ele><time>2026-04-29T23:42:56.999Z</time></trkpt><trkpt lat="43.60059559761408" lon="11.368582409404729"><ele>497.0</ele><time>2026-04-29T23:42:57.999Z</time></trkpt><trkpt lat="43.60047119919992" lon="11.368450535294423"><ele>497.0</ele><time>2026-04-29T23:42:58.999Z</time></trkpt><trkpt lat="43.60033871815526" lon="11.368322896154758"><ele>497.0</ele><time>2026-04-29T23:42:59.999Z</time></trkpt><trkpt lat="43.60019493377377" lon="11.368230167861558"><ele>497.0</ele><time>2026-04-29T23:43:00.999Z</time></trkpt><trkpt lat="43.60009322654184" lon="11.368064149153497"><ele>499.5</ele><time>2026-04-29T23:43:01.999Z</time></trkpt><trkpt lat="43.600058028267895" lon="11.367848573797763"><ele>502.0</ele><time>2026-04-29T23:43:02.999Z</time></trkpt><trkpt lat="43.599989785031404" lon="11.367686423864159"><ele>504.5</ele><time>2026-04-29T23:43:03.999Z</time></trkpt><trkpt lat="43.59991216141023" lon="11.367536764212113"><ele>507.0</ele><time>2026-04-29T23:43:04.999Z</time></trkpt><trkpt lat="43.59978193383477" lon="11.367441323094505"><ele>507.0</ele><time>2026-04-29T23:43:05.999Z</time></trkpt><trkpt lat="43.59961958577378" lon="11.367374921571502"><ele>507.0</ele><time>2026-04-29T23:43:06.999Z</time></trkpt><trkpt lat="43.59947541453465" lon="11.367274896949908"><ele>507.0</ele><time>2026-04-29T23:43:07.999Z</time></trkpt><trkpt lat="43.599340428289146" lon="11.367144462303793"><ele>510.33333333333337</ele><time>2026-04-29T23:43:08.999Z</time></trkpt><trkpt lat="43.59920726529231" lon="11.367012557619425"><ele>513.6666666666667</ele><time>2026-04-29T23:43:09.999Z</time></trkpt><trkpt lat="43.59907755630037" lon="11.366871478956167"><ele>517.0</ele><time>2026-04-29T23:43:10.999Z</time></trkpt><trkpt lat="43.59896218607152" lon="11.366733372944655"><ele>517.0</ele><time>2026-04-29T23:43:11.999Z</time></trkpt><trkpt lat="43.5988997207976" lon="11.366569983510567"><ele>517.0</ele><time>2026-04-29T23:43:12.999Z</time></trkpt><trkpt lat="43.59891671615726" lon="11.366384212213092"><ele>517.0</ele><time>2026-04-29T23:43:13.999Z</time></trkpt><trkpt lat="43.598959578513075" lon="11.366195505239766"><ele>517.0</ele><time>2026-04-29T23:43:14.999Z</time></trkpt><trkpt lat="43.598996194194434" lon="11.365999386393332"><ele>517.5</ele><time>2026-04-29T23:43:15.999Z</time></trkpt><trkpt lat="43.59904866326175" lon="11.365816084003953"><ele>518.0</ele><time>2026-04-29T23:43:16.999Z</time></trkpt><trkpt lat="43.59905822654042" lon="11.365621117226464"><ele>518.5</ele><time>2026-04-29T23:43:17.999Z</time></trkpt><trkpt lat="43.59901517543355" lon="11.365429466103313"><ele>519.0</ele><time>2026-04-29T23:43:18.999Z</time></trkpt><trkpt lat="43.598927705957905" lon="11.365243066474768"><ele>519.0</ele><time>2026-04-29T23:43:19.999Z</time></trkpt><trkpt lat="43.598824685426685" lon="11.365073524072278"><ele>519.0</ele><time>2026-04-29T23:43:20.999Z</time></trkpt><trkpt lat="43.59870047631843" lon="11.364931656261415"><ele>519.0</ele><time>2026-04-29T23:43:21.999Z</time></trkpt><trkpt lat="43.59855897196427" lon="11.364807086631386"><ele>523.0</ele><time>2026-04-29T23:43:22.999Z</time></trkpt><trkpt lat="43.59843640534395" lon="11.364656810569972"><ele>527.0</ele><time>2026-04-29T23:43:23.999Z</time></trkpt><trkpt lat="43.598323694183385" lon="11.364507738810088"><ele>531.0</ele><time>2026-04-29T23:43:24.999Z</time></trkpt><trkpt lat="43.59826272097267" lon="11.364328916265539"><ele>531.0</ele><time>2026-04-29T23:43:25.999Z</time></trkpt><trkpt lat="43.59824837632293" lon="11.364120126083236"><ele>531.0</ele><time>2026-04-29T23:43:26.999Z</time></trkpt><trkpt lat="43.598224436756624" lon="11.36391227551536"><ele>531.0</ele><time>2026-04-29T23:43:27.999Z</time></trkpt><trkpt lat="43.598205072366184" lon="11.36370007198407"><ele>531.3333333333334</ele><time>2026-04-29T23:43:28.999Z</time></trkpt><trkpt lat="43.59813486136939" lon="11.363501759934325"><ele>531.6666666666667</ele><time>2026-04-29T23:43:29.999Z</time></trkpt><trkpt lat="43.59803439530982" lon="11.363339418950265"><ele>532.0</ele><time>2026-04-29T23:43:30.999Z</time></trkpt><trkpt lat="43.59788970869858" lon="11.363222077591521"><ele>532.0</ele><time>2026-04-29T23:43:31.999Z</time></trkpt><trkpt lat="43.59773674241766" lon="11.36314197300778"><ele>532.0</ele><time>2026-04-29T23:43:32.999Z</time></trkpt><trkpt lat="43.59756791462705" lon="11.363104648641313"><ele>532.0</ele><time>2026-04-29T23:43:33.999Z</time></trkpt><trkpt lat="43.59739667632876" lon="11.363065257252345"><ele>530.0</ele><time>2026-04-29T23:43:34.999Z</time></trkpt><trkpt lat="43.59723243405098" lon="11.363018550203556"><ele>528.0</ele><time>2026-04-29T23:43:35.999Z</time></trkpt><trkpt lat="43.597090074141114" lon="11.362935701117735"><ele>526.0</ele><time>2026-04-29T23:43:36.999Z</time></trkpt><trkpt lat="43.59695097904552" lon="11.362872655638007"><ele>526.0</ele><time>2026-04-29T23:43:37.999Z</time></trkpt><trkpt lat="43.59684753985256" lon="11.362730853865886"><ele>526.0</ele><time>2026-04-29T23:43:38.999Z</time></trkpt><trkpt lat="43.59677021430118" lon="11.362572612028929"><ele>526.0</ele><time>2026-04-29T23:43:39.999Z</time></trkpt><trkpt lat="43.59671070231507" lon="11.362397568567708"><ele>526.0</ele><time>2026-04-29T23:43:40.999Z</time></trkpt><trkpt lat="43.59663519875006" lon="11.362249656088665"><ele>520.5</ele><time>2026-04-29T23:43:41.999Z</time></trkpt><trkpt lat="43.59654847383846" lon="11.362153780375479"><ele>515.0</ele><time>2026-04-29T23:43:42.999Z</time></trkpt><trkpt lat="43.59642962196766" lon="11.362115634656046"><ele>509.5</ele><time>2026-04-29T23:43:43.999Z</time></trkpt><trkpt lat="43.59629080007753" lon="11.362127606618744"><ele>504.0</ele><time>2026-04-29T23:43:44.999Z</time></trkpt><trkpt lat="43.59614561738856" lon="11.362159485234258"><ele>510.33333333333337</ele><time>2026-04-29T23:43:45.999Z</time></trkpt><trkpt lat="43.59599729477055" lon="11.362211683946681"><ele>516.6666666666667</ele><time>2026-04-29T23:43:46.999Z</time></trkpt><trkpt lat="43.595853686000034" lon="11.36231361794438"><ele>523.0</ele><time>2026-04-29T23:43:47.999Z</time></trkpt><trkpt lat="43.59571590618882" lon="11.362435085857527"><ele>523.0</ele><time>2026-04-29T23:43:48.998Z</time></trkpt><trkpt lat="43.5955603350493" lon="11.362542494812704"><ele>523.0</ele><time>2026-04-29T23:43:49.998Z</time></trkpt><trkpt lat="43.59540603410661" lon="11.362668513867225"><ele>523.0</ele><time>2026-04-29T23:43:50.998Z</time></trkpt><trkpt lat="43.59525977394585" lon="11.362792505678957"><ele>524.6666666666667</ele><time>2026-04-29T23:43:51.998Z</time></trkpt><trkpt lat="43.59509336352047" lon="11.36287642815128"><ele>526.3333333333334</ele><time>2026-04-29T23:43:52.998Z</time></trkpt><trkpt lat="43.594927151885" lon="11.362962176844581"><ele>528.0</ele><time>2026-04-29T23:43:53.998Z</time></trkpt><trkpt lat="43.59478007847825" lon="11.363104589724786"><ele>528.0</ele><time>2026-04-29T23:43:54.998Z</time></trkpt><trkpt lat="43.594659052439944" lon="11.363287187916512"><ele>528.0</ele><time>2026-04-29T23:43:55.998Z</time></trkpt><trkpt lat="43.594520884501286" lon="11.363395270140087"><ele>528.0</ele><time>2026-04-29T23:43:56.998Z</time></trkpt><trkpt lat="43.59438422438069" lon="11.363466940586308"><ele>525.3333333333334</ele><time>2026-04-29T23:43:57.998Z</time></trkpt><trkpt lat="43.59422756974451" lon="11.363496985783268"><ele>522.6666666666667</ele><time>2026-04-29T23:43:58.998Z</time></trkpt><trkpt lat="43.59407451696915" lon="11.363447033681583"><ele>520.0</ele><time>2026-04-29T23:43:59.998Z</time></trkpt><trkpt lat="43.593917609666896" lon="11.363359792403452"><ele>520.0</ele><time>2026-04-29T23:44:00.998Z</time></trkpt><trkpt lat="43.59375882956523" lon="11.363298027583552"><ele>520.0</ele><time>2026-04-29T23:44:01.998Z</time></trkpt><trkpt lat="43.593607271396756" lon="11.363201651129772"><ele>520.0</ele><time>2026-04-29T23:44:02.998Z</time></trkpt><trkpt lat="43.59343521860501" lon="11.363182082339328"><ele>522.3333333333334</ele><time>2026-04-29T23:44:04Z</time></trkpt><trkpt lat="43.59326252428291" lon="11.363214828076392"><ele>524.6666666666666</ele><time>2026-04-29T23:44:05Z</time></trkpt><trkpt lat="43.59309019071192" lon="11.363263061780223"><ele>527.0</ele><time>2026-04-29T23:44:06Z</time></trkpt><trkpt lat="43.59293187760894" lon="11.36327654736077"><ele>529.0</ele><time>2026-04-29T23:44:07Z</time></trkpt><trkpt lat="43.59279565767935" lon="11.363290375186155"><ele>531.0</ele><time>2026-04-29T23:44:08Z</time></trkpt><trkpt lat="43.592670677980514" lon="11.36329263708045"><ele>533.0</ele><time>2026-04-29T23:44:09Z</time></trkpt><trkpt lat="43.59256464126671" lon="11.363266615904209"><ele>535.0</ele><time>2026-04-29T23:44:10Z</time></trkpt><trkpt lat="43.592485689342254" lon="11.363186517842413"><ele>535.0</ele><time>2026-04-29T23:44:11Z</time></trkpt><trkpt lat="43.59243656414476" lon="11.363035884945951"><ele>535.0</ele><time>2026-04-29T23:44:12Z</time></trkpt><trkpt lat="43.5924768035497" lon="11.36285925271943"><ele>535.0</ele><time>2026-04-29T23:44:13Z</time></trkpt><trkpt lat="43.59251441254529" lon="11.36269173609401"><ele>535.0</ele><time>2026-04-29T23:44:14Z</time></trkpt><trkpt lat="43.59256400797033" lon="11.362503978487322"><ele>534.0</ele><time>2026-04-29T23:44:15Z</time></trkpt><trkpt lat="43.59263893326145" lon="11.362315761174221"><ele>533.0</ele><time>2026-04-29T23:44:16Z</time></trkpt><trkpt lat="43.592707623593164" lon="11.362127014679654"><ele>532.0</ele><time>2026-04-29T23:44:17Z</time></trkpt><trkpt lat="43.59279056380507" lon="11.361932740039178"><ele>518.3333333333334</ele><time>2026-04-29T23:44:18Z</time></trkpt><trkpt lat="43.59286952986444" lon="11.361728766702633"><ele>504.66666666666663</ele><time>2026-04-29T23:44:19Z</time></trkpt><trkpt lat="43.59290709529829" lon="11.36152959829475"><ele>491.0</ele><time>2026-04-29T23:44:20Z</time></trkpt><trkpt lat="43.59293033925583" lon="11.361327357551094"><ele>489.0</ele><time>2026-04-29T23:44:21Z</time></trkpt><trkpt lat="43.59292550032727" lon="11.361136410421595"><ele>487.0</ele><time>2026-04-29T23:44:21.999Z</time></trkpt><trkpt lat="43.592889289047555" lon="11.360969392339813"><ele>485.0</ele><time>2026-04-29T23:44:22.999Z</time></trkpt><trkpt lat="43.592814151816704" lon="11.360838784736744"><ele>483.0</ele><time>2026-04-29T23:44:23.999Z</time></trkpt><trkpt lat="43.5927061560566" lon="11.360752071469753"><ele>489.25</ele><time>2026-04-29T23:44:24.999Z</time></trkpt><trkpt lat="43.59258429356163" lon="11.360690920356438"><ele>495.5</ele><time>2026-04-29T23:44:25.999Z</time></trkpt><trkpt lat="43.59245631023519" lon="11.360634954827141"><ele>501.75</ele><time>2026-04-29T23:44:26.999Z</time></trkpt><trkpt lat="43.592369494309665" lon="11.360513503484214"><ele>508.0</ele><time>2026-04-29T23:44:27.999Z</time></trkpt><trkpt lat="43.59237882488679" lon="11.360322631874249"><ele>508.0</ele><time>2026-04-29T23:44:28.999Z</time></trkpt><trkpt lat="43.59240422239051" lon="11.360148517843918"><ele>508.0</ele><time>2026-04-29T23:44:29.999Z</time></trkpt><trkpt lat="43.59242985164477" lon="11.359953559857873"><ele>508.0</ele><time>2026-04-29T23:44:30.999Z</time></trkpt><trkpt lat="43.592458557408925" lon="11.35974087085833"><ele>508.0</ele><time>2026-04-29T23:44:31.999Z</time></trkpt><trkpt lat="43.59249564090821" lon="11.35952769940086"><ele>507.75</ele><time>2026-04-29T23:44:32.999Z</time></trkpt><trkpt lat="43.59255438436049" lon="11.359319040742022"><ele>507.5</ele><time>2026-04-29T23:44:33.999Z</time></trkpt><trkpt lat="43.59264112312128" lon="11.35918793079413"><ele>507.25</ele><time>2026-04-29T23:44:34.999Z</time></trkpt><trkpt lat="43.59270605235541" lon="11.35904208218784"><ele>507.0</ele><time>2026-04-29T23:44:35.999Z</time></trkpt><trkpt lat="43.59276951366475" lon="11.358914886173304"><ele>506.0</ele><time>2026-04-29T23:44:36.999Z</time></trkpt><trkpt lat="43.59277113351328" lon="11.35876720575867"><ele>505.0</ele><time>2026-04-29T23:44:37.999Z</time></trkpt><trkpt lat="43.59271953878084" lon="11.358612828947855"><ele>504.0</ele><time>2026-04-29T23:44:38.999Z</time></trkpt><trkpt lat="43.59261061679263" lon="11.358462139165821"><ele>503.0</ele><time>2026-04-29T23:44:39.999Z</time></trkpt><trkpt lat="43.59252112403194" lon="11.358304822861108"><ele>503.0</ele><time>2026-04-29T23:44:40.999Z</time></trkpt><trkpt lat="43.59245577500308" lon="11.358104305214557"><ele>503.0</ele><time>2026-04-29T23:44:41.999Z</time></trkpt><trkpt lat="43.59241447836179" lon="11.35788093627316"><ele>503.0</ele><time>2026-04-29T23:44:42.999Z</time></trkpt><trkpt lat="43.59237979460824" lon="11.357651238820395"><ele>497.0</ele><time>2026-04-29T23:44:43.999Z</time></trkpt><trkpt lat="43.59234140304938" lon="11.35740468338393"><ele>491.0</ele><time>2026-04-29T23:44:44.999Z</time></trkpt><trkpt lat="43.59230747503642" lon="11.357170066706017"><ele>485.0</ele><time>2026-04-29T23:44:45.999Z</time></trkpt><trkpt lat="43.59227619832179" lon="11.356956756857741"><ele>482.5</ele><time>2026-04-29T23:44:46.999Z</time></trkpt><trkpt lat="43.59224121814839" lon="11.356749764415747"><ele>480.0</ele><time>2026-04-29T23:44:47.999Z</time></trkpt><trkpt lat="43.592195219887415" lon="11.356561072030928"><ele>477.5</ele><time>2026-04-29T23:44:48.999Z</time></trkpt><trkpt lat="43.59211401922133" lon="11.356405019296142"><ele>475.0</ele><time>2026-04-29T23:44:49.999Z</time></trkpt><trkpt lat="43.59197810470482" lon="11.356294873028348"><ele>475.0</ele><time>2026-04-29T23:44:50.999Z</time></trkpt><trkpt lat="43.591830531655766" lon="11.356215876220176"><ele>475.0</ele><time>2026-04-29T23:44:51.999Z</time></trkpt><trkpt lat="43.59169168121395" lon="11.356114189809785"><ele>475.0</ele><time>2026-04-29T23:44:52.999Z</time></trkpt><trkpt lat="43.59161258739307" lon="11.355940707302901"><ele>475.0</ele><time>2026-04-29T23:44:53.999Z</time></trkpt><trkpt lat="43.59153830185317" lon="11.355814620218236"><ele>475.0</ele><time>2026-04-29T23:44:54.999Z</time></trkpt><trkpt lat="43.59146173477881" lon="11.35571198271958"><ele>475.0</ele><time>2026-04-29T23:44:55.999Z</time></trkpt><trkpt lat="43.59134832060545" lon="11.35569811293459"><ele>475.0</ele><time>2026-04-29T23:44:56.999Z</time></trkpt><trkpt lat="43.591217913264515" lon="11.355742422617412"><ele>475.75</ele><time>2026-04-29T23:44:57.999Z</time></trkpt><trkpt lat="43.59108149208161" lon="11.355776511035492"><ele>476.5</ele><time>2026-04-29T23:44:58.999Z</time></trkpt><trkpt lat="43.59095044853711" lon="11.355773393649095"><ele>477.25</ele><time>2026-04-29T23:44:59.999Z</time></trkpt><trkpt lat="43.59084539723293" lon="11.3557059983994"><ele>478.0</ele><time>2026-04-29T23:45:00.999Z</time></trkpt><trkpt lat="43.59076035990929" lon="11.355601097241838"><ele>478.25</ele><time>2026-04-29T23:45:01.999Z</time></trkpt><trkpt lat="43.59073244952248" lon="11.355440988314445"><ele>478.5</ele><time>2026-04-29T23:45:02.999Z</time></trkpt><trkpt lat="43.59076577311382" lon="11.355270241553486"><ele>478.75</ele><time>2026-04-29T23:45:03.999Z</time></trkpt><trkpt lat="43.59085464501724" lon="11.355147563602866"><ele>479.0</ele><time>2026-04-29T23:45:04.999Z</time></trkpt><trkpt lat="43.59096821351681" lon="11.355060640597818"><ele>479.0</ele><time>2026-04-29T23:45:05.999Z</time></trkpt><trkpt lat="43.59109869001457" lon="11.354980790139118"><ele>479.0</ele><time>2026-04-29T23:45:06.999Z</time></trkpt><trkpt lat="43.591241884222235" lon="11.354916689433281"><ele>479.0</ele><time>2026-04-29T23:45:07.999Z</time></trkpt><trkpt lat="43.59137573492314" lon="11.354835690920796"><ele>479.0</ele><time>2026-04-29T23:45:08.999Z</time></trkpt><trkpt lat="43.59151721023721" lon="11.354761608073089"><ele>480.66666666666663</ele><time>2026-04-29T23:45:09.999Z</time></trkpt><trkpt lat="43.591653052656405" lon="11.3546514151682"><ele>482.33333333333337</ele><time>2026-04-29T23:45:10.999Z</time></trkpt><trkpt lat="43.59177391676608" lon="11.354498172126958"><ele>484.0</ele><time>2026-04-29T23:45:11.999Z</time></trkpt><trkpt lat="43.59190897339378" lon="11.354371203504304"><ele>478.0</ele><time>2026-04-29T23:45:12.999Z</time></trkpt><trkpt lat="43.59206709299049" lon="11.354335893532786"><ele>472.0</ele><time>2026-04-29T23:45:13.999Z</time></trkpt><trkpt lat="43.592216534306" lon="11.354297590871914"><ele>466.0</ele><time>2026-04-29T23:45:14.999Z</time></trkpt><trkpt lat="43.59234516651444" lon="11.354215606274185"><ele>466.0</ele><time>2026-04-29T23:45:15.999Z</time></trkpt><trkpt lat="43.59244506836216" lon="11.354068632275194"><ele>466.0</ele><time>2026-04-29T23:45:16.999Z</time></trkpt><trkpt lat="43.592534008381925" lon="11.35388700073865"><ele>466.0</ele><time>2026-04-29T23:45:17.999Z</time></trkpt><trkpt lat="43.5926502167143" lon="11.353724867977936"><ele>467.0</ele><time>2026-04-29T23:45:18.999Z</time></trkpt><trkpt lat="43.59277403787086" lon="11.35359341703305"><ele>468.0</ele><time>2026-04-29T23:45:19.999Z</time></trkpt><trkpt lat="43.592872579272" lon="11.353455054650158"><ele>469.0</ele><time>2026-04-29T23:45:20.999Z</time></trkpt><trkpt lat="43.59294520382467" lon="11.353291321116366"><ele>470.0</ele><time>2026-04-29T23:45:21.999Z</time></trkpt><trkpt lat="43.59297991846848" lon="11.353097336685032"><ele>468.0</ele><time>2026-04-29T23:45:22.999Z</time></trkpt><trkpt lat="43.59300138466017" lon="11.352884724387842"><ele>466.0</ele><time>2026-04-29T23:45:23.999Z</time></trkpt><trkpt lat="43.593038859250434" lon="11.352674379999522"><ele>464.0</ele><time>2026-04-29T23:45:24.999Z</time></trkpt><trkpt lat="43.59316613016998" lon="11.352534552785702"><ele>464.0</ele><time>2026-04-29T23:45:25.999Z</time></trkpt><trkpt lat="43.59327282495822" lon="11.352361982040751"><ele>464.0</ele><time>2026-04-29T23:45:26.999Z</time></trkpt><trkpt lat="43.59337992541902" lon="11.352179797424293"><ele>464.0</ele><time>2026-04-29T23:45:27.999Z</time></trkpt><trkpt lat="43.59347283923328" lon="11.351987818586723"><ele>467.0</ele><time>2026-04-29T23:45:28.999Z</time></trkpt><trkpt lat="43.59354811509923" lon="11.351763059714234"><ele>470.0</ele><time>2026-04-29T23:45:29.999Z</time></trkpt><trkpt lat="43.59361360207905" lon="11.351537682936028"><ele>473.0</ele><time>2026-04-29T23:45:30.999Z</time></trkpt><trkpt lat="43.59366269428158" lon="11.351319399644426"><ele>473.0</ele><time>2026-04-29T23:45:31.999Z</time></trkpt><trkpt lat="43.593684321795884" lon="11.351097618858025"><ele>473.0</ele><time>2026-04-29T23:45:32.999Z</time></trkpt><trkpt lat="43.59367758179293" lon="11.350863727358819"><ele>473.0</ele><time>2026-04-29T23:45:33.999Z</time></trkpt><trkpt lat="43.593629560267274" lon="11.350656944604344"><ele>470.3333333333333</ele><time>2026-04-29T23:45:34.999Z</time></trkpt><trkpt lat="43.59354330227339" lon="11.350450911864442"><ele>467.66666666666663</ele><time>2026-04-29T23:45:35.999Z</time></trkpt><trkpt lat="43.59344394762947" lon="11.350262936721359"><ele>465.0</ele><time>2026-04-29T23:45:36.999Z</time></trkpt><trkpt lat="43.593384452337006" lon="11.350046567111312"><ele>465.0</ele><time>2026-04-29T23:45:37.999Z</time></trkpt><trkpt lat="43.59335756267181" lon="11.349831872202722"><ele>465.0</ele><time>2026-04-29T23:45:38.999Z</time></trkpt><trkpt lat="43.593367234905244" lon="11.349616030150498"><ele>465.0</ele><time>2026-04-29T23:45:39.999Z</time></trkpt><trkpt lat="43.59342713109487" lon="11.349418818640407"><ele>462.75</ele><time>2026-04-29T23:45:40.999Z</time></trkpt><trkpt lat="43.59346481016826" lon="11.349231031360926"><ele>460.5</ele><time>2026-04-29T23:45:41.999Z</time></trkpt><trkpt lat="43.5934861077447" lon="11.34906768342849"><ele>458.25</ele><time>2026-04-29T23:45:42.999Z</time></trkpt><trkpt lat="43.59348063856898" lon="11.348878571453428"><ele>456.0</ele><time>2026-04-29T23:45:43.999Z</time></trkpt><trkpt lat="43.59341497477962" lon="11.348695426518594"><ele>452.0</ele><time>2026-04-29T23:45:44.999Z</time></trkpt><trkpt lat="43.593314608800135" lon="11.348525436453173"><ele>448.0</ele><time>2026-04-29T23:45:45.999Z</time></trkpt><trkpt lat="43.59324168040927" lon="11.348307987236794"><ele>444.0</ele><time>2026-04-29T23:45:46.999Z</time></trkpt><trkpt lat="43.59317501313913" lon="11.348111282826299"><ele>442.5</ele><time>2026-04-29T23:45:47.999Z</time></trkpt><trkpt lat="43.593137635429365" lon="11.34791422361795"><ele>441.0</ele><time>2026-04-29T23:45:48.999Z</time></trkpt><trkpt lat="43.59317129715104" lon="11.347737914388947"><ele>439.5</ele><time>2026-04-29T23:45:49.999Z</time></trkpt><trkpt lat="43.593206773210426" lon="11.34754332324748"><ele>438.0</ele><time>2026-04-29T23:45:50.999Z</time></trkpt><trkpt lat="43.59323154174856" lon="11.347357948850487"><ele>434.5</ele><time>2026-04-29T23:45:51.999Z</time></trkpt><trkpt lat="43.59322665916505" lon="11.347178480185415"><ele>431.0</ele><time>2026-04-29T23:45:52.999Z</time></trkpt><trkpt lat="43.59315739518537" lon="11.347008605244305"><ele>427.5</ele><time>2026-04-29T23:45:53.999Z</time></trkpt><trkpt lat="43.59303965734227" lon="11.346860509455166"><ele>424.0</ele><time>2026-04-29T23:45:54.998Z</time></trkpt><trkpt lat="43.59291045856223" lon="11.346726928633952"><ele>423.0</ele><time>2026-04-29T23:45:55.998Z</time></trkpt><trkpt lat="43.592776402282226" lon="11.346605831607128"><ele>422.0</ele><time>2026-04-29T23:45:56.998Z</time></trkpt><trkpt lat="43.59263908193157" lon="11.346471860681888"><ele>421.0</ele><time>2026-04-29T23:45:57.998Z</time></trkpt><trkpt lat="43.59249777801297" lon="11.34635521597464"><ele>421.0</ele><time>2026-04-29T23:45:58.998Z</time></trkpt><trkpt lat="43.59234145022792" lon="11.34626046475073"><ele>421.0</ele><time>2026-04-29T23:45:59.998Z</time></trkpt><trkpt lat="43.59218029542728" lon="11.346216461994526"><ele>421.0</ele><time>2026-04-29T23:46:00.998Z</time></trkpt><trkpt lat="43.59200305390411" lon="11.346229815818722"><ele>423.0</ele><time>2026-04-29T23:46:01.998Z</time></trkpt><trkpt lat="43.59182346079813" lon="11.34626727846511"><ele>425.0</ele><time>2026-04-29T23:46:02.998Z</time></trkpt><trkpt lat="43.59165390725152" lon="11.346281631292129"><ele>427.0</ele><time>2026-04-29T23:46:03.998Z</time></trkpt><trkpt lat="43.59149813089127" lon="11.346282805372361"><ele>427.0</ele><time>2026-04-29T23:46:04.998Z</time></trkpt><trkpt lat="43.59136611491733" lon="11.346225664805996"><ele>427.0</ele><time>2026-04-29T23:46:05.998Z</time></trkpt><trkpt lat="43.59126116508695" lon="11.346104351570288"><ele>427.0</ele><time>2026-04-29T23:46:06.998Z</time></trkpt><trkpt lat="43.59117982769446" lon="11.345939472456788"><ele>427.0</ele><time>2026-04-29T23:46:07.999Z</time></trkpt><trkpt lat="43.59114769086924" lon="11.345745859595699"><ele>428.33333333333337</ele><time>2026-04-29T23:46:08.999Z</time></trkpt><trkpt lat="43.591125498065836" lon="11.345527075395342"><ele>429.66666666666663</ele><time>2026-04-29T23:46:10.001Z</time></trkpt><trkpt lat="43.59110852386312" lon="11.34529924810314"><ele>431.0</ele><time>2026-04-29T23:46:11.001Z</time></trkpt><trkpt lat="43.59115047277408" lon="11.345082193610075"><ele>428.3333333333333</ele><time>2026-04-29T23:46:12.001Z</time></trkpt><trkpt lat="43.591209507012245" lon="11.344872299722843"><ele>425.66666666666663</ele><time>2026-04-29T23:46:13.001Z</time></trkpt><trkpt lat="43.591289047019984" lon="11.344658414106785"><ele>423.0</ele><time>2026-04-29T23:46:14.001Z</time></trkpt><trkpt lat="43.591365959830895" lon="11.344426394699907"><ele>423.0</ele><time>2026-04-29T23:46:15.001Z</time></trkpt><trkpt lat="43.59144747451317" lon="11.344209498244794"><ele>423.0</ele><time>2026-04-29T23:46:16.001Z</time></trkpt><trkpt lat="43.591523683068296" lon="11.343975509640817"><ele>423.0</ele><time>2026-04-29T23:46:17.001Z</time></trkpt><trkpt lat="43.59160115573777" lon="11.343749277562157"><ele>422.66666666666663</ele><time>2026-04-29T23:46:18.001Z</time></trkpt><trkpt lat="43.59169062540915" lon="11.343544694773243"><ele>422.3333333333333</ele><time>2026-04-29T23:46:19.001Z</time></trkpt><trkpt lat="43.5918234181853" lon="11.343416564911573"><ele>422.0</ele><time>2026-04-29T23:46:20.001Z</time></trkpt><trkpt lat="43.59196610199636" lon="11.343312695738629"><ele>422.25</ele><time>2026-04-29T23:46:21Z</time></trkpt><trkpt lat="43.5921209551018" lon="11.343223580529664"><ele>422.5</ele><time>2026-04-29T23:46:22.001Z</time></trkpt><trkpt lat="43.59225501377214" lon="11.343123654729247"><ele>422.75</ele><time>2026-04-29T23:46:23.001Z</time></trkpt><trkpt lat="43.59236579837007" lon="11.343035847446053"><ele>423.0</ele><time>2026-04-29T23:46:24.001Z</time></trkpt><trkpt lat="43.592430571698266" lon="11.342897115402582"><ele>423.0</ele><time>2026-04-29T23:46:25Z</time></trkpt><trkpt lat="43.59244739245013" lon="11.342721303210368"><ele>423.0</ele><time>2026-04-29T23:46:26Z</time></trkpt><trkpt lat="43.592459836558035" lon="11.342544661607215"><ele>423.0</ele><time>2026-04-29T23:46:27Z</time></trkpt><trkpt lat="43.59252245835529" lon="11.342408671097466"><ele>423.0</ele><time>2026-04-29T23:46:28Z</time></trkpt><trkpt lat="43.59265834707886" lon="11.342390003132152"><ele>423.0</ele><time>2026-04-29T23:46:29Z</time></trkpt><trkpt lat="43.592801872742044" lon="11.34239071626706"><ele>423.0</ele><time>2026-04-29T23:46:30Z</time></trkpt><trkpt lat="43.592923596909884" lon="11.342325700012559"><ele>423.0</ele><time>2026-04-29T23:46:31Z</time></trkpt><trkpt lat="43.59304304687543" lon="11.342212780131254"><ele>423.0</ele><time>2026-04-29T23:46:32Z</time></trkpt><trkpt lat="43.59316143600668" lon="11.342080231500896"><ele>421.0</ele><time>2026-04-29T23:46:33Z</time></trkpt><trkpt lat="43.593293203957515" lon="11.342000747116591"><ele>419.0</ele><time>2026-04-29T23:46:34Z</time></trkpt><trkpt lat="43.59340212604666" lon="11.341913635787774"><ele>417.0</ele><time>2026-04-29T23:46:35Z</time></trkpt><trkpt lat="43.593493868147725" lon="11.341815237446637"><ele>415.0</ele><time>2026-04-29T23:46:36Z</time></trkpt><trkpt lat="43.59358151461205" lon="11.341750467963571"><ele>415.00000000000006</ele><time>2026-04-29T23:46:37Z</time></trkpt><trkpt lat="43.593661337712" lon="11.341722095511525"><ele>415.0</ele><time>2026-04-29T23:46:38Z</time></trkpt><trkpt lat="43.593729848886355" lon="11.341767462417746"><ele>415.0</ele><time>2026-04-29T23:46:39Z</time></trkpt><trkpt lat="43.593791238410056" lon="11.341788372262053"><ele>415.0</ele><time>2026-04-29T23:46:40Z</time></trkpt><trkpt lat="43.59386448861267" lon="11.341885391970207"><ele>415.00000000000006</ele><time>2026-04-29T23:46:42Z</time></trkpt><trkpt lat="43.59398394670929" lon="11.34187702877992"><ele>415.0</ele><time>2026-04-29T23:46:44Z</time></trkpt><trkpt lat="43.59404506409715" lon="11.341826400717514"><ele>414.42857142857144</ele><time>2026-04-29T23:46:45Z</time></trkpt><trkpt lat="43.59410697847549" lon="11.341788628664341"><ele>413.8571428571429</ele><time>2026-04-29T23:46:46Z</time></trkpt><trkpt lat="43.59418748673185" lon="11.341870721915052"><ele>413.2857142857143</ele><time>2026-04-29T23:46:48Z</time></trkpt><trkpt lat="43.594214434189546" lon="11.34195643159559"><ele>412.7142857142857</ele><time>2026-04-29T23:46:49Z</time></trkpt><trkpt lat="43.594253818014515" lon="11.342038481245032"><ele>412.1428571428571</ele><time>2026-04-29T23:46:50Z</time></trkpt><trkpt lat="43.5942924767221" lon="11.342113734363357"><ele>411.57142857142856</ele><time>2026-04-29T23:46:51Z</time></trkpt><trkpt lat="43.59433583574306" lon="11.342190431014608"><ele>411.0</ele><time>2026-04-29T23:46:52Z</time></trkpt><trkpt lat="43.59438389412249" lon="11.34226514970111"><ele>409.5</ele><time>2026-04-29T23:46:53Z</time></trkpt><trkpt lat="43.594436993656714" lon="11.342335368868344"><ele>408.0</ele><time>2026-04-29T23:46:54Z</time></trkpt><trkpt lat="43.59450520048573" lon="11.342388520129067"><ele>406.5</ele><time>2026-04-29T23:46:55Z</time></trkpt><trkpt lat="43.59455631051343" lon="11.342461202527396"><ele>405.0</ele><time>2026-04-29T23:46:56Z</time></trkpt><trkpt lat="43.59463428729804" lon="11.34252422442934"><ele>403.5</ele><time>2026-04-29T23:46:57Z</time></trkpt><trkpt lat="43.59467090802022" lon="11.342642518132575"><ele>402.0</ele><time>2026-04-29T23:46:58Z</time></trkpt><trkpt lat="43.594725455672176" lon="11.342761591182352"><ele>399.6</ele><time>2026-04-29T23:46:59Z</time></trkpt><trkpt lat="43.59475283767728" lon="11.34288721195063"><ele>397.20000000000005</ele><time>2026-04-29T23:47:00Z</time></trkpt><trkpt lat="43.594788706472436" lon="11.343027839898975"><ele>394.8</ele><time>2026-04-29T23:47:01Z</time></trkpt><trkpt lat="43.59482747232079" lon="11.343175485161595"><ele>392.4</ele><time>2026-04-29T23:47:02Z</time></trkpt><trkpt lat="43.59488099476983" lon="11.343292491699541"><ele>390.0</ele><time>2026-04-29T23:47:03Z</time></trkpt><trkpt lat="43.59492975521611" lon="11.343396829838214"><ele>388.8</ele><time>2026-04-29T23:47:04Z</time></trkpt><trkpt lat="43.594994252193366" lon="11.343489646582404"><ele>387.6</ele><time>2026-04-29T23:47:05Z</time></trkpt><trkpt lat="43.595059566912276" lon="11.343583128434213"><ele>386.4</ele><time>2026-04-29T23:47:06Z</time></trkpt><trkpt lat="43.59512827104125" lon="11.343657764034047"><ele>385.2</ele><time>2026-04-29T23:47:07Z</time></trkpt><trkpt lat="43.595194097255835" lon="11.343736147835974"><ele>384.0</ele><time>2026-04-29T23:47:08Z</time></trkpt><trkpt lat="43.595257049992114" lon="11.343836853675462"><ele>381.79999999999995</ele><time>2026-04-29T23:47:09Z</time></trkpt><trkpt lat="43.59532184863956" lon="11.34395340580291"><ele>379.59999999999997</ele><time>2026-04-29T23:47:10Z</time></trkpt><trkpt lat="43.59538606113059" lon="11.3440696838134"><ele>377.4</ele><time>2026-04-29T23:47:11Z</time></trkpt><trkpt lat="43.59546279204799" lon="11.344170684682009"><ele>375.2</ele><time>2026-04-29T23:47:12Z</time></trkpt><trkpt lat="43.59551167099818" lon="11.344270306562928"><ele>373.0</ele><time>2026-04-29T23:47:13Z</time></trkpt><trkpt lat="43.5955531734084" lon="11.34434582141363"><ele>371.0</ele><time>2026-04-29T23:47:14Z</time></trkpt><trkpt lat="43.59560553994971" lon="11.344417184195656"><ele>369.0</ele><time>2026-04-29T23:47:15Z</time></trkpt><trkpt lat="43.59567282607986" lon="11.344511280058184"><ele>367.0</ele><time>2026-04-29T23:47:17Z</time></trkpt><trkpt lat="43.59574396021862" lon="11.344583372553416"><ele>365.0</ele><time>2026-04-29T23:47:20Z</time></trkpt><trkpt lat="43.59567362208005" lon="11.344523293618048"><ele>363.0</ele><time>2026-04-29T23:47:24Z</time></trkpt><trkpt lat="43.595636136895735" lon="11.344364123271065"><ele>363.0</ele><time>2026-04-29T23:47:26Z</time></trkpt><trkpt lat="43.59561031450643" lon="11.344262190466043"><ele>363.0</ele><time>2026-04-29T23:47:28Z</time></trkpt></trkseg></trk></gpx>